<?xml version="1.0" encoding="UTF-8" standalone="no" ?><gpx xmlns="http://www.topografix.com/GPX/1/1" xmlns:gpxx="http://www.garmin.com/xmlschemas/GpxExtensions/v3" xmlns:gpxtrkx="http://www.garmin.com/xmlschemas/TrackStatsExtension/v1" xmlns:wptx1="http://www.garmin.com/xmlschemas/WaypointExtension/v1" xmlns:gpxtpx="http://www.garmin.com/xmlschemas/TrackPointExtension/v1" creator="eTrex 20" version="1.1" xmlns:xsi="http://www.w3.org/2001/XMLSchema-instance" xsi:schemaLocation="http://www.topografix.com/GPX/1/1 http://www.topografix.com/GPX/1/1/gpx.xsd http://www.garmin.com/xmlschemas/GpxExtensions/v3 http://www8.garmin.com/xmlschemas/GpxExtensionsv3.xsd http://www.garmin.com/xmlschemas/TrackStatsExtension/v1 http://www8.garmin.com/xmlschemas/TrackStatsExtension.xsd http://www.garmin.com/xmlschemas/WaypointExtension/v1 http://www8.garmin.com/xmlschemas/WaypointExtensionv1.xsd http://www.garmin.com/xmlschemas/TrackPointExtension/v1 http://www.garmin.com/xmlschemas/TrackPointExtensionv1.xsd"><metadata><link href="http://www.garmin.com"><text>Garmin International</text></link><time>2016-12-25T06:02:45Z</time></metadata><trk><name>2016-12-24 09:28:42 День</name><extensions><gpxx:TrackExtension><gpxx:DisplayColor>DarkBlue</gpxx:DisplayColor></gpxx:TrackExtension></extensions><trkseg><trkpt lat="51.6948557273" lon="39.2661748175"><ele>143.85</ele><time>2016-12-24T06:28:42Z</time></trkpt><trkpt lat="51.6948764306" lon="39.2661505099"><ele>143.85</ele><time>2016-12-24T06:29:07Z</time></trkpt><trkpt lat="51.6949824616" lon="39.2661425471"><ele>134.24</ele><time>2016-12-24T06:29:35Z</time></trkpt><trkpt lat="51.6950281430" lon="39.2662682757"><ele>132.32</ele><time>2016-12-24T06:30:02Z</time></trkpt><trkpt lat="51.6949911788" lon="39.2662133742"><ele>131.36</ele><time>2016-12-24T06:30:28Z</time></trkpt><trkpt lat="51.6950346809" lon="39.2662298027"><ele>130.88</ele><time>2016-12-24T06:30:56Z</time></trkpt><trkpt lat="51.6950128041" lon="39.2662596423"><ele>131.36</ele><time>2016-12-24T06:31:21Z</time></trkpt><trkpt lat="51.6949653625" lon="39.2661620770"><ele>132.32</ele><time>2016-12-24T06:31:50Z</time></trkpt><trkpt lat="51.6949487664" lon="39.2660470773"><ele>133.76</ele><time>2016-12-24T06:32:20Z</time></trkpt><trkpt lat="51.6949480958" lon="39.2658661958"><ele>134.24</ele><time>2016-12-24T06:32:45Z</time></trkpt><trkpt lat="51.6949356068" lon="39.2659955285"><ele>134.24</ele><time>2016-12-24T06:33:17Z</time></trkpt><trkpt lat="51.6949110478" lon="39.2660997156"><ele>136.16</ele><time>2016-12-24T06:33:45Z</time></trkpt><trkpt lat="51.6949506942" lon="39.2660743184"><ele>135.68</ele><time>2016-12-24T06:34:09Z</time></trkpt><trkpt lat="51.6950328369" lon="39.2660730612"><ele>132.32</ele><time>2016-12-24T06:34:27Z</time></trkpt></trkseg><trkseg><trkpt lat="51.6948074475" lon="39.2663083412"><ele>61.18</ele><time>2016-12-24T06:35:12Z</time></trkpt><trkpt lat="51.6947699804" lon="39.2664446309"><ele>17.92</ele><time>2016-12-24T06:35:39Z</time></trkpt><trkpt lat="51.6947441641" lon="39.2665126082"><ele>-17.17</ele><time>2016-12-24T06:36:02Z</time></trkpt><trkpt lat="51.6946730018" lon="39.2665529251"><ele>-49.85</ele><time>2016-12-24T06:36:24Z</time></trkpt><trkpt lat="51.6946813837" lon="39.2665411904"><ele>-55.14</ele><time>2016-12-24T06:36:27Z</time></trkpt><trkpt lat="51.6947197728" lon="39.2665759753"><ele>-91.19</ele><time>2016-12-24T06:36:51Z</time></trkpt><trkpt lat="51.6947154142" lon="39.2665760592"><ele>-65.71</ele><time>2016-12-24T06:37:12Z</time></trkpt><trkpt lat="51.6948620975" lon="39.2664274480"><ele>-16.69</ele><time>2016-12-24T06:37:42Z</time></trkpt><trkpt lat="51.6948159970" lon="39.2664860375"><ele>-17.17</ele><time>2016-12-24T06:38:08Z</time></trkpt><trkpt lat="51.6950007342" lon="39.2664142046"><ele>33.30</ele><time>2016-12-24T06:38:38Z</time></trkpt><trkpt lat="51.6949559748" lon="39.2662171461"><ele>88.58</ele><time>2016-12-24T06:39:00Z</time></trkpt><trkpt lat="51.6949870717" lon="39.2662007175"><ele>87.14</ele><time>2016-12-24T06:39:31Z</time></trkpt><trkpt lat="51.6949418932" lon="39.2661112826"><ele>119.82</ele><time>2016-12-24T06:40:10Z</time></trkpt><trkpt lat="51.6949334275" lon="39.2661044933"><ele>120.30</ele><time>2016-12-24T06:40:55Z</time></trkpt><trkpt lat="51.6949269734" lon="39.2661043257"><ele>122.22</ele><time>2016-12-24T06:41:41Z</time></trkpt><trkpt lat="51.6949402168" lon="39.2660874780"><ele>115.98</ele><time>2016-12-24T06:42:22Z</time></trkpt><trkpt lat="51.6949500237" lon="39.2660733964"><ele>112.61</ele><time>2016-12-24T06:43:03Z</time></trkpt><trkpt lat="51.6949542146" lon="39.2660666071"><ele>111.17</ele><time>2016-12-24T06:43:44Z</time></trkpt><trkpt lat="51.6949563101" lon="39.2661034875"><ele>115.50</ele><time>2016-12-24T06:44:24Z</time></trkpt><trkpt lat="51.6949537117" lon="39.2660792638"><ele>116.46</ele><time>2016-12-24T06:45:03Z</time></trkpt><trkpt lat="51.6949579865" lon="39.2660716362"><ele>117.42</ele><time>2016-12-24T06:45:43Z</time></trkpt><trkpt lat="51.6949542984" lon="39.2660780065"><ele>117.90</ele><time>2016-12-24T06:46:23Z</time></trkpt><trkpt lat="51.6949757561" lon="39.2660650983"><ele>119.82</ele><time>2016-12-24T06:46:45Z</time></trkpt><trkpt lat="51.6950095352" lon="39.2660341691"><ele>120.78</ele><time>2016-12-24T06:47:22Z</time></trkpt><trkpt lat="51.6949932743" lon="39.2660303134"><ele>122.22</ele><time>2016-12-24T06:48:07Z</time></trkpt><trkpt lat="51.6950323340" lon="39.2660757434"><ele>122.22</ele><time>2016-12-24T06:48:25Z</time></trkpt><trkpt lat="51.6950817034" lon="39.2661937606"><ele>122.71</ele><time>2016-12-24T06:48:39Z</time></trkpt><trkpt lat="51.6952049173" lon="39.2663973570"><ele>128.47</ele><time>2016-12-24T06:48:55Z</time></trkpt><trkpt lat="51.6952371038" lon="39.2662584689"><ele>133.76</ele><time>2016-12-24T06:49:17Z</time></trkpt><trkpt lat="51.6951574758" lon="39.2661004700"><ele>123.19</ele><time>2016-12-24T06:49:28Z</time></trkpt><trkpt lat="51.6951499321" lon="39.2661154736"><ele>122.22</ele><time>2016-12-24T06:49:32Z</time></trkpt><trkpt lat="51.6951444838" lon="39.2662121169"><ele>121.74</ele><time>2016-12-24T06:49:38Z</time></trkpt><trkpt lat="51.6950975452" lon="39.2663297988"><ele>119.34</ele><time>2016-12-24T06:49:43Z</time></trkpt><trkpt lat="51.6951492615" lon="39.2664137855"><ele>117.90</ele><time>2016-12-24T06:49:48Z</time></trkpt><trkpt lat="51.6951739881" lon="39.2664292082"><ele>117.90</ele><time>2016-12-24T06:49:49Z</time></trkpt><trkpt lat="51.6951901652" lon="39.2664414458"><ele>117.90</ele><time>2016-12-24T06:49:50Z</time></trkpt><trkpt lat="51.6956398543" lon="39.2667636462"><ele>119.82</ele><time>2016-12-24T06:50:07Z</time></trkpt><trkpt lat="51.6959559359" lon="39.2669518199"><ele>122.22</ele><time>2016-12-24T06:50:18Z</time></trkpt><trkpt lat="51.6962493025" lon="39.2671837471"><ele>122.22</ele><time>2016-12-24T06:50:28Z</time></trkpt><trkpt lat="51.6967527196" lon="39.2675420735"><ele>122.71</ele><time>2016-12-24T06:50:45Z</time></trkpt><trkpt lat="51.6968938708" lon="39.2676743399"><ele>124.15</ele><time>2016-12-24T06:50:51Z</time></trkpt><trkpt lat="51.6968964692" lon="39.2676955462"><ele>124.15</ele><time>2016-12-24T06:50:52Z</time></trkpt><trkpt lat="51.6968950443" lon="39.2677271459"><ele>124.15</ele><time>2016-12-24T06:50:53Z</time></trkpt><trkpt lat="51.6968786158" lon="39.2677874956"><ele>124.15</ele><time>2016-12-24T06:50:55Z</time></trkpt><trkpt lat="51.6968636122" lon="39.2678211909"><ele>123.67</ele><time>2016-12-24T06:50:56Z</time></trkpt><trkpt lat="51.6968487762" lon="39.2678656150"><ele>123.67</ele><time>2016-12-24T06:50:57Z</time></trkpt><trkpt lat="51.6968370415" lon="39.2679158226"><ele>124.15</ele><time>2016-12-24T06:50:58Z</time></trkpt><trkpt lat="51.6968242172" lon="39.2679687124"><ele>124.15</ele><time>2016-12-24T06:50:59Z</time></trkpt><trkpt lat="51.6967055295" lon="39.2685511708"><ele>129.43</ele><time>2016-12-24T06:51:11Z</time></trkpt><trkpt lat="51.6966569982" lon="39.2691609543"><ele>129.43</ele><time>2016-12-24T06:51:22Z</time></trkpt><trkpt lat="51.6964377277" lon="39.2700499389"><ele>126.55</ele><time>2016-12-24T06:51:37Z</time></trkpt><trkpt lat="51.6964401584" lon="39.2702810280"><ele>125.11</ele><time>2016-12-24T06:51:42Z</time></trkpt><trkpt lat="51.6964668967" lon="39.2703074310"><ele>125.11</ele><time>2016-12-24T06:51:43Z</time></trkpt><trkpt lat="51.6970667057" lon="39.2707050685"><ele>123.19</ele><time>2016-12-24T06:51:57Z</time></trkpt><trkpt lat="51.6975183226" lon="39.2710153665"><ele>122.22</ele><time>2016-12-24T06:52:07Z</time></trkpt><trkpt lat="51.6975516826" lon="39.2710502353"><ele>121.74</ele><time>2016-12-24T06:52:08Z</time></trkpt><trkpt lat="51.6975775827" lon="39.2710927315"><ele>121.26</ele><time>2016-12-24T06:52:09Z</time></trkpt><trkpt lat="51.6975972801" lon="39.2711400893"><ele>121.26</ele><time>2016-12-24T06:52:10Z</time></trkpt><trkpt lat="51.6976178996" lon="39.2711796518"><ele>120.78</ele><time>2016-12-24T06:52:11Z</time></trkpt><trkpt lat="51.6976408660" lon="39.2712218966"><ele>120.30</ele><time>2016-12-24T06:52:12Z</time></trkpt><trkpt lat="51.6977116931" lon="39.2716579232"><ele>123.67</ele><time>2016-12-24T06:52:21Z</time></trkpt><trkpt lat="51.6978649981" lon="39.2718125694"><ele>123.19</ele><time>2016-12-24T06:52:32Z</time></trkpt><trkpt lat="51.6982523259" lon="39.2720636073"><ele>122.71</ele><time>2016-12-24T06:52:44Z</time></trkpt><trkpt lat="51.6991268098" lon="39.2726356722"><ele>122.22</ele><time>2016-12-24T06:53:05Z</time></trkpt><trkpt lat="51.6993311606" lon="39.2727848701"><ele>122.22</ele><time>2016-12-24T06:53:10Z</time></trkpt><trkpt lat="51.6998818517" lon="39.2731463816"><ele>121.74</ele><time>2016-12-24T06:53:24Z</time></trkpt><trkpt lat="51.7002660781" lon="39.2733994313"><ele>121.26</ele><time>2016-12-24T06:53:35Z</time></trkpt><trkpt lat="51.7005989235" lon="39.2736217193"><ele>121.74</ele><time>2016-12-24T06:53:48Z</time></trkpt><trkpt lat="51.7007350456" lon="39.2737226374"><ele>121.74</ele><time>2016-12-24T06:53:54Z</time></trkpt><trkpt lat="51.7007223889" lon="39.2738298420"><ele>119.34</ele><time>2016-12-24T06:54:06Z</time></trkpt><trkpt lat="51.7007033620" lon="39.2738310155"><ele>116.94</ele><time>2016-12-24T06:54:42Z</time></trkpt><trkpt lat="51.7006643023" lon="39.2739184387"><ele>117.42</ele><time>2016-12-24T06:55:18Z</time></trkpt><trkpt lat="51.7006547470" lon="39.2741961312"><ele>117.90</ele><time>2016-12-24T06:55:31Z</time></trkpt><trkpt lat="51.7010367103" lon="39.2743746657"><ele>120.30</ele><time>2016-12-24T06:55:43Z</time></trkpt><trkpt lat="51.7013035901" lon="39.2745848838"><ele>120.78</ele><time>2016-12-24T06:55:49Z</time></trkpt><trkpt lat="51.7013488524" lon="39.2746117897"><ele>120.78</ele><time>2016-12-24T06:55:50Z</time></trkpt><trkpt lat="51.7021805886" lon="39.2750961799"><ele>122.71</ele><time>2016-12-24T06:56:07Z</time></trkpt><trkpt lat="51.7027291004" lon="39.2753315438"><ele>120.78</ele><time>2016-12-24T06:56:18Z</time></trkpt><trkpt lat="51.7028130870" lon="39.2753877025"><ele>120.78</ele><time>2016-12-24T06:56:19Z</time></trkpt><trkpt lat="51.7028393224" lon="39.2754200567"><ele>120.78</ele><time>2016-12-24T06:56:20Z</time></trkpt><trkpt lat="51.7028819025" lon="39.2754762992"><ele>120.30</ele><time>2016-12-24T06:56:21Z</time></trkpt><trkpt lat="51.7029058747" lon="39.2755161133"><ele>119.82</ele><time>2016-12-24T06:56:22Z</time></trkpt><trkpt lat="51.7029377259" lon="39.2755770497"><ele>119.34</ele><time>2016-12-24T06:56:23Z</time></trkpt><trkpt lat="51.7029645480" lon="39.2756425124"><ele>118.86</ele><time>2016-12-24T06:56:24Z</time></trkpt><trkpt lat="51.7029904481" lon="39.2757100705"><ele>118.86</ele><time>2016-12-24T06:56:25Z</time></trkpt><trkpt lat="51.7030118220" lon="39.2757810652"><ele>118.86</ele><time>2016-12-24T06:56:26Z</time></trkpt><trkpt lat="51.7030274123" lon="39.2758600228"><ele>118.86</ele><time>2016-12-24T06:56:27Z</time></trkpt><trkpt lat="51.7030369677" lon="39.2759313527"><ele>118.38</ele><time>2016-12-24T06:56:28Z</time></trkpt><trkpt lat="51.7030430865" lon="39.2760090530"><ele>118.38</ele><time>2016-12-24T06:56:29Z</time></trkpt><trkpt lat="51.7030448467" lon="39.2760880943"><ele>117.90</ele><time>2016-12-24T06:56:30Z</time></trkpt><trkpt lat="51.7030424159" lon="39.2761681415"><ele>117.42</ele><time>2016-12-24T06:56:31Z</time></trkpt><trkpt lat="51.7030361295" lon="39.2762507033"><ele>117.42</ele><time>2016-12-24T06:56:32Z</time></trkpt><trkpt lat="51.7030274123" lon="39.2763401382"><ele>116.94</ele><time>2016-12-24T06:56:33Z</time></trkpt><trkpt lat="51.7028808966" lon="39.2778561730"><ele>113.09</ele><time>2016-12-24T06:56:50Z</time></trkpt><trkpt lat="51.7028734367" lon="39.2779462785"><ele>113.57</ele><time>2016-12-24T06:56:51Z</time></trkpt><trkpt lat="51.7027439363" lon="39.2796836793"><ele>113.57</ele><time>2016-12-24T06:57:11Z</time></trkpt><trkpt lat="51.7026304454" lon="39.2811117042"><ele>116.46</ele><time>2016-12-24T06:57:30Z</time></trkpt><trkpt lat="51.7024808284" lon="39.2829089519"><ele>116.46</ele><time>2016-12-24T06:57:52Z</time></trkpt><trkpt lat="51.7023457121" lon="39.2846673913"><ele>118.86</ele><time>2016-12-24T06:58:13Z</time></trkpt><trkpt lat="51.7021992803" lon="39.2865240667"><ele>120.30</ele><time>2016-12-24T06:58:35Z</time></trkpt><trkpt lat="51.7020817660" lon="39.2882375792"><ele>120.30</ele><time>2016-12-24T06:58:55Z</time></trkpt><trkpt lat="51.7022924032" lon="39.2895453237"><ele>119.34</ele><time>2016-12-24T06:59:11Z</time></trkpt><trkpt lat="51.7028965708" lon="39.2903689295"><ele>119.82</ele><time>2016-12-24T06:59:26Z</time></trkpt><trkpt lat="51.7039110325" lon="39.2907524854"><ele>120.78</ele><time>2016-12-24T06:59:45Z</time></trkpt><trkpt lat="51.7050603591" lon="39.2910356261"><ele>121.26</ele><time>2016-12-24T07:00:05Z</time></trkpt><trkpt lat="51.7062161397" lon="39.2913155816"><ele>121.26</ele><time>2016-12-24T07:00:25Z</time></trkpt><trkpt lat="51.7076139897" lon="39.2916744947"><ele>120.78</ele><time>2016-12-24T07:00:49Z</time></trkpt><trkpt lat="51.7088957503" lon="39.2919989582"><ele>119.82</ele><time>2016-12-24T07:01:11Z</time></trkpt><trkpt lat="51.7099976353" lon="39.2922783270"><ele>117.90</ele><time>2016-12-24T07:01:30Z</time></trkpt><trkpt lat="51.7110336386" lon="39.2925418541"><ele>116.94</ele><time>2016-12-24T07:01:48Z</time></trkpt><trkpt lat="51.7120794486" lon="39.2928052973"><ele>115.98</ele><time>2016-12-24T07:02:06Z</time></trkpt><trkpt lat="51.7132767197" lon="39.2931043636"><ele>115.01</ele><time>2016-12-24T07:02:26Z</time></trkpt><trkpt lat="51.7143194284" lon="39.2933777813"><ele>115.98</ele><time>2016-12-24T07:02:44Z</time></trkpt><trkpt lat="51.7151810043" lon="39.2935953755"><ele>116.94</ele><time>2016-12-24T07:02:59Z</time></trkpt><trkpt lat="51.7162231263" lon="39.2938646860"><ele>117.90</ele><time>2016-12-24T07:03:17Z</time></trkpt><trkpt lat="51.7174981814" lon="39.2941814382"><ele>116.46</ele><time>2016-12-24T07:03:39Z</time></trkpt><trkpt lat="51.7186946981" lon="39.2944804206"><ele>116.94</ele><time>2016-12-24T07:04:00Z</time></trkpt><trkpt lat="51.7195364926" lon="39.2947364878"><ele>116.94</ele><time>2016-12-24T07:04:16Z</time></trkpt><trkpt lat="51.7206340190" lon="39.2950090673"><ele>119.34</ele><time>2016-12-24T07:04:36Z</time></trkpt><trkpt lat="51.7216659989" lon="39.2952798866"><ele>118.38</ele><time>2016-12-24T07:04:55Z</time></trkpt><trkpt lat="51.7228760943" lon="39.2955985665"><ele>116.94</ele><time>2016-12-24T07:05:18Z</time></trkpt><trkpt lat="51.7240022868" lon="39.2958911788"><ele>117.90</ele><time>2016-12-24T07:05:40Z</time></trkpt><trkpt lat="51.7249283195" lon="39.2961279675"><ele>118.38</ele><time>2016-12-24T07:05:59Z</time></trkpt><trkpt lat="51.7261615489" lon="39.2964574602"><ele>117.90</ele><time>2016-12-24T07:06:23Z</time></trkpt><trkpt lat="51.7272915971" lon="39.2967593763"><ele>118.38</ele><time>2016-12-24T07:06:45Z</time></trkpt><trkpt lat="51.7277223431" lon="39.2968960851"><ele>117.90</ele><time>2016-12-24T07:06:54Z</time></trkpt><trkpt lat="51.7277625762" lon="39.2969286069"><ele>117.90</ele><time>2016-12-24T07:06:55Z</time></trkpt><trkpt lat="51.7278003786" lon="39.2969735339"><ele>117.90</ele><time>2016-12-24T07:06:56Z</time></trkpt><trkpt lat="51.7278254405" lon="39.2970303632"><ele>117.90</ele><time>2016-12-24T07:06:57Z</time></trkpt><trkpt lat="51.7278510891" lon="39.2972516455"><ele>117.90</ele><time>2016-12-24T07:07:00Z</time></trkpt><trkpt lat="51.7278842814" lon="39.2992455326"><ele>116.94</ele><time>2016-12-24T07:07:24Z</time></trkpt><trkpt lat="51.7277767416" lon="39.3011862785"><ele>117.42</ele><time>2016-12-24T07:07:47Z</time></trkpt><trkpt lat="51.7276068404" lon="39.3029512558"><ele>119.34</ele><time>2016-12-24T07:08:08Z</time></trkpt><trkpt lat="51.7274298985" lon="39.3048049975"><ele>120.78</ele><time>2016-12-24T07:08:30Z</time></trkpt><trkpt lat="51.7272331752" lon="39.3068081047"><ele>124.15</ele><time>2016-12-24T07:08:54Z</time></trkpt><trkpt lat="51.7270347755" lon="39.3088858109"><ele>125.59</ele><time>2016-12-24T07:09:19Z</time></trkpt><trkpt lat="51.7268817220" lon="39.3104665540"><ele>125.11</ele><time>2016-12-24T07:09:38Z</time></trkpt><trkpt lat="51.7266981583" lon="39.3123701680"><ele>123.19</ele><time>2016-12-24T07:09:59Z</time></trkpt><trkpt lat="51.7265295144" lon="39.3140827585"><ele>119.34</ele><time>2016-12-24T07:10:17Z</time></trkpt><trkpt lat="51.7263063043" lon="39.3164402526"><ele>112.61</ele><time>2016-12-24T07:10:38Z</time></trkpt><trkpt lat="51.7261572741" lon="39.3179977778"><ele>112.13</ele><time>2016-12-24T07:10:54Z</time></trkpt><trkpt lat="51.7261563521" lon="39.3180764839"><ele>112.13</ele><time>2016-12-24T07:10:55Z</time></trkpt><trkpt lat="51.7261601239" lon="39.3181605544"><ele>112.13</ele><time>2016-12-24T07:10:56Z</time></trkpt><trkpt lat="51.7261748761" lon="39.3182514142"><ele>111.65</ele><time>2016-12-24T07:10:57Z</time></trkpt><trkpt lat="51.7261961661" lon="39.3183151167"><ele>111.65</ele><time>2016-12-24T07:10:58Z</time></trkpt><trkpt lat="51.7262377404" lon="39.3183837645"><ele>111.65</ele><time>2016-12-24T07:10:59Z</time></trkpt><trkpt lat="51.7262967490" lon="39.3184265122"><ele>111.65</ele><time>2016-12-24T07:11:00Z</time></trkpt><trkpt lat="51.7263376527" lon="39.3184405938"><ele>111.65</ele><time>2016-12-24T07:11:01Z</time></trkpt><trkpt lat="51.7263926379" lon="39.3184529152"><ele>111.65</ele><time>2016-12-24T07:11:02Z</time></trkpt><trkpt lat="51.7276326567" lon="39.3187013548"><ele>112.61</ele><time>2016-12-24T07:11:23Z</time></trkpt><trkpt lat="51.7288331967" lon="39.3189531472"><ele>110.21</ele><time>2016-12-24T07:11:44Z</time></trkpt><trkpt lat="51.7300629895" lon="39.3192081247"><ele>108.77</ele><time>2016-12-24T07:12:05Z</time></trkpt><trkpt lat="51.7311233003" lon="39.3195320852"><ele>108.77</ele><time>2016-12-24T07:12:24Z</time></trkpt><trkpt lat="51.7317590676" lon="39.3203991093"><ele>108.77</ele><time>2016-12-24T07:12:40Z</time></trkpt><trkpt lat="51.7319220956" lon="39.3211476970"><ele>108.29</ele><time>2016-12-24T07:12:49Z</time></trkpt><trkpt lat="51.7319231853" lon="39.3212350365"><ele>108.29</ele><time>2016-12-24T07:12:50Z</time></trkpt><trkpt lat="51.7319216765" lon="39.3213388044"><ele>107.81</ele><time>2016-12-24T07:12:51Z</time></trkpt><trkpt lat="51.7319172341" lon="39.3214244675"><ele>107.81</ele><time>2016-12-24T07:12:52Z</time></trkpt><trkpt lat="51.7319110315" lon="39.3215248827"><ele>107.81</ele><time>2016-12-24T07:12:53Z</time></trkpt><trkpt lat="51.7317713052" lon="39.3231872655"><ele>107.32</ele><time>2016-12-24T07:13:11Z</time></trkpt><trkpt lat="51.7316241190" lon="39.3252352998"><ele>107.81</ele><time>2016-12-24T07:13:33Z</time></trkpt><trkpt lat="51.7314918526" lon="39.3269825075"><ele>108.77</ele><time>2016-12-24T07:13:52Z</time></trkpt><trkpt lat="51.7314046808" lon="39.3278637808"><ele>107.32</ele><time>2016-12-24T07:14:02Z</time></trkpt><trkpt lat="51.7311693169" lon="39.3286996242"><ele>106.36</ele><time>2016-12-24T07:14:12Z</time></trkpt><trkpt lat="51.7304403428" lon="39.3298786227"><ele>105.40</ele><time>2016-12-24T07:14:30Z</time></trkpt><trkpt lat="51.7299508397" lon="39.3313820846"><ele>103.96</ele><time>2016-12-24T07:14:48Z</time></trkpt><trkpt lat="51.7297400348" lon="39.3326174095"><ele>104.44</ele><time>2016-12-24T07:15:02Z</time></trkpt><trkpt lat="51.7298400309" lon="39.3343404774"><ele>104.92</ele><time>2016-12-24T07:15:21Z</time></trkpt><trkpt lat="51.7296961136" lon="39.3358536623"><ele>103.00</ele><time>2016-12-24T07:15:37Z</time></trkpt><trkpt lat="51.7292193510" lon="39.3371365126"><ele>103.00</ele><time>2016-12-24T07:15:54Z</time></trkpt><trkpt lat="51.7291080393" lon="39.3375206552"><ele>103.00</ele><time>2016-12-24T07:15:59Z</time></trkpt><trkpt lat="51.7290948797" lon="39.3376011215"><ele>102.52</ele><time>2016-12-24T07:16:00Z</time></trkpt><trkpt lat="51.7290854082" lon="39.3376847729"><ele>102.52</ele><time>2016-12-24T07:16:01Z</time></trkpt><trkpt lat="51.7290801276" lon="39.3377719447"><ele>102.52</ele><time>2016-12-24T07:16:02Z</time></trkpt><trkpt lat="51.7290775292" lon="39.3378619663"><ele>102.04</ele><time>2016-12-24T07:16:03Z</time></trkpt><trkpt lat="51.7291567381" lon="39.3395169731"><ele>102.52</ele><time>2016-12-24T07:16:22Z</time></trkpt><trkpt lat="51.7292597517" lon="39.3412888236"><ele>103.96</ele><time>2016-12-24T07:16:43Z</time></trkpt><trkpt lat="51.7293636035" lon="39.3430102989"><ele>109.25</ele><time>2016-12-24T07:17:04Z</time></trkpt><trkpt lat="51.7294860631" lon="39.3444050476"><ele>107.81</ele><time>2016-12-24T07:17:21Z</time></trkpt><trkpt lat="51.7296189163" lon="39.3458791729"><ele>108.77</ele><time>2016-12-24T07:17:39Z</time></trkpt><trkpt lat="51.7296289746" lon="39.3460450508"><ele>108.77</ele><time>2016-12-24T07:17:41Z</time></trkpt><trkpt lat="51.7297257856" lon="39.3473054375"><ele>108.77</ele><time>2016-12-24T07:17:56Z</time></trkpt><trkpt lat="51.7298377678" lon="39.3482256029"><ele>110.21</ele><time>2016-12-24T07:18:07Z</time></trkpt><trkpt lat="51.7298604827" lon="39.3482989445"><ele>110.21</ele><time>2016-12-24T07:18:08Z</time></trkpt><trkpt lat="51.7304464616" lon="39.3494151626"><ele>110.21</ele><time>2016-12-24T07:18:25Z</time></trkpt><trkpt lat="51.7312063649" lon="39.3500242755"><ele>110.21</ele><time>2016-12-24T07:18:41Z</time></trkpt><trkpt lat="51.7319412902" lon="39.3501925003"><ele>108.77</ele><time>2016-12-24T07:18:55Z</time></trkpt><trkpt lat="51.7319905758" lon="39.3502159696"><ele>108.77</ele><time>2016-12-24T07:18:56Z</time></trkpt><trkpt lat="51.7320364248" lon="39.3502502516"><ele>108.77</ele><time>2016-12-24T07:18:57Z</time></trkpt><trkpt lat="51.7320778314" lon="39.3503059912"><ele>108.77</ele><time>2016-12-24T07:18:58Z</time></trkpt><trkpt lat="51.7321122810" lon="39.3503688555"><ele>108.77</ele><time>2016-12-24T07:18:59Z</time></trkpt><trkpt lat="51.7321362533" lon="39.3504220806"><ele>108.77</ele><time>2016-12-24T07:19:00Z</time></trkpt><trkpt lat="51.7321628239" lon="39.3504908122"><ele>108.77</ele><time>2016-12-24T07:19:01Z</time></trkpt><trkpt lat="51.7321868800" lon="39.3505639862"><ele>108.77</ele><time>2016-12-24T07:19:02Z</time></trkpt><trkpt lat="51.7322069127" lon="39.3506382499"><ele>108.77</ele><time>2016-12-24T07:19:03Z</time></trkpt><trkpt lat="51.7322230898" lon="39.3507167883"><ele>108.77</ele><time>2016-12-24T07:19:04Z</time></trkpt><trkpt lat="51.7324915621" lon="39.3523339089"><ele>108.77</ele><time>2016-12-24T07:19:24Z</time></trkpt><trkpt lat="51.7327743676" lon="39.3541253731"><ele>110.21</ele><time>2016-12-24T07:19:46Z</time></trkpt><trkpt lat="51.7330044508" lon="39.3556782044"><ele>109.73</ele><time>2016-12-24T07:20:05Z</time></trkpt><trkpt lat="51.7332357913" lon="39.3574883603"><ele>110.69</ele><time>2016-12-24T07:20:27Z</time></trkpt><trkpt lat="51.7334487755" lon="39.3586752377"><ele>110.69</ele><time>2016-12-24T07:20:42Z</time></trkpt><trkpt lat="51.7335231230" lon="39.3588699494"><ele>110.21</ele><time>2016-12-24T07:20:45Z</time></trkpt><trkpt lat="51.7335536331" lon="39.3589206599"><ele>110.21</ele><time>2016-12-24T07:20:46Z</time></trkpt><trkpt lat="51.7335879151" lon="39.3589610606"><ele>109.73</ele><time>2016-12-24T07:20:47Z</time></trkpt><trkpt lat="51.7336157430" lon="39.3589886371"><ele>109.73</ele><time>2016-12-24T07:20:48Z</time></trkpt><trkpt lat="51.7336378712" lon="39.3590095919"><ele>109.73</ele><time>2016-12-24T07:20:49Z</time></trkpt><trkpt lat="51.7336596642" lon="39.3590283673"><ele>109.25</ele><time>2016-12-24T07:20:50Z</time></trkpt><trkpt lat="51.7336870730" lon="39.3590374198"><ele>109.25</ele><time>2016-12-24T07:20:51Z</time></trkpt><trkpt lat="51.7337208521" lon="39.3590335641"><ele>108.77</ele><time>2016-12-24T07:20:52Z</time></trkpt><trkpt lat="51.7337527033" lon="39.3590199854"><ele>108.77</ele><time>2016-12-24T07:20:53Z</time></trkpt><trkpt lat="51.7337870691" lon="39.3589928281"><ele>108.77</ele><time>2016-12-24T07:20:54Z</time></trkpt><trkpt lat="51.7338224407" lon="39.3589637429"><ele>108.29</ele><time>2016-12-24T07:20:55Z</time></trkpt><trkpt lat="51.7338591535" lon="39.3589334842"><ele>108.29</ele><time>2016-12-24T07:20:56Z</time></trkpt><trkpt lat="51.7338962853" lon="39.3588983640"><ele>107.81</ele><time>2016-12-24T07:20:57Z</time></trkpt><trkpt lat="51.7347273510" lon="39.3580528814"><ele>105.88</ele><time>2016-12-24T07:21:18Z</time></trkpt><trkpt lat="51.7353989091" lon="39.3575050402"><ele>105.88</ele><time>2016-12-24T07:21:34Z</time></trkpt><trkpt lat="51.7361136340" lon="39.3569157925"><ele>104.44</ele><time>2016-12-24T07:21:51Z</time></trkpt><trkpt lat="51.7369037122" lon="39.3562676199"><ele>104.92</ele><time>2016-12-24T07:22:10Z</time></trkpt><trkpt lat="51.7376832291" lon="39.3556063715"><ele>104.92</ele><time>2016-12-24T07:22:29Z</time></trkpt><trkpt lat="51.7383414600" lon="39.3551011104"><ele>103.96</ele><time>2016-12-24T07:22:45Z</time></trkpt><trkpt lat="51.7383851297" lon="39.3550923094"><ele>103.96</ele><time>2016-12-24T07:22:46Z</time></trkpt><trkpt lat="51.7384272907" lon="39.3550964165"><ele>103.96</ele><time>2016-12-24T07:22:47Z</time></trkpt><trkpt lat="51.7384660151" lon="39.3551154435"><ele>103.96</ele><time>2016-12-24T07:22:48Z</time></trkpt><trkpt lat="51.7385016382" lon="39.3551545031"><ele>103.96</ele><time>2016-12-24T07:22:49Z</time></trkpt><trkpt lat="51.7385272868" lon="39.3551975023"><ele>104.44</ele><time>2016-12-24T07:22:50Z</time></trkpt><trkpt lat="51.7385518458" lon="39.3552578520"><ele>104.44</ele><time>2016-12-24T07:22:51Z</time></trkpt><trkpt lat="51.7385722976" lon="39.3553245720"><ele>104.44</ele><time>2016-12-24T07:22:52Z</time></trkpt><trkpt lat="51.7385917436" lon="39.3553865142"><ele>104.44</ele><time>2016-12-24T07:22:53Z</time></trkpt><trkpt lat="51.7390077375" lon="39.3568781577"><ele>104.92</ele><time>2016-12-24T07:23:15Z</time></trkpt><trkpt lat="51.7393429298" lon="39.3580886722"><ele>106.84</ele><time>2016-12-24T07:23:33Z</time></trkpt><trkpt lat="51.7397725023" lon="39.3596565910"><ele>107.81</ele><time>2016-12-24T07:23:56Z</time></trkpt><trkpt lat="51.7401558906" lon="39.3610067479"><ele>110.21</ele><time>2016-12-24T07:24:16Z</time></trkpt><trkpt lat="51.7404670268" lon="39.3620812241"><ele>110.21</ele><time>2016-12-24T07:24:32Z</time></trkpt><trkpt lat="51.7408188153" lon="39.3633608054"><ele>112.13</ele><time>2016-12-24T07:24:51Z</time></trkpt><trkpt lat="51.7412283551" lon="39.3647805322"><ele>112.13</ele><time>2016-12-24T07:25:12Z</time></trkpt><trkpt lat="51.7414912954" lon="39.3659540825"><ele>112.61</ele><time>2016-12-24T07:25:28Z</time></trkpt><trkpt lat="51.7415059637" lon="39.3660266697"><ele>113.09</ele><time>2016-12-24T07:25:29Z</time></trkpt><trkpt lat="51.7416964006" lon="39.3668027502"><ele>112.61</ele><time>2016-12-24T07:25:43Z</time></trkpt><trkpt lat="51.7417781241" lon="39.3667844776"><ele>112.13</ele><time>2016-12-24T07:25:47Z</time></trkpt><trkpt lat="51.7422141507" lon="39.3667266425"><ele>109.73</ele><time>2016-12-24T07:25:59Z</time></trkpt><trkpt lat="51.7422844749" lon="39.3666471820"><ele>110.69</ele><time>2016-12-24T07:26:11Z</time></trkpt><trkpt lat="51.7423019931" lon="39.3666200247"><ele>110.69</ele><time>2016-12-24T07:26:14Z</time></trkpt><trkpt lat="51.7423086986" lon="39.3665722478"><ele>111.17</ele><time>2016-12-24T07:26:28Z</time></trkpt><trkpt lat="51.7423592415" lon="39.3666621856"><ele>111.17</ele><time>2016-12-24T07:26:42Z</time></trkpt><trkpt lat="51.7423664499" lon="39.3666035961"><ele>111.17</ele><time>2016-12-24T07:26:47Z</time></trkpt><trkpt lat="51.7424547952" lon="39.3664993253"><ele>111.65</ele><time>2016-12-24T07:26:58Z</time></trkpt><trkpt lat="51.7424607463" lon="39.3664420769"><ele>111.17</ele><time>2016-12-24T07:27:04Z</time></trkpt><trkpt lat="51.7424775939" lon="39.3664840702"><ele>111.17</ele><time>2016-12-24T07:27:07Z</time></trkpt><trkpt lat="51.7426290549" lon="39.3664169312"><ele>112.13</ele><time>2016-12-24T07:27:22Z</time></trkpt><trkpt lat="51.7427537777" lon="39.3663726747"><ele>114.53</ele><time>2016-12-24T07:27:39Z</time></trkpt><trkpt lat="51.7428470682" lon="39.3663045298"><ele>116.46</ele><time>2016-12-24T07:27:54Z</time></trkpt><trkpt lat="51.7429239303" lon="39.3662677333"><ele>117.42</ele><time>2016-12-24T07:28:10Z</time></trkpt><trkpt lat="51.7429530993" lon="39.3662773725"><ele>116.94</ele><time>2016-12-24T07:28:38Z</time></trkpt><trkpt lat="51.7429848667" lon="39.3663286697"><ele>116.94</ele><time>2016-12-24T07:28:41Z</time></trkpt><trkpt lat="51.7432134412" lon="39.3671033252"><ele>116.94</ele><time>2016-12-24T07:28:57Z</time></trkpt><trkpt lat="51.7435286846" lon="39.3682216387"><ele>115.50</ele><time>2016-12-24T07:29:14Z</time></trkpt><trkpt lat="51.7439792119" lon="39.3697219994"><ele>114.05</ele><time>2016-12-24T07:29:35Z</time></trkpt><trkpt lat="51.7443812080" lon="39.3710633554"><ele>114.53</ele><time>2016-12-24T07:29:53Z</time></trkpt><trkpt lat="51.7448645923" lon="39.3726815656"><ele>115.50</ele><time>2016-12-24T07:30:15Z</time></trkpt><trkpt lat="51.7453150358" lon="39.3740965985"><ele>115.01</ele><time>2016-12-24T07:30:35Z</time></trkpt><trkpt lat="51.7453485634" lon="39.3741473090"><ele>115.01</ele><time>2016-12-24T07:30:36Z</time></trkpt><trkpt lat="51.7453899700" lon="39.3741768133"><ele>115.01</ele><time>2016-12-24T07:30:37Z</time></trkpt><trkpt lat="51.7454242520" lon="39.3741885480"><ele>115.01</ele><time>2016-12-24T07:30:38Z</time></trkpt><trkpt lat="51.7454629764" lon="39.3741934095"><ele>115.50</ele><time>2016-12-24T07:30:39Z</time></trkpt><trkpt lat="51.7455026228" lon="39.3741978519"><ele>115.50</ele><time>2016-12-24T07:30:40Z</time></trkpt><trkpt lat="51.7460504640" lon="39.3742366601"><ele>120.30</ele><time>2016-12-24T07:30:54Z</time></trkpt><trkpt lat="51.7465497740" lon="39.3742566090"><ele>122.71</ele><time>2016-12-24T07:31:08Z</time></trkpt><trkpt lat="51.7471054103" lon="39.3742898013"><ele>124.15</ele><time>2016-12-24T07:31:23Z</time></trkpt><trkpt lat="51.7475958355" lon="39.3743060622"><ele>122.71</ele><time>2016-12-24T07:31:34Z</time></trkpt><trkpt lat="51.7480875179" lon="39.3743405119"><ele>123.67</ele><time>2016-12-24T07:31:45Z</time></trkpt><trkpt lat="51.7487279791" lon="39.3743513245"><ele>124.63</ele><time>2016-12-24T07:31:58Z</time></trkpt><trkpt lat="51.7495028023" lon="39.3743887916"><ele>124.15</ele><time>2016-12-24T07:32:14Z</time></trkpt><trkpt lat="51.7503901944" lon="39.3744141888"><ele>126.07</ele><time>2016-12-24T07:32:33Z</time></trkpt><trkpt lat="51.7509826273" lon="39.3744445313"><ele>127.03</ele><time>2016-12-24T07:32:46Z</time></trkpt><trkpt lat="51.7516876291" lon="39.3744699284"><ele>129.43</ele><time>2016-12-24T07:33:02Z</time></trkpt><trkpt lat="51.7522458639" lon="39.3744852673"><ele>130.40</ele><time>2016-12-24T07:33:16Z</time></trkpt><trkpt lat="51.7530492693" lon="39.3745213095"><ele>128.95</ele><time>2016-12-24T07:33:34Z</time></trkpt><trkpt lat="51.7537961807" lon="39.3745509814"><ele>130.88</ele><time>2016-12-24T07:33:50Z</time></trkpt><trkpt lat="51.7545002606" lon="39.3745771330"><ele>131.84</ele><time>2016-12-24T07:34:05Z</time></trkpt><trkpt lat="51.7550530471" lon="39.3745907117"><ele>132.32</ele><time>2016-12-24T07:34:17Z</time></trkpt><trkpt lat="51.7557872180" lon="39.3746279273"><ele>133.76</ele><time>2016-12-24T07:34:33Z</time></trkpt><trkpt lat="51.7565074749" lon="39.3746432662"><ele>135.68</ele><time>2016-12-24T07:34:49Z</time></trkpt><trkpt lat="51.7571007460" lon="39.3746505585"><ele>137.61</ele><time>2016-12-24T07:35:03Z</time></trkpt><trkpt lat="51.7578075919" lon="39.3746829126"><ele>135.68</ele><time>2016-12-24T07:35:18Z</time></trkpt><trkpt lat="51.7586794775" lon="39.3747191224"><ele>135.68</ele><time>2016-12-24T07:35:36Z</time></trkpt><trkpt lat="51.7594226170" lon="39.3747458607"><ele>135.68</ele><time>2016-12-24T07:35:52Z</time></trkpt><trkpt lat="51.7600480746" lon="39.3747847527"><ele>137.13</ele><time>2016-12-24T07:36:06Z</time></trkpt><trkpt lat="51.7607387435" lon="39.3748075515"><ele>137.61</ele><time>2016-12-24T07:36:21Z</time></trkpt><trkpt lat="51.7613192741" lon="39.3748537358"><ele>138.57</ele><time>2016-12-24T07:36:34Z</time></trkpt><trkpt lat="51.7615054362" lon="39.3748553284"><ele>138.57</ele><time>2016-12-24T07:36:38Z</time></trkpt><trkpt lat="51.7620771658" lon="39.3748712540"><ele>137.13</ele><time>2016-12-24T07:36:50Z</time></trkpt><trkpt lat="51.7627577763" lon="39.3748792168"><ele>135.68</ele><time>2016-12-24T07:37:05Z</time></trkpt><trkpt lat="51.7631704174" lon="39.3749093078"><ele>136.64</ele><time>2016-12-24T07:37:14Z</time></trkpt><trkpt lat="51.7632177752" lon="39.3749084696"><ele>136.64</ele><time>2016-12-24T07:37:15Z</time></trkpt><trkpt lat="51.7632642109" lon="39.3749085534"><ele>136.16</ele><time>2016-12-24T07:37:16Z</time></trkpt><trkpt lat="51.7639599089" lon="39.3749700766"><ele>133.76</ele><time>2016-12-24T07:37:31Z</time></trkpt><trkpt lat="51.7644591350" lon="39.3749670591"><ele>132.80</ele><time>2016-12-24T07:37:43Z</time></trkpt><trkpt lat="51.7645031400" lon="39.3749703281"><ele>132.80</ele><time>2016-12-24T07:37:44Z</time></trkpt><trkpt lat="51.7651778832" lon="39.3749856669"><ele>131.36</ele><time>2016-12-24T07:37:59Z</time></trkpt><trkpt lat="51.7657804582" lon="39.3749937136"><ele>132.32</ele><time>2016-12-24T07:38:13Z</time></trkpt><trkpt lat="51.7664840352" lon="39.3750259001"><ele>131.36</ele><time>2016-12-24T07:38:29Z</time></trkpt><trkpt lat="51.7671035416" lon="39.3750545662"><ele>132.80</ele><time>2016-12-24T07:38:44Z</time></trkpt><trkpt lat="51.7679071985" lon="39.3750857469"><ele>129.92</ele><time>2016-12-24T07:39:02Z</time></trkpt><trkpt lat="51.7685206700" lon="39.3751078751"><ele>128.47</ele><time>2016-12-24T07:39:16Z</time></trkpt><trkpt lat="51.7685685307" lon="39.3751094677"><ele>128.47</ele><time>2016-12-24T07:39:17Z</time></trkpt><trkpt lat="51.7686165590" lon="39.3751107249"><ele>128.47</ele><time>2016-12-24T07:39:18Z</time></trkpt><trkpt lat="51.7693566810" lon="39.3751650397"><ele>126.07</ele><time>2016-12-24T07:39:35Z</time></trkpt><trkpt lat="51.7699698173" lon="39.3752179295"><ele>127.03</ele><time>2016-12-24T07:39:50Z</time></trkpt><trkpt lat="51.7704204284" lon="39.3751848210"><ele>127.03</ele><time>2016-12-24T07:40:02Z</time></trkpt><trkpt lat="51.7710549384" lon="39.3752354477"><ele>126.55</ele><time>2016-12-24T07:40:17Z</time></trkpt><trkpt lat="51.7714014463" lon="39.3752462603"><ele>126.07</ele><time>2016-12-24T07:40:26Z</time></trkpt><trkpt lat="51.7714467924" lon="39.3752410635"><ele>126.07</ele><time>2016-12-24T07:40:27Z</time></trkpt><trkpt lat="51.7719797976" lon="39.3752703164"><ele>126.55</ele><time>2016-12-24T07:40:41Z</time></trkpt><trkpt lat="51.7724853102" lon="39.3752866611"><ele>125.59</ele><time>2016-12-24T07:40:53Z</time></trkpt><trkpt lat="51.7732807528" lon="39.3752923608"><ele>124.15</ele><time>2016-12-24T07:41:11Z</time></trkpt><trkpt lat="51.7739339545" lon="39.3753347732"><ele>123.67</ele><time>2016-12-24T07:41:26Z</time></trkpt><trkpt lat="51.7745870724" lon="39.3753760960"><ele>121.26</ele><time>2016-12-24T07:41:42Z</time></trkpt><trkpt lat="51.7749208398" lon="39.3753829692"><ele>118.86</ele><time>2016-12-24T07:41:50Z</time></trkpt><trkpt lat="51.7754904740" lon="39.3754357751"><ele>115.98</ele><time>2016-12-24T07:42:04Z</time></trkpt><trkpt lat="51.7759617046" lon="39.3754304945"><ele>115.50</ele><time>2016-12-24T07:42:17Z</time></trkpt><trkpt lat="51.7764131539" lon="39.3754781876"><ele>113.57</ele><time>2016-12-24T07:42:30Z</time></trkpt><trkpt lat="51.7771512643" lon="39.3755360227"><ele>112.13</ele><time>2016-12-24T07:42:47Z</time></trkpt><trkpt lat="51.7775038909" lon="39.3755517807"><ele>112.13</ele><time>2016-12-24T07:42:59Z</time></trkpt><trkpt lat="51.7778942361" lon="39.3756374437"><ele>112.13</ele><time>2016-12-24T07:43:13Z</time></trkpt><trkpt lat="51.7782114074" lon="39.3756951950"><ele>112.13</ele><time>2016-12-24T07:43:24Z</time></trkpt><trkpt lat="51.7787263915" lon="39.3756534532"><ele>111.65</ele><time>2016-12-24T07:43:39Z</time></trkpt><trkpt lat="51.7790801916" lon="39.3755202647"><ele>112.13</ele><time>2016-12-24T07:43:52Z</time></trkpt><trkpt lat="51.7795540206" lon="39.3755418062"><ele>112.61</ele><time>2016-12-24T07:44:07Z</time></trkpt><trkpt lat="51.7801545002" lon="39.3755644374"><ele>113.57</ele><time>2016-12-24T07:44:24Z</time></trkpt><trkpt lat="51.7807098851" lon="39.3755646050"><ele>113.09</ele><time>2016-12-24T07:44:40Z</time></trkpt><trkpt lat="51.7811527010" lon="39.3758182414"><ele>114.05</ele><time>2016-12-24T07:44:55Z</time></trkpt><trkpt lat="51.7814049963" lon="39.3761152122"><ele>113.57</ele><time>2016-12-24T07:45:08Z</time></trkpt><trkpt lat="51.7817242630" lon="39.3765063118"><ele>114.05</ele><time>2016-12-24T07:45:23Z</time></trkpt><trkpt lat="51.7817631550" lon="39.3765759654"><ele>114.05</ele><time>2016-12-24T07:45:30Z</time></trkpt><trkpt lat="51.7817748897" lon="39.3765902147"><ele>114.05</ele><time>2016-12-24T07:45:31Z</time></trkpt><trkpt lat="51.7817899771" lon="39.3766096607"><ele>114.05</ele><time>2016-12-24T07:45:32Z</time></trkpt><trkpt lat="51.7821519915" lon="39.3769908696"><ele>114.53</ele><time>2016-12-24T07:45:46Z</time></trkpt><trkpt lat="51.7824829929" lon="39.3773824722"><ele>114.53</ele><time>2016-12-24T07:46:00Z</time></trkpt><trkpt lat="51.7827404849" lon="39.3777591549"><ele>115.01</ele><time>2016-12-24T07:46:12Z</time></trkpt><trkpt lat="51.7829426564" lon="39.3782409467"><ele>115.01</ele><time>2016-12-24T07:46:28Z</time></trkpt><trkpt lat="51.7831931915" lon="39.3784965109"><ele>115.01</ele><time>2016-12-24T07:46:40Z</time></trkpt><trkpt lat="51.7837073375" lon="39.3791896105"><ele>114.05</ele><time>2016-12-24T07:46:57Z</time></trkpt><trkpt lat="51.7842927296" lon="39.3801873922"><ele>114.53</ele><time>2016-12-24T07:47:17Z</time></trkpt><trkpt lat="51.7851525452" lon="39.3811985850"><ele>114.53</ele><time>2016-12-24T07:47:40Z</time></trkpt><trkpt lat="51.7859840300" lon="39.3820946105"><ele>114.53</ele><time>2016-12-24T07:48:02Z</time></trkpt><trkpt lat="51.7865356430" lon="39.3825730495"><ele>114.05</ele><time>2016-12-24T07:48:19Z</time></trkpt><trkpt lat="51.7866875231" lon="39.3827023823"><ele>114.05</ele><time>2016-12-24T07:48:28Z</time></trkpt><trkpt lat="51.7868089769" lon="39.3832106609"><ele>113.09</ele><time>2016-12-24T07:48:39Z</time></trkpt><trkpt lat="51.7867814004" lon="39.3840164132"><ele>113.57</ele><time>2016-12-24T07:48:54Z</time></trkpt><trkpt lat="51.7866507266" lon="39.3846915755"><ele>113.57</ele><time>2016-12-24T07:49:07Z</time></trkpt><trkpt lat="51.7867327854" lon="39.3852823321"><ele>114.05</ele><time>2016-12-24T07:49:20Z</time></trkpt><trkpt lat="51.7867598590" lon="39.3854190409"><ele>113.57</ele><time>2016-12-24T07:49:27Z</time></trkpt><trkpt lat="51.7867641337" lon="39.3854678236"><ele>113.57</ele><time>2016-12-24T07:49:37Z</time></trkpt><trkpt lat="51.7867621221" lon="39.3854858447"><ele>114.05</ele><time>2016-12-24T07:49:38Z</time></trkpt><trkpt lat="51.7867477052" lon="39.3857292552"><ele>115.01</ele><time>2016-12-24T07:49:55Z</time></trkpt><trkpt lat="51.7867423408" lon="39.3858124036"><ele>115.01</ele><time>2016-12-24T07:50:01Z</time></trkpt><trkpt lat="51.7867406644" lon="39.3860040139"><ele>115.50</ele><time>2016-12-24T07:50:14Z</time></trkpt><trkpt lat="51.7867409158" lon="39.3862401322"><ele>116.46</ele><time>2016-12-24T07:50:32Z</time></trkpt><trkpt lat="51.7867465317" lon="39.3864421360"><ele>116.46</ele><time>2016-12-24T07:50:48Z</time></trkpt><trkpt lat="51.7867531534" lon="39.3866982032"><ele>115.50</ele><time>2016-12-24T07:51:05Z</time></trkpt><trkpt lat="51.7867440172" lon="39.3869870435"><ele>114.53</ele><time>2016-12-24T07:51:23Z</time></trkpt><trkpt lat="51.7867325339" lon="39.3872738723"><ele>114.53</ele><time>2016-12-24T07:51:42Z</time></trkpt><trkpt lat="51.7867257446" lon="39.3875138462"><ele>114.53</ele><time>2016-12-24T07:51:58Z</time></trkpt><trkpt lat="51.7867720127" lon="39.3876716774"><ele>114.53</ele><time>2016-12-24T07:52:14Z</time></trkpt><trkpt lat="51.7867820710" lon="39.3876855075"><ele>115.01</ele><time>2016-12-24T07:52:41Z</time></trkpt><trkpt lat="51.7867947277" lon="39.3876854237"><ele>115.01</ele><time>2016-12-24T07:52:42Z</time></trkpt><trkpt lat="51.7868122458" lon="39.3876860105"><ele>115.01</ele><time>2016-12-24T07:52:43Z</time></trkpt><trkpt lat="51.7872627731" lon="39.3876824901"><ele>114.53</ele><time>2016-12-24T07:52:59Z</time></trkpt><trkpt lat="51.7878051661" lon="39.3876788020"><ele>113.09</ele><time>2016-12-24T07:53:16Z</time></trkpt><trkpt lat="51.7884506565" lon="39.3876655586"><ele>112.13</ele><time>2016-12-24T07:53:36Z</time></trkpt><trkpt lat="51.7890959792" lon="39.3876679055"><ele>111.65</ele><time>2016-12-24T07:53:56Z</time></trkpt><trkpt lat="51.7899165675" lon="39.3876627088"><ele>109.73</ele><time>2016-12-24T07:54:19Z</time></trkpt><trkpt lat="51.7906482238" lon="39.3876457773"><ele>109.25</ele><time>2016-12-24T07:54:39Z</time></trkpt><trkpt lat="51.7909639701" lon="39.3877880182"><ele>109.25</ele><time>2016-12-24T07:54:51Z</time></trkpt><trkpt lat="51.7909788899" lon="39.3879192788"><ele>109.25</ele><time>2016-12-24T07:54:55Z</time></trkpt><trkpt lat="51.7911304347" lon="39.3880419061"><ele>108.29</ele><time>2016-12-24T07:55:04Z</time></trkpt><trkpt lat="51.7915705685" lon="39.3880188558"><ele>109.25</ele><time>2016-12-24T07:55:18Z</time></trkpt><trkpt lat="51.7919546273" lon="39.3881402258"><ele>109.73</ele><time>2016-12-24T07:55:29Z</time></trkpt><trkpt lat="51.7923921626" lon="39.3885365222"><ele>112.61</ele><time>2016-12-24T07:55:43Z</time></trkpt><trkpt lat="51.7928381637" lon="39.3889035657"><ele>115.01</ele><time>2016-12-24T07:55:56Z</time></trkpt><trkpt lat="51.7934005894" lon="39.3894380797"><ele>113.57</ele><time>2016-12-24T07:56:13Z</time></trkpt><trkpt lat="51.7939393781" lon="39.3898580968"><ele>114.05</ele><time>2016-12-24T07:56:30Z</time></trkpt><trkpt lat="51.7943281308" lon="39.3901885953"><ele>116.46</ele><time>2016-12-24T07:56:44Z</time></trkpt><trkpt lat="51.7948473059" lon="39.3906557187"><ele>115.98</ele><time>2016-12-24T07:57:01Z</time></trkpt><trkpt lat="51.7951667402" lon="39.3908456527"><ele>115.98</ele><time>2016-12-24T07:57:13Z</time></trkpt><trkpt lat="51.7954780441" lon="39.3909879774"><ele>115.01</ele><time>2016-12-24T07:57:25Z</time></trkpt><trkpt lat="51.7958684731" lon="39.3913318031"><ele>114.05</ele><time>2016-12-24T07:57:39Z</time></trkpt><trkpt lat="51.7961203493" lon="39.3915018719"><ele>116.46</ele><time>2016-12-24T07:57:51Z</time></trkpt><trkpt lat="51.7961519491" lon="39.3917161971"><ele>115.98</ele><time>2016-12-24T07:58:06Z</time></trkpt><trkpt lat="51.7961697187" lon="39.3920628726"><ele>115.98</ele><time>2016-12-24T07:58:18Z</time></trkpt><trkpt lat="51.7961581517" lon="39.3926943652"><ele>117.90</ele><time>2016-12-24T07:58:30Z</time></trkpt><trkpt lat="51.7961587384" lon="39.3933989480"><ele>116.46</ele><time>2016-12-24T07:58:43Z</time></trkpt><trkpt lat="51.7961445730" lon="39.3941606954"><ele>114.53</ele><time>2016-12-24T07:58:56Z</time></trkpt><trkpt lat="51.7961375322" lon="39.3950121291"><ele>115.98</ele><time>2016-12-24T07:59:11Z</time></trkpt><trkpt lat="51.7961268034" lon="39.3959517404"><ele>118.38</ele><time>2016-12-24T07:59:28Z</time></trkpt><trkpt lat="51.7961161584" lon="39.3964227196"><ele>118.86</ele><time>2016-12-24T07:59:39Z</time></trkpt><trkpt lat="51.7961163260" lon="39.3972338364"><ele>116.46</ele><time>2016-12-24T07:59:52Z</time></trkpt><trkpt lat="51.7960979696" lon="39.3981124274"><ele>115.98</ele><time>2016-12-24T08:00:06Z</time></trkpt><trkpt lat="51.7961258814" lon="39.3991485145"><ele>116.46</ele><time>2016-12-24T08:00:23Z</time></trkpt><trkpt lat="51.7961020768" lon="39.3993901648"><ele>116.94</ele><time>2016-12-24T08:00:34Z</time></trkpt><trkpt lat="51.7960833851" lon="39.3996730540"><ele>119.34</ele><time>2016-12-24T08:00:48Z</time></trkpt><trkpt lat="51.7960862350" lon="39.4003207237"><ele>118.86</ele><time>2016-12-24T08:01:00Z</time></trkpt><trkpt lat="51.7960884143" lon="39.4011874963"><ele>116.94</ele><time>2016-12-24T08:01:14Z</time></trkpt><trkpt lat="51.7960952874" lon="39.4019591343"><ele>115.50</ele><time>2016-12-24T08:01:27Z</time></trkpt><trkpt lat="51.7961365264" lon="39.4027555827"><ele>116.46</ele><time>2016-12-24T08:01:42Z</time></trkpt><trkpt lat="51.7961610015" lon="39.4028231408"><ele>115.50</ele><time>2016-12-24T08:01:54Z</time></trkpt><trkpt lat="51.7960983049" lon="39.4028895255"><ele>115.98</ele><time>2016-12-24T08:02:04Z</time></trkpt><trkpt lat="51.7960964609" lon="39.4029426668"><ele>116.46</ele><time>2016-12-24T08:02:08Z</time></trkpt><trkpt lat="51.7960967962" lon="39.4029668905"><ele>115.98</ele><time>2016-12-24T08:02:09Z</time></trkpt><trkpt lat="51.7960844748" lon="39.4035873190"><ele>116.94</ele><time>2016-12-24T08:02:22Z</time></trkpt><trkpt lat="51.7960464209" lon="39.4044515770"><ele>116.94</ele><time>2016-12-24T08:02:37Z</time></trkpt><trkpt lat="51.7960033379" lon="39.4053544756"><ele>117.90</ele><time>2016-12-24T08:02:53Z</time></trkpt><trkpt lat="51.7959606741" lon="39.4062813465"><ele>117.90</ele><time>2016-12-24T08:03:08Z</time></trkpt><trkpt lat="51.7959986441" lon="39.4069420081"><ele>116.94</ele><time>2016-12-24T08:03:20Z</time></trkpt><trkpt lat="51.7959380429" lon="39.4077496044"><ele>115.50</ele><time>2016-12-24T08:03:33Z</time></trkpt><trkpt lat="51.7959363665" lon="39.4078216050"><ele>115.50</ele><time>2016-12-24T08:03:34Z</time></trkpt><trkpt lat="51.7959394678" lon="39.4078893308"><ele>115.01</ele><time>2016-12-24T08:03:35Z</time></trkpt><trkpt lat="51.7959453352" lon="39.4079492614"><ele>115.01</ele><time>2016-12-24T08:03:36Z</time></trkpt><trkpt lat="51.7960146535" lon="39.4085777365"><ele>116.94</ele><time>2016-12-24T08:03:49Z</time></trkpt><trkpt lat="51.7960212752" lon="39.4087770581"><ele>116.94</ele><time>2016-12-24T08:03:55Z</time></trkpt><trkpt lat="51.7961340956" lon="39.4088788144"><ele>117.42</ele><time>2016-12-24T08:04:00Z</time></trkpt><trkpt lat="51.7966750637" lon="39.4090264197"><ele>118.86</ele><time>2016-12-24T08:04:13Z</time></trkpt><trkpt lat="51.7973364796" lon="39.4092039485"><ele>117.42</ele><time>2016-12-24T08:04:26Z</time></trkpt><trkpt lat="51.7980118096" lon="39.4093869254"><ele>116.46</ele><time>2016-12-24T08:04:38Z</time></trkpt><trkpt lat="51.7987002991" lon="39.4095765240"><ele>116.94</ele><time>2016-12-24T08:04:51Z</time></trkpt><trkpt lat="51.7993363179" lon="39.4097465929"><ele>119.82</ele><time>2016-12-24T08:05:04Z</time></trkpt><trkpt lat="51.7994272616" lon="39.4097648654"><ele>120.30</ele><time>2016-12-24T08:05:06Z</time></trkpt><trkpt lat="51.7994748708" lon="39.4097771030"><ele>120.78</ele><time>2016-12-24T08:05:07Z</time></trkpt><trkpt lat="51.8001972232" lon="39.4099726528"><ele>120.78</ele><time>2016-12-24T08:05:22Z</time></trkpt><trkpt lat="51.8003936112" lon="39.4100271352"><ele>120.78</ele><time>2016-12-24T08:05:26Z</time></trkpt><trkpt lat="51.8004391249" lon="39.4100408815"><ele>120.78</ele><time>2016-12-24T08:05:27Z</time></trkpt><trkpt lat="51.8012455478" lon="39.4102632534"><ele>121.74</ele><time>2016-12-24T08:05:44Z</time></trkpt><trkpt lat="51.8019736838" lon="39.4104477391"><ele>116.46</ele><time>2016-12-24T08:05:57Z</time></trkpt><trkpt lat="51.8028682843" lon="39.4106904790"><ele>114.05</ele><time>2016-12-24T08:06:12Z</time></trkpt><trkpt lat="51.8033981882" lon="39.4108279422"><ele>117.90</ele><time>2016-12-24T08:06:24Z</time></trkpt><trkpt lat="51.8038578518" lon="39.4109357335"><ele>116.46</ele><time>2016-12-24T08:06:35Z</time></trkpt><trkpt lat="51.8045696430" lon="39.4111384917"><ele>113.57</ele><time>2016-12-24T08:06:48Z</time></trkpt><trkpt lat="51.8052825239" lon="39.4113451894"><ele>111.65</ele><time>2016-12-24T08:07:02Z</time></trkpt><trkpt lat="51.8058701791" lon="39.4116082136"><ele>113.57</ele><time>2016-12-24T08:07:17Z</time></trkpt><trkpt lat="51.8064875063" lon="39.4118294958"><ele>110.69</ele><time>2016-12-24T08:07:32Z</time></trkpt><trkpt lat="51.8072172347" lon="39.4121192582"><ele>107.81</ele><time>2016-12-24T08:07:49Z</time></trkpt><trkpt lat="51.8079568539" lon="39.4125386048"><ele>108.77</ele><time>2016-12-24T08:08:07Z</time></trkpt><trkpt lat="51.8086740933" lon="39.4126500841"><ele>107.81</ele><time>2016-12-24T08:08:23Z</time></trkpt><trkpt lat="51.8093764968" lon="39.4129341468"><ele>105.88</ele><time>2016-12-24T08:08:40Z</time></trkpt><trkpt lat="51.8095583841" lon="39.4131083228"><ele>105.40</ele><time>2016-12-24T08:08:45Z</time></trkpt><trkpt lat="51.8095874693" lon="39.4131561834"><ele>104.92</ele><time>2016-12-24T08:08:46Z</time></trkpt><trkpt lat="51.8096117768" lon="39.4132063910"><ele>104.92</ele><time>2016-12-24T08:08:47Z</time></trkpt><trkpt lat="51.8096321449" lon="39.4132576883"><ele>104.92</ele><time>2016-12-24T08:08:48Z</time></trkpt><trkpt lat="51.8096479028" lon="39.4133109134"><ele>104.92</ele><time>2016-12-24T08:08:49Z</time></trkpt><trkpt lat="51.8096620683" lon="39.4133648090"><ele>104.92</ele><time>2016-12-24T08:08:50Z</time></trkpt><trkpt lat="51.8097820971" lon="39.4140450004"><ele>106.36</ele><time>2016-12-24T08:09:03Z</time></trkpt><trkpt lat="51.8099270202" lon="39.4152471330"><ele>109.73</ele><time>2016-12-24T08:09:24Z</time></trkpt><trkpt lat="51.8101419322" lon="39.4159762748"><ele>111.65</ele><time>2016-12-24T08:09:39Z</time></trkpt><trkpt lat="51.8104955647" lon="39.4163872395"><ele>114.05</ele><time>2016-12-24T08:09:52Z</time></trkpt><trkpt lat="51.8107123207" lon="39.4166606572"><ele>115.01</ele><time>2016-12-24T08:10:05Z</time></trkpt><trkpt lat="51.8107002508" lon="39.4166228548"><ele>115.01</ele><time>2016-12-24T08:10:12Z</time></trkpt><trkpt lat="51.8106620293" lon="39.4165802747"><ele>115.50</ele><time>2016-12-24T08:10:28Z</time></trkpt><trkpt lat="51.8106413260" lon="39.4165551290"><ele>116.94</ele><time>2016-12-24T08:11:07Z</time></trkpt><trkpt lat="51.8106542341" lon="39.4165675342"><ele>114.53</ele><time>2016-12-24T08:11:33Z</time></trkpt><trkpt lat="51.8106481154" lon="39.4165487587"><ele>115.01</ele><time>2016-12-24T08:11:50Z</time></trkpt><trkpt lat="51.8103452772" lon="39.4162584096"><ele>113.57</ele><time>2016-12-24T08:12:05Z</time></trkpt><trkpt lat="51.8100469653" lon="39.4157995842"><ele>110.69</ele><time>2016-12-24T08:12:21Z</time></trkpt><trkpt lat="51.8099032994" lon="39.4152326323"><ele>110.21</ele><time>2016-12-24T08:12:35Z</time></trkpt><trkpt lat="51.8098026328" lon="39.4143319130"><ele>109.25</ele><time>2016-12-24T08:12:54Z</time></trkpt><trkpt lat="51.8098569475" lon="39.4139146619"><ele>108.77</ele><time>2016-12-24T08:13:07Z</time></trkpt><trkpt lat="51.8101156969" lon="39.4137471914"><ele>109.25</ele><time>2016-12-24T08:13:20Z</time></trkpt><trkpt lat="51.8106000870" lon="39.4135429244"><ele>109.73</ele><time>2016-12-24T08:13:35Z</time></trkpt><trkpt lat="51.8112476729" lon="39.4130871166"><ele>107.81</ele><time>2016-12-24T08:13:54Z</time></trkpt><trkpt lat="51.8113208469" lon="39.4130326342"><ele>107.81</ele><time>2016-12-24T08:13:56Z</time></trkpt><trkpt lat="51.8122043833" lon="39.4126290455"><ele>106.36</ele><time>2016-12-24T08:14:18Z</time></trkpt><trkpt lat="51.8124892842" lon="39.4125333242"><ele>105.88</ele><time>2016-12-24T08:14:25Z</time></trkpt><trkpt lat="51.8125296850" lon="39.4125143811"><ele>105.88</ele><time>2016-12-24T08:14:26Z</time></trkpt><trkpt lat="51.8126059603" lon="39.4124689512"><ele>105.88</ele><time>2016-12-24T08:14:28Z</time></trkpt><trkpt lat="51.8130858243" lon="39.4122634269"><ele>103.96</ele><time>2016-12-24T08:14:40Z</time></trkpt><trkpt lat="51.8137694523" lon="39.4119057711"><ele>104.92</ele><time>2016-12-24T08:14:55Z</time></trkpt><trkpt lat="51.8145115022" lon="39.4114575908"><ele>104.92</ele><time>2016-12-24T08:15:11Z</time></trkpt><trkpt lat="51.8153209426" lon="39.4109706860"><ele>104.92</ele><time>2016-12-24T08:15:29Z</time></trkpt><trkpt lat="51.8161380943" lon="39.4106953405"><ele>106.84</ele><time>2016-12-24T08:15:48Z</time></trkpt><trkpt lat="51.8167643901" lon="39.4107059017"><ele>111.65</ele><time>2016-12-24T08:16:03Z</time></trkpt><trkpt lat="51.8170715868" lon="39.4107481465"><ele>113.57</ele><time>2016-12-24T08:16:10Z</time></trkpt><trkpt lat="51.8171151727" lon="39.4107663352"><ele>113.57</ele><time>2016-12-24T08:16:11Z</time></trkpt><trkpt lat="51.8172491156" lon="39.4108372461"><ele>113.57</ele><time>2016-12-24T08:16:14Z</time></trkpt><trkpt lat="51.8173430767" lon="39.4109066483"><ele>113.57</ele><time>2016-12-24T08:16:16Z</time></trkpt><trkpt lat="51.8173854891" lon="39.4109404273"><ele>113.09</ele><time>2016-12-24T08:16:17Z</time></trkpt><trkpt lat="51.8179643434" lon="39.4112964906"><ele>114.53</ele><time>2016-12-24T08:16:31Z</time></trkpt><trkpt lat="51.8181866314" lon="39.4113851711"><ele>115.98</ele><time>2016-12-24T08:16:37Z</time></trkpt><trkpt lat="51.8183359969" lon="39.4113632943"><ele>115.01</ele><time>2016-12-24T08:16:40Z</time></trkpt><trkpt lat="51.8183929939" lon="39.4113441836"><ele>114.53</ele><time>2016-12-24T08:16:41Z</time></trkpt><trkpt lat="51.8184459675" lon="39.4113194570"><ele>114.53</ele><time>2016-12-24T08:16:42Z</time></trkpt><trkpt lat="51.8184986059" lon="39.4112881925"><ele>114.05</ele><time>2016-12-24T08:16:43Z</time></trkpt><trkpt lat="51.8185469694" lon="39.4112558383"><ele>114.05</ele><time>2016-12-24T08:16:44Z</time></trkpt><trkpt lat="51.8190696649" lon="39.4109439477"><ele>113.57</ele><time>2016-12-24T08:16:56Z</time></trkpt><trkpt lat="51.8196042627" lon="39.4105811790"><ele>112.61</ele><time>2016-12-24T08:17:09Z</time></trkpt><trkpt lat="51.8196426518" lon="39.4105461426"><ele>112.61</ele><time>2016-12-24T08:17:10Z</time></trkpt><trkpt lat="51.8201085180" lon="39.4102198351"><ele>111.65</ele><time>2016-12-24T08:17:23Z</time></trkpt><trkpt lat="51.8202134594" lon="39.4102242775"><ele>107.81</ele><time>2016-12-24T08:17:32Z</time></trkpt><trkpt lat="51.8202128727" lon="39.4102176558"><ele>102.52</ele><time>2016-12-24T08:18:02Z</time></trkpt><trkpt lat="51.8202121183" lon="39.4102164824"><ele>102.52</ele><time>2016-12-24T08:18:47Z</time></trkpt><trkpt lat="51.8202125374" lon="39.4101896603"><ele>104.92</ele><time>2016-12-24T08:19:11Z</time></trkpt><trkpt lat="51.8202443887" lon="39.4101529475"><ele>104.92</ele><time>2016-12-24T08:19:15Z</time></trkpt><trkpt lat="51.8202575482" lon="39.4101462420"><ele>104.92</ele><time>2016-12-24T08:19:16Z</time></trkpt><trkpt lat="51.8206335604" lon="39.4100366067"><ele>103.96</ele><time>2016-12-24T08:19:29Z</time></trkpt><trkpt lat="51.8212356325" lon="39.4099124707"><ele>105.40</ele><time>2016-12-24T08:19:44Z</time></trkpt><trkpt lat="51.8216036819" lon="39.4094517175"><ele>107.81</ele><time>2016-12-24T08:19:56Z</time></trkpt><trkpt lat="51.8217475992" lon="39.4090554211"><ele>106.84</ele><time>2016-12-24T08:20:03Z</time></trkpt><trkpt lat="51.8217885029" lon="39.4081620779"><ele>102.04</ele><time>2016-12-24T08:20:17Z</time></trkpt><trkpt lat="51.8217489403" lon="39.4077385403"><ele>100.60</ele><time>2016-12-24T08:20:23Z</time></trkpt><trkpt lat="51.8218055181" lon="39.4066319615"><ele>98.19</ele><time>2016-12-24T08:20:39Z</time></trkpt><trkpt lat="51.8218800332" lon="39.4063022174"><ele>96.75</ele><time>2016-12-24T08:20:44Z</time></trkpt><trkpt lat="51.8218977191" lon="39.4062361680"><ele>96.27</ele><time>2016-12-24T08:20:45Z</time></trkpt><trkpt lat="51.8221386150" lon="39.4056578167"><ele>95.79</ele><time>2016-12-24T08:20:55Z</time></trkpt><trkpt lat="51.8221770879" lon="39.4056241214"><ele>96.27</ele><time>2016-12-24T08:20:56Z</time></trkpt><trkpt lat="51.8222169857" lon="39.4055947009"><ele>96.27</ele><time>2016-12-24T08:20:57Z</time></trkpt><trkpt lat="51.8222568836" lon="39.4055735786"><ele>96.27</ele><time>2016-12-24T08:20:58Z</time></trkpt><trkpt lat="51.8222976197" lon="39.4055566471"><ele>96.75</ele><time>2016-12-24T08:20:59Z</time></trkpt><trkpt lat="51.8228624761" lon="39.4053523801"><ele>98.19</ele><time>2016-12-24T08:21:12Z</time></trkpt><trkpt lat="51.8229078222" lon="39.4053491112"><ele>98.19</ele><time>2016-12-24T08:21:13Z</time></trkpt><trkpt lat="51.8235426676" lon="39.4054377079"><ele>103.00</ele><time>2016-12-24T08:21:27Z</time></trkpt><trkpt lat="51.8241684604" lon="39.4056271389"><ele>105.40</ele><time>2016-12-24T08:21:41Z</time></trkpt><trkpt lat="51.8248983566" lon="39.4056821242"><ele>108.29</ele><time>2016-12-24T08:21:59Z</time></trkpt><trkpt lat="51.8253772985" lon="39.4055333454"><ele>108.29</ele><time>2016-12-24T08:22:13Z</time></trkpt><trkpt lat="51.8260310870" lon="39.4053490274"><ele>110.21</ele><time>2016-12-24T08:22:31Z</time></trkpt><trkpt lat="51.8265080173" lon="39.4051720854"><ele>109.73</ele><time>2016-12-24T08:22:44Z</time></trkpt><trkpt lat="51.8268814310" lon="39.4047929719"><ele>107.32</ele><time>2016-12-24T08:22:56Z</time></trkpt><trkpt lat="51.8272526655" lon="39.4043534249"><ele>108.29</ele><time>2016-12-24T08:23:07Z</time></trkpt><trkpt lat="51.8272887077" lon="39.4043253455"><ele>108.29</ele><time>2016-12-24T08:23:08Z</time></trkpt><trkpt lat="51.8274061382" lon="39.4042376708"><ele>107.81</ele><time>2016-12-24T08:23:11Z</time></trkpt><trkpt lat="51.8281038478" lon="39.4041381776"><ele>107.81</ele><time>2016-12-24T08:23:26Z</time></trkpt><trkpt lat="51.8281921931" lon="39.4041359983"><ele>107.81</ele><time>2016-12-24T08:23:28Z</time></trkpt><trkpt lat="51.8282354437" lon="39.4041252695"><ele>107.81</ele><time>2016-12-24T08:23:29Z</time></trkpt><trkpt lat="51.8282792810" lon="39.4041100144"><ele>107.81</ele><time>2016-12-24T08:23:30Z</time></trkpt><trkpt lat="51.8285641819" lon="39.4038971141"><ele>107.32</ele><time>2016-12-24T08:23:37Z</time></trkpt><trkpt lat="51.8286343385" lon="39.4038039073"><ele>107.32</ele><time>2016-12-24T08:23:39Z</time></trkpt><trkpt lat="51.8286671117" lon="39.4037497602"><ele>107.32</ele><time>2016-12-24T08:23:40Z</time></trkpt><trkpt lat="51.8288703728" lon="39.4033300783"><ele>106.36</ele><time>2016-12-24T08:23:47Z</time></trkpt><trkpt lat="51.8288961891" lon="39.4032700639"><ele>106.36</ele><time>2016-12-24T08:23:48Z</time></trkpt><trkpt lat="51.8292096723" lon="39.4023776427"><ele>101.56</ele><time>2016-12-24T08:24:01Z</time></trkpt><trkpt lat="51.8292695191" lon="39.4022659119"><ele>101.08</ele><time>2016-12-24T08:24:03Z</time></trkpt><trkpt lat="51.8293457106" lon="39.4021640718"><ele>100.60</ele><time>2016-12-24T08:24:05Z</time></trkpt><trkpt lat="51.8293947447" lon="39.4021153729"><ele>100.11</ele><time>2016-12-24T08:24:06Z</time></trkpt><trkpt lat="51.8299002573" lon="39.4018432125"><ele>103.00</ele><time>2016-12-24T08:24:17Z</time></trkpt><trkpt lat="51.8299436755" lon="39.4018261973"><ele>103.48</ele><time>2016-12-24T08:24:18Z</time></trkpt><trkpt lat="51.8306048401" lon="39.4016419630"><ele>107.32</ele><time>2016-12-24T08:24:33Z</time></trkpt><trkpt lat="51.8307987973" lon="39.4015686214"><ele>105.88</ele><time>2016-12-24T08:24:37Z</time></trkpt><trkpt lat="51.8314599618" lon="39.4011671282"><ele>104.92</ele><time>2016-12-24T08:24:52Z</time></trkpt><trkpt lat="51.8320644647" lon="39.4009147491"><ele>103.96</ele><time>2016-12-24T08:25:05Z</time></trkpt><trkpt lat="51.8322099745" lon="39.4008520525"><ele>103.48</ele><time>2016-12-24T08:25:08Z</time></trkpt><trkpt lat="51.8327058479" lon="39.4004137628"><ele>103.00</ele><time>2016-12-24T08:25:20Z</time></trkpt><trkpt lat="51.8327770103" lon="39.4003006071"><ele>102.52</ele><time>2016-12-24T08:25:22Z</time></trkpt><trkpt lat="51.8332199100" lon="39.3994389474"><ele>97.23</ele><time>2016-12-24T08:25:35Z</time></trkpt><trkpt lat="51.8334619794" lon="39.3991979677"><ele>97.23</ele><time>2016-12-24T08:25:41Z</time></trkpt><trkpt lat="51.8335058168" lon="39.3991755880"><ele>97.23</ele><time>2016-12-24T08:25:42Z</time></trkpt><trkpt lat="51.8337415159" lon="39.3991018273"><ele>97.23</ele><time>2016-12-24T08:25:47Z</time></trkpt><trkpt lat="51.8337859400" lon="39.3990985584"><ele>97.23</ele><time>2016-12-24T08:25:48Z</time></trkpt><trkpt lat="51.8338306155" lon="39.3991015758"><ele>97.23</ele><time>2016-12-24T08:25:49Z</time></trkpt><trkpt lat="51.8338736985" lon="39.3991132267"><ele>97.23</ele><time>2016-12-24T08:25:50Z</time></trkpt><trkpt lat="51.8339127582" lon="39.3991337623"><ele>97.71</ele><time>2016-12-24T08:25:51Z</time></trkpt><trkpt lat="51.8339505605" lon="39.3991597462"><ele>97.71</ele><time>2016-12-24T08:25:52Z</time></trkpt><trkpt lat="51.8342207931" lon="39.3992807809"><ele>98.19</ele><time>2016-12-24T08:25:59Z</time></trkpt><trkpt lat="51.8342601880" lon="39.3992705550"><ele>98.19</ele><time>2016-12-24T08:26:00Z</time></trkpt><trkpt lat="51.8342978228" lon="39.3992486782"><ele>98.67</ele><time>2016-12-24T08:26:01Z</time></trkpt><trkpt lat="51.8343339488" lon="39.3992159888"><ele>98.67</ele><time>2016-12-24T08:26:02Z</time></trkpt><trkpt lat="51.8343667220" lon="39.3991844729"><ele>98.67</ele><time>2016-12-24T08:26:03Z</time></trkpt><trkpt lat="51.8348190095" lon="39.3985662237"><ele>97.71</ele><time>2016-12-24T08:26:19Z</time></trkpt><trkpt lat="51.8348528724" lon="39.3983063847"><ele>96.27</ele><time>2016-12-24T08:26:23Z</time></trkpt><trkpt lat="51.8348533753" lon="39.3982373178"><ele>95.79</ele><time>2016-12-24T08:26:24Z</time></trkpt><trkpt lat="51.8347059377" lon="39.3973826990"><ele>94.35</ele><time>2016-12-24T08:26:37Z</time></trkpt><trkpt lat="51.8345286604" lon="39.3967999052"><ele>92.90</ele><time>2016-12-24T08:26:46Z</time></trkpt><trkpt lat="51.8345007487" lon="39.3967482727"><ele>92.90</ele><time>2016-12-24T08:26:47Z</time></trkpt><trkpt lat="51.8341504689" lon="39.3960733619"><ele>93.87</ele><time>2016-12-24T08:27:00Z</time></trkpt><trkpt lat="51.8340661470" lon="39.3956934102"><ele>93.39</ele><time>2016-12-24T08:27:06Z</time></trkpt><trkpt lat="51.8340631295" lon="39.3956257682"><ele>92.90</ele><time>2016-12-24T08:27:07Z</time></trkpt><trkpt lat="51.8340638001" lon="39.3955577072"><ele>92.42</ele><time>2016-12-24T08:27:08Z</time></trkpt><trkpt lat="51.8340676557" lon="39.3954877183"><ele>91.46</ele><time>2016-12-24T08:27:09Z</time></trkpt><trkpt lat="51.8340789713" lon="39.3954124488"><ele>90.98</ele><time>2016-12-24T08:27:10Z</time></trkpt><trkpt lat="51.8340942264" lon="39.3953363411"><ele>90.02</ele><time>2016-12-24T08:27:11Z</time></trkpt><trkpt lat="51.8341093976" lon="39.3952623289"><ele>89.54</ele><time>2016-12-24T08:27:12Z</time></trkpt><trkpt lat="51.8341264967" lon="39.3951899093"><ele>89.54</ele><time>2016-12-24T08:27:13Z</time></trkpt><trkpt lat="51.8343683146" lon="39.3944704905"><ele>89.54</ele><time>2016-12-24T08:27:27Z</time></trkpt><trkpt lat="51.8346988969" lon="39.3940489646"><ele>90.50</ele><time>2016-12-24T08:27:40Z</time></trkpt><trkpt lat="51.8350099493" lon="39.3937307037"><ele>95.31</ele><time>2016-12-24T08:27:51Z</time></trkpt><trkpt lat="51.8353354186" lon="39.3931874726"><ele>97.23</ele><time>2016-12-24T08:28:04Z</time></trkpt><trkpt lat="51.8356122728" lon="39.3924249709"><ele>95.79</ele><time>2016-12-24T08:28:17Z</time></trkpt><trkpt lat="51.8356721196" lon="39.3923346139"><ele>95.79</ele><time>2016-12-24T08:28:19Z</time></trkpt><trkpt lat="51.8357077427" lon="39.3922942132"><ele>95.79</ele><time>2016-12-24T08:28:20Z</time></trkpt><trkpt lat="51.8357442040" lon="39.3922580872"><ele>95.79</ele><time>2016-12-24T08:28:21Z</time></trkpt><trkpt lat="51.8360101618" lon="39.3920518085"><ele>97.71</ele><time>2016-12-24T08:28:28Z</time></trkpt><trkpt lat="51.8360924721" lon="39.3920268305"><ele>98.67</ele><time>2016-12-24T08:28:30Z</time></trkpt><trkpt lat="51.8366568256" lon="39.3920161854"><ele>101.08</ele><time>2016-12-24T08:28:43Z</time></trkpt><trkpt lat="51.8371730670" lon="39.3922350369"><ele>106.36</ele><time>2016-12-24T08:28:56Z</time></trkpt><trkpt lat="51.8372883182" lon="39.3923161738"><ele>106.84</ele><time>2016-12-24T08:28:59Z</time></trkpt><trkpt lat="51.8375409488" lon="39.3924261443"><ele>107.81</ele><time>2016-12-24T08:29:05Z</time></trkpt><trkpt lat="51.8381768838" lon="39.3926009908"><ele>110.69</ele><time>2016-12-24T08:29:20Z</time></trkpt><trkpt lat="51.8382260017" lon="39.3925998174"><ele>110.69</ele><time>2016-12-24T08:29:21Z</time></trkpt><trkpt lat="51.8385342043" lon="39.3925171718"><ele>111.17</ele><time>2016-12-24T08:29:27Z</time></trkpt><trkpt lat="51.8386601843" lon="39.3924402259"><ele>111.17</ele><time>2016-12-24T08:29:30Z</time></trkpt><trkpt lat="51.8386948016" lon="39.3924084585"><ele>111.65</ele><time>2016-12-24T08:29:31Z</time></trkpt><trkpt lat="51.8390306644" lon="39.3920404091"><ele>109.25</ele><time>2016-12-24T08:29:40Z</time></trkpt><trkpt lat="51.8395733088" lon="39.3917865213"><ele>111.65</ele><time>2016-12-24T08:29:53Z</time></trkpt><trkpt lat="51.8400436174" lon="39.3917071447"><ele>110.21</ele><time>2016-12-24T08:30:04Z</time></trkpt><trkpt lat="51.8400883768" lon="39.3916936498"><ele>110.21</ele><time>2016-12-24T08:30:05Z</time></trkpt><trkpt lat="51.8401319627" lon="39.3916742038"><ele>109.73</ele><time>2016-12-24T08:30:06Z</time></trkpt><trkpt lat="51.8404278439" lon="39.3915447872"><ele>110.21</ele><time>2016-12-24T08:30:13Z</time></trkpt><trkpt lat="51.8408001680" lon="39.3913111836"><ele>106.84</ele><time>2016-12-24T08:30:22Z</time></trkpt><trkpt lat="51.8409097195" lon="39.3912792485"><ele>106.84</ele><time>2016-12-24T08:30:24Z</time></trkpt><trkpt lat="51.8411486875" lon="39.3912924081"><ele>106.84</ele><time>2016-12-24T08:30:29Z</time></trkpt><trkpt lat="51.8411871605" lon="39.3913158774"><ele>106.84</ele><time>2016-12-24T08:30:30Z</time></trkpt><trkpt lat="51.8412223645" lon="39.3913409393"><ele>106.84</ele><time>2016-12-24T08:30:31Z</time></trkpt><trkpt lat="51.8412922695" lon="39.3914079946"><ele>106.36</ele><time>2016-12-24T08:30:33Z</time></trkpt><trkpt lat="51.8413611688" lon="39.3914902210"><ele>105.88</ele><time>2016-12-24T08:30:35Z</time></trkpt><trkpt lat="51.8414293975" lon="39.3915721960"><ele>105.88</ele><time>2016-12-24T08:30:37Z</time></trkpt><trkpt lat="51.8415628374" lon="39.3917283509"><ele>106.84</ele><time>2016-12-24T08:30:41Z</time></trkpt><trkpt lat="51.8416287191" lon="39.3918160256"><ele>106.84</ele><time>2016-12-24T08:30:43Z</time></trkpt><trkpt lat="51.8419314735" lon="39.3923045229"><ele>108.29</ele><time>2016-12-24T08:30:53Z</time></trkpt><trkpt lat="51.8419677671" lon="39.3923461810"><ele>108.29</ele><time>2016-12-24T08:30:54Z</time></trkpt><trkpt lat="51.8420737982" lon="39.3924507871"><ele>108.77</ele><time>2016-12-24T08:30:57Z</time></trkpt><trkpt lat="51.8421130255" lon="39.3924771901"><ele>108.77</ele><time>2016-12-24T08:30:58Z</time></trkpt><trkpt lat="51.8422666658" lon="39.3925750069"><ele>109.73</ele><time>2016-12-24T08:31:02Z</time></trkpt><trkpt lat="51.8428066280" lon="39.3928513583"><ele>114.05</ele><time>2016-12-24T08:31:16Z</time></trkpt><trkpt lat="51.8430942949" lon="39.3930728920"><ele>116.94</ele><time>2016-12-24T08:31:27Z</time></trkpt><trkpt lat="51.8435423914" lon="39.3930869736"><ele>115.01</ele><time>2016-12-24T08:31:40Z</time></trkpt><trkpt lat="51.8441271130" lon="39.3930300605"><ele>115.50</ele><time>2016-12-24T08:31:55Z</time></trkpt><trkpt lat="51.8446605373" lon="39.3928150646"><ele>115.01</ele><time>2016-12-24T08:32:08Z</time></trkpt><trkpt lat="51.8452974781" lon="39.3926287349"><ele>116.94</ele><time>2016-12-24T08:32:24Z</time></trkpt><trkpt lat="51.8456946127" lon="39.3926980533"><ele>117.90</ele><time>2016-12-24T08:32:35Z</time></trkpt><trkpt lat="51.8460715469" lon="39.3925128970"><ele>117.90</ele><time>2016-12-24T08:32:44Z</time></trkpt><trkpt lat="51.8461219221" lon="39.3925068621"><ele>117.90</ele><time>2016-12-24T08:32:45Z</time></trkpt><trkpt lat="51.8461676035" lon="39.3925051019"><ele>117.90</ele><time>2016-12-24T08:32:46Z</time></trkpt><trkpt lat="51.8462074175" lon="39.3925098795"><ele>118.38</ele><time>2016-12-24T08:32:47Z</time></trkpt><trkpt lat="51.8462444656" lon="39.3925171718"><ele>119.34</ele><time>2016-12-24T08:32:48Z</time></trkpt><trkpt lat="51.8462835252" lon="39.3925256375"><ele>119.82</ele><time>2016-12-24T08:32:49Z</time></trkpt><trkpt lat="51.8463226687" lon="39.3925356958"><ele>120.30</ele><time>2016-12-24T08:32:50Z</time></trkpt><trkpt lat="51.8467664067" lon="39.3926832173"><ele>118.38</ele><time>2016-12-24T08:33:02Z</time></trkpt><trkpt lat="51.8468408380" lon="39.3927005678"><ele>117.42</ele><time>2016-12-24T08:33:05Z</time></trkpt><trkpt lat="51.8468539137" lon="39.3927204330"><ele>116.94</ele><time>2016-12-24T08:33:06Z</time></trkpt><trkpt lat="51.8468780536" lon="39.3928365223"><ele>115.98</ele><time>2016-12-24T08:33:10Z</time></trkpt><trkpt lat="51.8468556739" lon="39.3935126066"><ele>112.61</ele><time>2016-12-24T08:33:24Z</time></trkpt><trkpt lat="51.8468575180" lon="39.3941808119"><ele>111.65</ele><time>2016-12-24T08:33:36Z</time></trkpt><trkpt lat="51.8468524888" lon="39.3948894180"><ele>109.25</ele><time>2016-12-24T08:33:49Z</time></trkpt><trkpt lat="51.8468224816" lon="39.3953144643"><ele>108.77</ele><time>2016-12-24T08:33:58Z</time></trkpt><trkpt lat="51.8468260020" lon="39.3960615434"><ele>109.25</ele><time>2016-12-24T08:34:11Z</time></trkpt><trkpt lat="51.8468218111" lon="39.3965782877"><ele>111.65</ele><time>2016-12-24T08:34:21Z</time></trkpt><trkpt lat="51.8468058854" lon="39.3973843753"><ele>108.77</ele><time>2016-12-24T08:34:35Z</time></trkpt><trkpt lat="51.8467605393" lon="39.3981488887"><ele>107.81</ele><time>2016-12-24T08:34:48Z</time></trkpt><trkpt lat="51.8467867747" lon="39.3986698240"><ele>107.32</ele><time>2016-12-24T08:34:58Z</time></trkpt><trkpt lat="51.8467754591" lon="39.3993103690"><ele>107.81</ele><time>2016-12-24T08:35:11Z</time></trkpt><trkpt lat="51.8467679992" lon="39.3997827731"><ele>111.65</ele><time>2016-12-24T08:35:23Z</time></trkpt><trkpt lat="51.8467629701" lon="39.4003641419"><ele>111.65</ele><time>2016-12-24T08:35:35Z</time></trkpt><trkpt lat="51.8466395047" lon="39.4009231310"><ele>111.65</ele><time>2016-12-24T08:35:47Z</time></trkpt><trkpt lat="51.8465761375" lon="39.4014314935"><ele>112.13</ele><time>2016-12-24T08:35:59Z</time></trkpt><trkpt lat="51.8466761336" lon="39.4018442184"><ele>112.61</ele><time>2016-12-24T08:36:09Z</time></trkpt><trkpt lat="51.8467244133" lon="39.4023239147"><ele>111.65</ele><time>2016-12-24T08:36:19Z</time></trkpt><trkpt lat="51.8466882035" lon="39.4032503664"><ele>110.21</ele><time>2016-12-24T08:36:33Z</time></trkpt><trkpt lat="51.8466737866" lon="39.4040592201"><ele>115.01</ele><time>2016-12-24T08:36:46Z</time></trkpt><trkpt lat="51.8466496468" lon="39.4049818162"><ele>115.50</ele><time>2016-12-24T08:37:02Z</time></trkpt><trkpt lat="51.8466510717" lon="39.4057313260"><ele>115.50</ele><time>2016-12-24T08:37:16Z</time></trkpt><trkpt lat="51.8466434442" lon="39.4060346670"><ele>115.01</ele><time>2016-12-24T08:37:21Z</time></trkpt><trkpt lat="51.8466446176" lon="39.4068917166"><ele>115.01</ele><time>2016-12-24T08:37:35Z</time></trkpt><trkpt lat="51.8466250040" lon="39.4075395539"><ele>114.53</ele><time>2016-12-24T08:37:45Z</time></trkpt><trkpt lat="51.8466001097" lon="39.4083386008"><ele>114.05</ele><time>2016-12-24T08:37:59Z</time></trkpt><trkpt lat="51.8464548513" lon="39.4087949116"><ele>112.13</ele><time>2016-12-24T08:38:10Z</time></trkpt><trkpt lat="51.8465398438" lon="39.4092132524"><ele>112.13</ele><time>2016-12-24T08:38:21Z</time></trkpt><trkpt lat="51.8465381674" lon="39.4096405618"><ele>114.05</ele><time>2016-12-24T08:38:32Z</time></trkpt><trkpt lat="51.8465619721" lon="39.4100538734"><ele>113.57</ele><time>2016-12-24T08:38:41Z</time></trkpt><trkpt lat="51.8465806637" lon="39.4102288876"><ele>112.13</ele><time>2016-12-24T08:38:43Z</time></trkpt><trkpt lat="51.8465547636" lon="39.4108138606"><ele>111.17</ele><time>2016-12-24T08:38:52Z</time></trkpt><trkpt lat="51.8465162069" lon="39.4114528969"><ele>110.69</ele><time>2016-12-24T08:39:03Z</time></trkpt><trkpt lat="51.8465502374" lon="39.4121792726"><ele>110.21</ele><time>2016-12-24T08:39:16Z</time></trkpt><trkpt lat="51.8465466332" lon="39.4130277727"><ele>110.69</ele><time>2016-12-24T08:39:32Z</time></trkpt><trkpt lat="51.8465239182" lon="39.4137982372"><ele>108.77</ele><time>2016-12-24T08:39:45Z</time></trkpt><trkpt lat="51.8465050589" lon="39.4147020578"><ele>106.84</ele><time>2016-12-24T08:40:00Z</time></trkpt><trkpt lat="51.8465202302" lon="39.4153349753"><ele>105.40</ele><time>2016-12-24T08:40:12Z</time></trkpt><trkpt lat="51.8464867026" lon="39.4161603414"><ele>105.88</ele><time>2016-12-24T08:40:27Z</time></trkpt><trkpt lat="51.8464916479" lon="39.4167964440"><ele>107.32</ele><time>2016-12-24T08:40:40Z</time></trkpt><trkpt lat="51.8464682624" lon="39.4174969196"><ele>108.77</ele><time>2016-12-24T08:40:53Z</time></trkpt><trkpt lat="51.8464688491" lon="39.4182422385"><ele>109.73</ele><time>2016-12-24T08:41:07Z</time></trkpt><trkpt lat="51.8464701064" lon="39.4183147419"><ele>109.73</ele><time>2016-12-24T08:41:08Z</time></trkpt><trkpt lat="51.8464783207" lon="39.4188170694"><ele>109.73</ele><time>2016-12-24T08:41:15Z</time></trkpt><trkpt lat="51.8464504927" lon="39.4195966702"><ele>111.65</ele><time>2016-12-24T08:41:29Z</time></trkpt><trkpt lat="51.8464402668" lon="39.4198635500"><ele>111.65</ele><time>2016-12-24T08:41:34Z</time></trkpt><trkpt lat="51.8464544322" lon="39.4206668716"><ele>108.77</ele><time>2016-12-24T08:41:47Z</time></trkpt><trkpt lat="51.8464297056" lon="39.4214611407"><ele>109.25</ele><time>2016-12-24T08:42:01Z</time></trkpt><trkpt lat="51.8464475591" lon="39.4222845789"><ele>107.32</ele><time>2016-12-24T08:42:15Z</time></trkpt><trkpt lat="51.8464338966" lon="39.4225674681"><ele>106.36</ele><time>2016-12-24T08:42:19Z</time></trkpt><trkpt lat="51.8464280292" lon="39.4229915924"><ele>105.40</ele><time>2016-12-24T08:42:25Z</time></trkpt><trkpt lat="51.8464329746" lon="39.4232134614"><ele>105.40</ele><time>2016-12-24T08:42:28Z</time></trkpt><trkpt lat="51.8464172166" lon="39.4242146797"><ele>106.84</ele><time>2016-12-24T08:42:44Z</time></trkpt><trkpt lat="51.8463987764" lon="39.4249913469"><ele>108.77</ele><time>2016-12-24T08:42:56Z</time></trkpt><trkpt lat="51.8463775702" lon="39.4257314689"><ele>109.25</ele><time>2016-12-24T08:43:10Z</time></trkpt><trkpt lat="51.8463723734" lon="39.4264041167"><ele>108.29</ele><time>2016-12-24T08:43:23Z</time></trkpt><trkpt lat="51.8465071544" lon="39.4268554822"><ele>111.17</ele><time>2016-12-24T08:43:35Z</time></trkpt><trkpt lat="51.8469156884" lon="39.4270948693"><ele>114.05</ele><time>2016-12-24T08:43:48Z</time></trkpt><trkpt lat="51.8474139087" lon="39.4273464102"><ele>115.50</ele><time>2016-12-24T08:44:02Z</time></trkpt><trkpt lat="51.8476287369" lon="39.4274490047"><ele>116.46</ele><time>2016-12-24T08:44:08Z</time></trkpt><trkpt lat="51.8481091037" lon="39.4277016353"><ele>117.90</ele><time>2016-12-24T08:44:21Z</time></trkpt><trkpt lat="51.8486514967" lon="39.4279407710"><ele>118.38</ele><time>2016-12-24T08:44:35Z</time></trkpt><trkpt lat="51.8492188677" lon="39.4281937368"><ele>120.78</ele><time>2016-12-24T08:44:50Z</time></trkpt><trkpt lat="51.8495090492" lon="39.4283130951"><ele>119.34</ele><time>2016-12-24T08:44:57Z</time></trkpt><trkpt lat="51.8495496176" lon="39.4283273444"><ele>119.34</ele><time>2016-12-24T08:44:58Z</time></trkpt><trkpt lat="51.8501839601" lon="39.4285985827"><ele>119.82</ele><time>2016-12-24T08:45:13Z</time></trkpt><trkpt lat="51.8508134410" lon="39.4288104773"><ele>117.90</ele><time>2016-12-24T08:45:28Z</time></trkpt><trkpt lat="51.8510902114" lon="39.4289090484"><ele>118.86</ele><time>2016-12-24T08:45:35Z</time></trkpt><trkpt lat="51.8512986694" lon="39.4289879221"><ele>119.34</ele><time>2016-12-24T08:45:40Z</time></trkpt><trkpt lat="51.8517196923" lon="39.4291233737"><ele>119.82</ele><time>2016-12-24T08:45:51Z</time></trkpt><trkpt lat="51.8521602452" lon="39.4292799477"><ele>118.38</ele><time>2016-12-24T08:46:03Z</time></trkpt><trkpt lat="51.8526984472" lon="39.4294896629"><ele>121.74</ele><time>2016-12-24T08:46:18Z</time></trkpt><trkpt lat="51.8532105815" lon="39.4296857994"><ele>123.67</ele><time>2016-12-24T08:46:32Z</time></trkpt><trkpt lat="51.8536474463" lon="39.4298826903"><ele>127.51</ele><time>2016-12-24T08:46:45Z</time></trkpt><trkpt lat="51.8541375361" lon="39.4301794935"><ele>127.51</ele><time>2016-12-24T08:46:59Z</time></trkpt><trkpt lat="51.8544164021" lon="39.4304007757"><ele>125.11</ele><time>2016-12-24T08:47:07Z</time></trkpt><trkpt lat="51.8544524442" lon="39.4304276817"><ele>125.11</ele><time>2016-12-24T08:47:08Z</time></trkpt><trkpt lat="51.8549971003" lon="39.4308997504"><ele>127.51</ele><time>2016-12-24T08:47:24Z</time></trkpt><trkpt lat="51.8554215599" lon="39.4312826358"><ele>127.51</ele><time>2016-12-24T08:47:36Z</time></trkpt><trkpt lat="51.8558943830" lon="39.4317402877"><ele>129.92</ele><time>2016-12-24T08:47:50Z</time></trkpt><trkpt lat="51.8561564013" lon="39.4321282022"><ele>130.88</ele><time>2016-12-24T08:48:02Z</time></trkpt><trkpt lat="51.8565500155" lon="39.4326209743"><ele>131.36</ele><time>2016-12-24T08:48:15Z</time></trkpt><trkpt lat="51.8568703718" lon="39.4332042709"><ele>129.92</ele><time>2016-12-24T08:48:28Z</time></trkpt><trkpt lat="51.8569938373" lon="39.4336998090"><ele>128.95</ele><time>2016-12-24T08:48:38Z</time></trkpt><trkpt lat="51.8573666643" lon="39.4338395353"><ele>127.03</ele><time>2016-12-24T08:48:50Z</time></trkpt><trkpt lat="51.8577162735" lon="39.4342127815"><ele>125.11</ele><time>2016-12-24T08:49:02Z</time></trkpt><trkpt lat="51.8579632044" lon="39.4345988519"><ele>126.07</ele><time>2016-12-24T08:49:15Z</time></trkpt><trkpt lat="51.8582490273" lon="39.4352507126"><ele>126.55</ele><time>2016-12-24T08:49:29Z</time></trkpt><trkpt lat="51.8585604150" lon="39.4359779265"><ele>123.67</ele><time>2016-12-24T08:49:43Z</time></trkpt><trkpt lat="51.8589060847" lon="39.4366621412"><ele>123.67</ele><time>2016-12-24T08:49:58Z</time></trkpt><trkpt lat="51.8590863794" lon="39.4373627007"><ele>120.30</ele><time>2016-12-24T08:50:13Z</time></trkpt><trkpt lat="51.8593343161" lon="39.4379538763"><ele>119.82</ele><time>2016-12-24T08:50:27Z</time></trkpt><trkpt lat="51.8595527485" lon="39.4384319801"><ele>121.74</ele><time>2016-12-24T08:50:38Z</time></trkpt><trkpt lat="51.8597908784" lon="39.4388229959"><ele>120.30</ele><time>2016-12-24T08:50:49Z</time></trkpt><trkpt lat="51.8601985741" lon="39.4388808310"><ele>118.86</ele><time>2016-12-24T08:51:04Z</time></trkpt><trkpt lat="51.8602298386" lon="39.4388961699"><ele>112.13</ele><time>2016-12-24T08:51:26Z</time></trkpt><trkpt lat="51.8602302577" lon="39.4388727844"><ele>109.73</ele><time>2016-12-24T08:51:45Z</time></trkpt><trkpt lat="51.8602455966" lon="39.4388493150"><ele>106.84</ele><time>2016-12-24T08:52:25Z</time></trkpt><trkpt lat="51.8602321018" lon="39.4388608821"><ele>105.40</ele><time>2016-12-24T08:53:07Z</time></trkpt><trkpt lat="51.8602218758" lon="39.4388682581"><ele>107.81</ele><time>2016-12-24T08:53:36Z</time></trkpt><trkpt lat="51.8602611870" lon="39.4388384186"><ele>104.92</ele><time>2016-12-24T08:54:06Z</time></trkpt><trkpt lat="51.8605246302" lon="39.4390662387"><ele>107.32</ele><time>2016-12-24T08:54:20Z</time></trkpt><trkpt lat="51.8609120417" lon="39.4393607788"><ele>111.17</ele><time>2016-12-24T08:54:35Z</time></trkpt><trkpt lat="51.8613029737" lon="39.4395482820"><ele>112.61</ele><time>2016-12-24T08:54:49Z</time></trkpt><trkpt lat="51.8614331447" lon="39.4395863358"><ele>113.57</ele><time>2016-12-24T08:54:54Z</time></trkpt><trkpt lat="51.8614489865" lon="39.4396071229"><ele>114.05</ele><time>2016-12-24T08:54:55Z</time></trkpt><trkpt lat="51.8614812568" lon="39.4396855775"><ele>114.05</ele><time>2016-12-24T08:54:58Z</time></trkpt><trkpt lat="51.8614596315" lon="39.4398285728"><ele>114.53</ele><time>2016-12-24T08:55:02Z</time></trkpt><trkpt lat="51.8613230065" lon="39.4407024700"><ele>115.50</ele><time>2016-12-24T08:55:19Z</time></trkpt><trkpt lat="51.8611925002" lon="39.4415212981"><ele>115.01</ele><time>2016-12-24T08:55:35Z</time></trkpt><trkpt lat="51.8610131275" lon="39.4423866458"><ele>114.53</ele><time>2016-12-24T08:55:52Z</time></trkpt><trkpt lat="51.8608652707" lon="39.4431329705"><ele>111.65</ele><time>2016-12-24T08:56:06Z</time></trkpt><trkpt lat="51.8607232813" lon="39.4439248089"><ele>113.57</ele><time>2016-12-24T08:56:20Z</time></trkpt><trkpt lat="51.8606161606" lon="39.4445310719"><ele>115.98</ele><time>2016-12-24T08:56:33Z</time></trkpt><trkpt lat="51.8604921922" lon="39.4453488104"><ele>114.53</ele><time>2016-12-24T08:56:47Z</time></trkpt><trkpt lat="51.8603802938" lon="39.4460194465"><ele>115.01</ele><time>2016-12-24T08:56:59Z</time></trkpt><trkpt lat="51.8601765297" lon="39.4470739737"><ele>113.09</ele><time>2016-12-24T08:57:20Z</time></trkpt><trkpt lat="51.8600422516" lon="39.4477789756"><ele>112.61</ele><time>2016-12-24T08:57:34Z</time></trkpt><trkpt lat="51.8599077221" lon="39.4485738315"><ele>113.09</ele><time>2016-12-24T08:57:50Z</time></trkpt><trkpt lat="51.8597438559" lon="39.4494499918"><ele>114.53</ele><time>2016-12-24T08:58:07Z</time></trkpt><trkpt lat="51.8595866114" lon="39.4502664730"><ele>115.50</ele><time>2016-12-24T08:58:23Z</time></trkpt><trkpt lat="51.8594413530" lon="39.4510678668"><ele>117.42</ele><time>2016-12-24T08:58:39Z</time></trkpt><trkpt lat="51.8592825159" lon="39.4519533310"><ele>117.42</ele><time>2016-12-24T08:58:56Z</time></trkpt><trkpt lat="51.8591586314" lon="39.4526289124"><ele>116.46</ele><time>2016-12-24T08:59:09Z</time></trkpt><trkpt lat="51.8590340763" lon="39.4532234408"><ele>115.98</ele><time>2016-12-24T08:59:21Z</time></trkpt><trkpt lat="51.8590040691" lon="39.4538495690"><ele>112.13</ele><time>2016-12-24T08:59:36Z</time></trkpt><trkpt lat="51.8590273708" lon="39.4539547618"><ele>116.94</ele><time>2016-12-24T08:59:48Z</time></trkpt><trkpt lat="51.8590564560" lon="39.4539701845"><ele>122.22</ele><time>2016-12-24T09:00:11Z</time></trkpt><trkpt lat="51.8592111021" lon="39.4541049656"><ele>124.63</ele><time>2016-12-24T09:00:34Z</time></trkpt><trkpt lat="51.8596918043" lon="39.4543031137"><ele>123.67</ele><time>2016-12-24T09:00:49Z</time></trkpt><trkpt lat="51.8600264937" lon="39.4544466119"><ele>124.63</ele><time>2016-12-24T09:01:01Z</time></trkpt><trkpt lat="51.8601152580" lon="39.4544721767"><ele>125.59</ele><time>2016-12-24T09:01:13Z</time></trkpt><trkpt lat="51.8601056188" lon="39.4544970710"><ele>127.03</ele><time>2016-12-24T09:01:46Z</time></trkpt><trkpt lat="51.8602585047" lon="39.4545785431"><ele>126.55</ele><time>2016-12-24T09:01:56Z</time></trkpt><trkpt lat="51.8605581578" lon="39.4547733385"><ele>122.22</ele><time>2016-12-24T09:02:06Z</time></trkpt><trkpt lat="51.8608742394" lon="39.4549614284"><ele>122.22</ele><time>2016-12-24T09:02:15Z</time></trkpt><trkpt lat="51.8614246789" lon="39.4552174956"><ele>123.19</ele><time>2016-12-24T09:02:30Z</time></trkpt><trkpt lat="51.8619361427" lon="39.4554819446"><ele>119.82</ele><time>2016-12-24T09:02:41Z</time></trkpt><trkpt lat="51.8620627094" lon="39.4555512629"><ele>120.30</ele><time>2016-12-24T09:02:44Z</time></trkpt><trkpt lat="51.8621050380" lon="39.4555724692"><ele>120.78</ele><time>2016-12-24T09:02:45Z</time></trkpt><trkpt lat="51.8626538850" lon="39.4558401033"><ele>126.07</ele><time>2016-12-24T09:03:00Z</time></trkpt><trkpt lat="51.8630180787" lon="39.4560120162"><ele>129.92</ele><time>2016-12-24T09:03:10Z</time></trkpt><trkpt lat="51.8633162230" lon="39.4561817497"><ele>129.92</ele><time>2016-12-24T09:03:18Z</time></trkpt><trkpt lat="51.8640032038" lon="39.4565002620"><ele>127.51</ele><time>2016-12-24T09:03:32Z</time></trkpt><trkpt lat="51.8645169307" lon="39.4567365479"><ele>126.07</ele><time>2016-12-24T09:03:43Z</time></trkpt><trkpt lat="51.8650953658" lon="39.4570352789"><ele>126.55</ele><time>2016-12-24T09:03:56Z</time></trkpt><trkpt lat="51.8657095917" lon="39.4573246222"><ele>125.59</ele><time>2016-12-24T09:04:10Z</time></trkpt><trkpt lat="51.8663441855" lon="39.4576651789"><ele>123.67</ele><time>2016-12-24T09:04:24Z</time></trkpt><trkpt lat="51.8669745047" lon="39.4579668436"><ele>123.67</ele><time>2016-12-24T09:04:38Z</time></trkpt><trkpt lat="51.8675526883" lon="39.4582581148"><ele>121.74</ele><time>2016-12-24T09:04:51Z</time></trkpt><trkpt lat="51.8681592029" lon="39.4585724361"><ele>122.22</ele><time>2016-12-24T09:05:05Z</time></trkpt><trkpt lat="51.8689251412" lon="39.4589486998"><ele>122.71</ele><time>2016-12-24T09:05:21Z</time></trkpt><trkpt lat="51.8696669396" lon="39.4593079481"><ele>121.74</ele><time>2016-12-24T09:05:37Z</time></trkpt><trkpt lat="51.8702740408" lon="39.4596029911"><ele>121.26</ele><time>2016-12-24T09:05:50Z</time></trkpt><trkpt lat="51.8710965570" lon="39.4599707052"><ele>118.86</ele><time>2016-12-24T09:06:07Z</time></trkpt><trkpt lat="51.8718523532" lon="39.4603576977"><ele>118.38</ele><time>2016-12-24T09:06:22Z</time></trkpt><trkpt lat="51.8725967500" lon="39.4607209694"><ele>119.82</ele><time>2016-12-24T09:06:38Z</time></trkpt><trkpt lat="51.8731332757" lon="39.4609843288"><ele>119.34</ele><time>2016-12-24T09:06:50Z</time></trkpt><trkpt lat="51.8736224435" lon="39.4612374622"><ele>118.38</ele><time>2016-12-24T09:07:00Z</time></trkpt><trkpt lat="51.8739676103" lon="39.4614183437"><ele>119.34</ele><time>2016-12-24T09:07:08Z</time></trkpt><trkpt lat="51.8747126777" lon="39.4617614988"><ele>119.34</ele><time>2016-12-24T09:07:23Z</time></trkpt><trkpt lat="51.8754449207" lon="39.4621082582"><ele>119.34</ele><time>2016-12-24T09:07:37Z</time></trkpt><trkpt lat="51.8760133814" lon="39.4623948354"><ele>120.30</ele><time>2016-12-24T09:07:49Z</time></trkpt><trkpt lat="51.8765878771" lon="39.4627027027"><ele>120.30</ele><time>2016-12-24T09:08:01Z</time></trkpt><trkpt lat="51.8773101456" lon="39.4630450197"><ele>118.38</ele><time>2016-12-24T09:08:16Z</time></trkpt><trkpt lat="51.8779292330" lon="39.4633429125"><ele>116.94</ele><time>2016-12-24T09:08:29Z</time></trkpt><trkpt lat="51.8787488993" lon="39.4637695514"><ele>115.98</ele><time>2016-12-24T09:08:46Z</time></trkpt><trkpt lat="51.8796659634" lon="39.4642346632"><ele>113.09</ele><time>2016-12-24T09:09:04Z</time></trkpt><trkpt lat="51.8801188376" lon="39.4644567836"><ele>112.13</ele><time>2016-12-24T09:09:16Z</time></trkpt><trkpt lat="51.8808720354" lon="39.4648272637"><ele>112.61</ele><time>2016-12-24T09:09:33Z</time></trkpt><trkpt lat="51.8815094791" lon="39.4651534874"><ele>114.05</ele><time>2016-12-24T09:09:49Z</time></trkpt><trkpt lat="51.8816773687" lon="39.4652475324"><ele>114.53</ele><time>2016-12-24T09:09:54Z</time></trkpt><trkpt lat="51.8816964794" lon="39.4652794674"><ele>114.05</ele><time>2016-12-24T09:09:55Z</time></trkpt><trkpt lat="51.8817134108" lon="39.4653199520"><ele>114.05</ele><time>2016-12-24T09:09:56Z</time></trkpt><trkpt lat="51.8817213736" lon="39.4653632864"><ele>114.05</ele><time>2016-12-24T09:09:57Z</time></trkpt><trkpt lat="51.8817242235" lon="39.4654072076"><ele>114.05</ele><time>2016-12-24T09:09:58Z</time></trkpt><trkpt lat="51.8817212060" lon="39.4654509611"><ele>114.05</ele><time>2016-12-24T09:09:59Z</time></trkpt><trkpt lat="51.8817134108" lon="39.4654989894"><ele>114.05</ele><time>2016-12-24T09:10:00Z</time></trkpt><trkpt lat="51.8817049451" lon="39.4655535556"><ele>113.57</ele><time>2016-12-24T09:10:01Z</time></trkpt><trkpt lat="51.8816924561" lon="39.4656130672"><ele>113.57</ele><time>2016-12-24T09:10:02Z</time></trkpt><trkpt lat="51.8816798832" lon="39.4656804577"><ele>113.57</ele><time>2016-12-24T09:10:03Z</time></trkpt><trkpt lat="51.8816668075" lon="39.4657479320"><ele>113.57</ele><time>2016-12-24T09:10:04Z</time></trkpt><trkpt lat="51.8816526420" lon="39.4658159930"><ele>113.57</ele><time>2016-12-24T09:10:05Z</time></trkpt><trkpt lat="51.8815831561" lon="39.4661334157"><ele>113.09</ele><time>2016-12-24T09:10:09Z</time></trkpt><trkpt lat="51.8814347964" lon="39.4669977576"><ele>110.21</ele><time>2016-12-24T09:10:20Z</time></trkpt><trkpt lat="51.8814192060" lon="39.4670645613"><ele>110.21</ele><time>2016-12-24T09:10:21Z</time></trkpt><trkpt lat="51.8814088125" lon="39.4671324547"><ele>110.69</ele><time>2016-12-24T09:10:22Z</time></trkpt><trkpt lat="51.8813280948" lon="39.4676312618"><ele>109.25</ele><time>2016-12-24T09:10:29Z</time></trkpt><trkpt lat="51.8812634703" lon="39.4679780211"><ele>108.77</ele><time>2016-12-24T09:10:34Z</time></trkpt><trkpt lat="51.8810768053" lon="39.4689136092"><ele>107.32</ele><time>2016-12-24T09:10:47Z</time></trkpt><trkpt lat="51.8809186388" lon="39.4697284140"><ele>106.84</ele><time>2016-12-24T09:10:59Z</time></trkpt><trkpt lat="51.8809060659" lon="39.4697944634"><ele>106.84</ele><time>2016-12-24T09:11:00Z</time></trkpt><trkpt lat="51.8806867115" lon="39.4709146209"><ele>108.29</ele><time>2016-12-24T09:11:16Z</time></trkpt><trkpt lat="51.8804587238" lon="39.4721403066"><ele>105.88</ele><time>2016-12-24T09:11:33Z</time></trkpt><trkpt lat="51.8804153055" lon="39.4723672885"><ele>105.88</ele><time>2016-12-24T09:11:36Z</time></trkpt><trkpt lat="51.8804024812" lon="39.4724402949"><ele>105.88</ele><time>2016-12-24T09:11:37Z</time></trkpt><trkpt lat="51.8803857174" lon="39.4725110382"><ele>105.88</ele><time>2016-12-24T09:11:38Z</time></trkpt><trkpt lat="51.8803707138" lon="39.4725847151"><ele>105.88</ele><time>2016-12-24T09:11:39Z</time></trkpt><trkpt lat="51.8803578056" lon="39.4726561289"><ele>105.88</ele><time>2016-12-24T09:11:40Z</time></trkpt><trkpt lat="51.8803442270" lon="39.4727194123"><ele>106.36</ele><time>2016-12-24T09:11:41Z</time></trkpt><trkpt lat="51.8802967854" lon="39.4730072469"><ele>106.84</ele><time>2016-12-24T09:11:51Z</time></trkpt><trkpt lat="51.8803426344" lon="39.4729810953"><ele>110.69</ele><time>2016-12-24T09:12:03Z</time></trkpt><trkpt lat="51.8803231884" lon="39.4730128627"><ele>115.01</ele><time>2016-12-24T09:12:39Z</time></trkpt><trkpt lat="51.8803067598" lon="39.4729891419"><ele>116.46</ele><time>2016-12-24T09:13:01Z</time></trkpt><trkpt lat="51.8802837096" lon="39.4730355777"><ele>123.67</ele><time>2016-12-24T09:13:37Z</time></trkpt><trkpt lat="51.8802915886" lon="39.4730359968"><ele>124.63</ele><time>2016-12-24T09:14:08Z</time></trkpt><trkpt lat="51.8802578095" lon="39.4730630703"><ele>123.19</ele><time>2016-12-24T09:14:39Z</time></trkpt><trkpt lat="51.8802654371" lon="39.4730111025"><ele>123.67</ele><time>2016-12-24T09:15:07Z</time></trkpt><trkpt lat="51.8803205900" lon="39.4729754794"><ele>120.30</ele><time>2016-12-24T09:15:39Z</time></trkpt><trkpt lat="51.8803003058" lon="39.4729979429"><ele>117.42</ele><time>2016-12-24T09:16:15Z</time></trkpt><trkpt lat="51.8802718073" lon="39.4730348233"><ele>119.82</ele><time>2016-12-24T09:16:56Z</time></trkpt><trkpt lat="51.8803127110" lon="39.4729998708"><ele>117.90</ele><time>2016-12-24T09:17:34Z</time></trkpt><trkpt lat="51.8803179916" lon="39.4729860406"><ele>118.38</ele><time>2016-12-24T09:18:02Z</time></trkpt><trkpt lat="51.8803272117" lon="39.4730039779"><ele>118.38</ele><time>2016-12-24T09:18:28Z</time></trkpt><trkpt lat="51.8803115375" lon="39.4730385952"><ele>121.74</ele><time>2016-12-24T09:18:55Z</time></trkpt><trkpt lat="51.8802925944" lon="39.4730253518"><ele>120.30</ele><time>2016-12-24T09:19:21Z</time></trkpt><trkpt lat="51.8803594820" lon="39.4730018824"><ele>116.94</ele><time>2016-12-24T09:19:51Z</time></trkpt><trkpt lat="51.8803199194" lon="39.4729873817"><ele>119.82</ele><time>2016-12-24T09:20:28Z</time></trkpt><trkpt lat="51.8803179078" lon="39.4729716238"><ele>117.90</ele><time>2016-12-24T09:21:00Z</time></trkpt><trkpt lat="51.8803357612" lon="39.4729885552"><ele>119.82</ele><time>2016-12-24T09:21:32Z</time></trkpt><trkpt lat="51.8803256191" lon="39.4730313029"><ele>118.38</ele><time>2016-12-24T09:21:57Z</time></trkpt><trkpt lat="51.8802869786" lon="39.4730408583"><ele>121.26</ele><time>2016-12-24T09:22:20Z</time></trkpt><trkpt lat="51.8802543730" lon="39.4731890503"><ele>120.78</ele><time>2016-12-24T09:22:33Z</time></trkpt><trkpt lat="51.8801236991" lon="39.4738658890"><ele>119.34</ele><time>2016-12-24T09:22:47Z</time></trkpt><trkpt lat="51.8799605034" lon="39.4747387804"><ele>118.38</ele><time>2016-12-24T09:23:02Z</time></trkpt><trkpt lat="51.8798076175" lon="39.4755615480"><ele>117.42</ele><time>2016-12-24T09:23:16Z</time></trkpt><trkpt lat="51.8796699867" lon="39.4763890095"><ele>116.46</ele><time>2016-12-24T09:23:30Z</time></trkpt><trkpt lat="51.8794941343" lon="39.4773437921"><ele>115.01</ele><time>2016-12-24T09:23:46Z</time></trkpt><trkpt lat="51.8794403225" lon="39.4775969256"><ele>115.01</ele><time>2016-12-24T09:23:50Z</time></trkpt><trkpt lat="51.8792553339" lon="39.4786556438"><ele>116.46</ele><time>2016-12-24T09:24:06Z</time></trkpt><trkpt lat="51.8790775537" lon="39.4794897269"><ele>119.34</ele><time>2016-12-24T09:24:20Z</time></trkpt><trkpt lat="51.8790418468" lon="39.4801154360"><ele>118.86</ele><time>2016-12-24T09:24:32Z</time></trkpt><trkpt lat="51.8791255821" lon="39.4802056253"><ele>117.90</ele><time>2016-12-24T09:24:35Z</time></trkpt><trkpt lat="51.8796687294" lon="39.4805065356"><ele>117.90</ele><time>2016-12-24T09:24:49Z</time></trkpt><trkpt lat="51.8801414687" lon="39.4807484373"><ele>119.34</ele><time>2016-12-24T09:25:02Z</time></trkpt><trkpt lat="51.8803480826" lon="39.4808584917"><ele>119.34</ele><time>2016-12-24T09:25:07Z</time></trkpt><trkpt lat="51.8809202313" lon="39.4810596574"><ele>122.22</ele><time>2016-12-24T09:25:21Z</time></trkpt><trkpt lat="51.8811983429" lon="39.4810073543"><ele>120.78</ele><time>2016-12-24T09:25:28Z</time></trkpt><trkpt lat="51.8813725188" lon="39.4810799416"><ele>119.82</ele><time>2016-12-24T09:25:32Z</time></trkpt><trkpt lat="51.8817376345" lon="39.4815012999"><ele>116.46</ele><time>2016-12-24T09:25:42Z</time></trkpt><trkpt lat="51.8822918460" lon="39.4817996956"><ele>116.94</ele><time>2016-12-24T09:25:55Z</time></trkpt><trkpt lat="51.8828763999" lon="39.4820848480"><ele>115.50</ele><time>2016-12-24T09:26:08Z</time></trkpt><trkpt lat="51.8833538331" lon="39.4823242351"><ele>116.94</ele><time>2016-12-24T09:26:20Z</time></trkpt><trkpt lat="51.8838337809" lon="39.4826051127"><ele>117.42</ele><time>2016-12-24T09:26:34Z</time></trkpt><trkpt lat="51.8841973040" lon="39.4827963039"><ele>116.94</ele><time>2016-12-24T09:26:45Z</time></trkpt><trkpt lat="51.8847142998" lon="39.4830628484"><ele>117.42</ele><time>2016-12-24T09:26:58Z</time></trkpt><trkpt lat="51.8853268493" lon="39.4834272936"><ele>115.98</ele><time>2016-12-24T09:27:14Z</time></trkpt><trkpt lat="51.8853648193" lon="39.4836417027"><ele>115.01</ele><time>2016-12-24T09:27:18Z</time></trkpt><trkpt lat="51.8853902165" lon="39.4837813452"><ele>114.53</ele><time>2016-12-24T09:27:20Z</time></trkpt><trkpt lat="51.8856905401" lon="39.4841254223"><ele>113.09</ele><time>2016-12-24T09:27:29Z</time></trkpt><trkpt lat="51.8860964756" lon="39.4841747079"><ele>113.57</ele><time>2016-12-24T09:27:38Z</time></trkpt><trkpt lat="51.8864398822" lon="39.4840754662"><ele>114.53</ele><time>2016-12-24T09:27:46Z</time></trkpt><trkpt lat="51.8871014658" lon="39.4836778287"><ele>117.42</ele><time>2016-12-24T09:28:01Z</time></trkpt><trkpt lat="51.8875439465" lon="39.4835108612"><ele>117.90</ele><time>2016-12-24T09:28:11Z</time></trkpt><trkpt lat="51.8881744333" lon="39.4834977854"><ele>117.42</ele><time>2016-12-24T09:28:24Z</time></trkpt><trkpt lat="51.8882162590" lon="39.4835016411"><ele>117.42</ele><time>2016-12-24T09:28:25Z</time></trkpt><trkpt lat="51.8883120641" lon="39.4835211709"><ele>117.42</ele><time>2016-12-24T09:28:27Z</time></trkpt><trkpt lat="51.8886426464" lon="39.4836121984"><ele>118.38</ele><time>2016-12-24T09:28:35Z</time></trkpt><trkpt lat="51.8889974523" lon="39.4837419502"><ele>114.53</ele><time>2016-12-24T09:28:45Z</time></trkpt><trkpt lat="51.8892202433" lon="39.4841435272"><ele>112.61</ele><time>2016-12-24T09:28:55Z</time></trkpt><trkpt lat="51.8895660806" lon="39.4839791581"><ele>113.57</ele><time>2016-12-24T09:29:05Z</time></trkpt><trkpt lat="51.8896004464" lon="39.4839468878"><ele>113.57</ele><time>2016-12-24T09:29:06Z</time></trkpt><trkpt lat="51.8899997603" lon="39.4835891481"><ele>113.57</ele><time>2016-12-24T09:29:17Z</time></trkpt><trkpt lat="51.8905613478" lon="39.4828829728"><ele>114.05</ele><time>2016-12-24T09:29:32Z</time></trkpt><trkpt lat="51.8908742443" lon="39.4824646320"><ele>113.57</ele><time>2016-12-24T09:29:41Z</time></trkpt><trkpt lat="51.8913879711" lon="39.4821395818"><ele>112.13</ele><time>2016-12-24T09:29:53Z</time></trkpt><trkpt lat="51.8914288748" lon="39.4821108319"><ele>112.13</ele><time>2016-12-24T09:29:54Z</time></trkpt><trkpt lat="51.8914675992" lon="39.4820737839"><ele>112.13</ele><time>2016-12-24T09:29:55Z</time></trkpt><trkpt lat="51.8915090058" lon="39.4820250012"><ele>112.13</ele><time>2016-12-24T09:29:56Z</time></trkpt><trkpt lat="51.8915467244" lon="39.4819752127"><ele>112.13</ele><time>2016-12-24T09:29:57Z</time></trkpt><trkpt lat="51.8920557573" lon="39.4813223463"><ele>112.61</ele><time>2016-12-24T09:30:11Z</time></trkpt><trkpt lat="51.8921215553" lon="39.4812308159"><ele>113.09</ele><time>2016-12-24T09:30:13Z</time></trkpt><trkpt lat="51.8923657201" lon="39.4807519577"><ele>113.09</ele><time>2016-12-24T09:30:22Z</time></trkpt><trkpt lat="51.8928775191" lon="39.4799332134"><ele>113.09</ele><time>2016-12-24T09:30:38Z</time></trkpt><trkpt lat="51.8929425627" lon="39.4798384141"><ele>113.57</ele><time>2016-12-24T09:30:40Z</time></trkpt><trkpt lat="51.8929770123" lon="39.4797988515"><ele>113.57</ele><time>2016-12-24T09:30:41Z</time></trkpt><trkpt lat="51.8930153176" lon="39.4797682576"><ele>113.57</ele><time>2016-12-24T09:30:42Z</time></trkpt><trkpt lat="51.8930511922" lon="39.4797488116"><ele>113.57</ele><time>2016-12-24T09:30:43Z</time></trkpt><trkpt lat="51.8930882402" lon="39.4797372445"><ele>113.57</ele><time>2016-12-24T09:30:44Z</time></trkpt><trkpt lat="51.8931286409" lon="39.4797360711"><ele>113.09</ele><time>2016-12-24T09:30:45Z</time></trkpt><trkpt lat="51.8931661081" lon="39.4797436148"><ele>113.09</ele><time>2016-12-24T09:30:46Z</time></trkpt><trkpt lat="51.8932002224" lon="39.4797549304"><ele>113.09</ele><time>2016-12-24T09:30:47Z</time></trkpt><trkpt lat="51.8932334986" lon="39.4797670841"><ele>112.61</ele><time>2016-12-24T09:30:48Z</time></trkpt><trkpt lat="51.8932641763" lon="39.4797824230"><ele>112.61</ele><time>2016-12-24T09:30:49Z</time></trkpt><trkpt lat="51.8932992965" lon="39.4798059762"><ele>112.61</ele><time>2016-12-24T09:30:50Z</time></trkpt><trkpt lat="51.8937675934" lon="39.4802881032"><ele>110.69</ele><time>2016-12-24T09:31:04Z</time></trkpt><trkpt lat="51.8939545099" lon="39.4806305040"><ele>110.21</ele><time>2016-12-24T09:31:11Z</time></trkpt><trkpt lat="51.8939857744" lon="39.4806802087"><ele>109.73</ele><time>2016-12-24T09:31:12Z</time></trkpt><trkpt lat="51.8940142728" lon="39.4807363674"><ele>109.25</ele><time>2016-12-24T09:31:13Z</time></trkpt><trkpt lat="51.8943908717" lon="39.4816651661"><ele>109.25</ele><time>2016-12-24T09:31:29Z</time></trkpt><trkpt lat="51.8944704160" lon="39.4818505738"><ele>108.77</ele><time>2016-12-24T09:31:32Z</time></trkpt><trkpt lat="51.8945322745" lon="39.4819560181"><ele>108.77</ele><time>2016-12-24T09:31:34Z</time></trkpt><trkpt lat="51.8946906086" lon="39.4821919687"><ele>109.25</ele><time>2016-12-24T09:31:44Z</time></trkpt><trkpt lat="51.8946978170" lon="39.4822128396"><ele>112.61</ele><time>2016-12-24T09:32:18Z</time></trkpt><trkpt lat="51.8946590088" lon="39.4821968302"><ele>111.17</ele><time>2016-12-24T09:32:37Z</time></trkpt><trkpt lat="51.8946775328" lon="39.4822375663"><ele>112.61</ele><time>2016-12-24T09:33:04Z</time></trkpt><trkpt lat="51.8946636189" lon="39.4821845088"><ele>110.69</ele><time>2016-12-24T09:33:34Z</time></trkpt><trkpt lat="51.8948244676" lon="39.4823757000"><ele>112.61</ele><time>2016-12-24T09:33:46Z</time></trkpt><trkpt lat="51.8951801956" lon="39.4825818110"><ele>115.01</ele><time>2016-12-24T09:33:58Z</time></trkpt><trkpt lat="51.8953087740" lon="39.4825297594"><ele>115.98</ele><time>2016-12-24T09:34:09Z</time></trkpt><trkpt lat="51.8953302316" lon="39.4825095590"><ele>117.90</ele><time>2016-12-24T09:34:39Z</time></trkpt><trkpt lat="51.8953317404" lon="39.4825150073"><ele>120.30</ele><time>2016-12-24T09:35:06Z</time></trkpt><trkpt lat="51.8953272980" lon="39.4825455174"><ele>116.46</ele><time>2016-12-24T09:35:29Z</time></trkpt><trkpt lat="51.8949957099" lon="39.4825138338"><ele>115.50</ele><time>2016-12-24T09:35:40Z</time></trkpt><trkpt lat="51.8948817160" lon="39.4824043661"><ele>115.01</ele><time>2016-12-24T09:35:43Z</time></trkpt><trkpt lat="51.8945360463" lon="39.4821946509"><ele>114.05</ele><time>2016-12-24T09:35:53Z</time></trkpt><trkpt lat="51.8944713380" lon="39.4822470378"><ele>114.05</ele><time>2016-12-24T09:35:55Z</time></trkpt><trkpt lat="51.8942954857" lon="39.4824792165"><ele>114.53</ele><time>2016-12-24T09:36:00Z</time></trkpt><trkpt lat="51.8938501552" lon="39.4834317360"><ele>115.50</ele><time>2016-12-24T09:36:15Z</time></trkpt><trkpt lat="51.8936735485" lon="39.4837289583"><ele>115.50</ele><time>2016-12-24T09:36:20Z</time></trkpt><trkpt lat="51.8935833592" lon="39.4839235861"><ele>116.46</ele><time>2016-12-24T09:36:23Z</time></trkpt><trkpt lat="51.8934950978" lon="39.4842582755"><ele>116.94</ele><time>2016-12-24T09:36:28Z</time></trkpt><trkpt lat="51.8930951972" lon="39.4853311591"><ele>117.90</ele><time>2016-12-24T09:36:44Z</time></trkpt><trkpt lat="51.8930085283" lon="39.4856187422"><ele>117.90</ele><time>2016-12-24T09:36:48Z</time></trkpt><trkpt lat="51.8929931894" lon="39.4856946822"><ele>117.90</ele><time>2016-12-24T09:36:49Z</time></trkpt><trkpt lat="51.8927742541" lon="39.4867658056"><ele>118.38</ele><time>2016-12-24T09:37:03Z</time></trkpt><trkpt lat="51.8927729968" lon="39.4869765267"><ele>118.38</ele><time>2016-12-24T09:37:06Z</time></trkpt><trkpt lat="51.8927703146" lon="39.4870491978"><ele>118.38</ele><time>2016-12-24T09:37:07Z</time></trkpt><trkpt lat="51.8927651178" lon="39.4871266466"><ele>117.90</ele><time>2016-12-24T09:37:08Z</time></trkpt><trkpt lat="51.8927554786" lon="39.4872051850"><ele>117.42</ele><time>2016-12-24T09:37:09Z</time></trkpt><trkpt lat="51.8927411456" lon="39.4872848969"><ele>116.94</ele><time>2016-12-24T09:37:10Z</time></trkpt><trkpt lat="51.8925053626" lon="39.4885214791"><ele>114.05</ele><time>2016-12-24T09:37:25Z</time></trkpt><trkpt lat="51.8922203779" lon="39.4898175728"><ele>113.09</ele><time>2016-12-24T09:37:42Z</time></trkpt><trkpt lat="51.8918946572" lon="39.4914576598"><ele>112.61</ele><time>2016-12-24T09:38:04Z</time></trkpt><trkpt lat="51.8916519172" lon="39.4927951600"><ele>114.53</ele><time>2016-12-24T09:38:22Z</time></trkpt><trkpt lat="51.8913901504" lon="39.4940366037"><ele>114.53</ele><time>2016-12-24T09:38:40Z</time></trkpt><trkpt lat="51.8912032340" lon="39.4951852597"><ele>114.53</ele><time>2016-12-24T09:38:55Z</time></trkpt><trkpt lat="51.8909393717" lon="39.4964808505"><ele>113.57</ele><time>2016-12-24T09:39:11Z</time></trkpt><trkpt lat="51.8907075282" lon="39.4977519661"><ele>114.05</ele><time>2016-12-24T09:39:27Z</time></trkpt><trkpt lat="51.8904639501" lon="39.4990695175"><ele>115.01</ele><time>2016-12-24T09:39:44Z</time></trkpt><trkpt lat="51.8902592640" lon="39.5001130644"><ele>116.94</ele><time>2016-12-24T09:39:59Z</time></trkpt><trkpt lat="51.8900306895" lon="39.5011707768"><ele>116.94</ele><time>2016-12-24T09:40:14Z</time></trkpt><trkpt lat="51.8898226507" lon="39.5021470170"><ele>119.34</ele><time>2016-12-24T09:40:28Z</time></trkpt><trkpt lat="51.8896016199" lon="39.5034315437"><ele>118.86</ele><time>2016-12-24T09:40:45Z</time></trkpt><trkpt lat="51.8893538509" lon="39.5047661103"><ele>120.78</ele><time>2016-12-24T09:41:03Z</time></trkpt><trkpt lat="51.8892085087" lon="39.5055556018"><ele>121.26</ele><time>2016-12-24T09:41:16Z</time></trkpt><trkpt lat="51.8889097776" lon="39.5070557948"><ele>123.19</ele><time>2016-12-24T09:41:39Z</time></trkpt><trkpt lat="51.8887065165" lon="39.5082416665"><ele>123.67</ele><time>2016-12-24T09:41:57Z</time></trkpt><trkpt lat="51.8884758465" lon="39.5093916636"><ele>126.55</ele><time>2016-12-24T09:42:15Z</time></trkpt><trkpt lat="51.8883175962" lon="39.5102758706"><ele>125.59</ele><time>2016-12-24T09:42:31Z</time></trkpt><trkpt lat="51.8881472759" lon="39.5111982990"><ele>126.55</ele><time>2016-12-24T09:42:46Z</time></trkpt><trkpt lat="51.8879856728" lon="39.5121344738"><ele>127.51</ele><time>2016-12-24T09:43:00Z</time></trkpt><trkpt lat="51.8877435196" lon="39.5132452436"><ele>127.99</ele><time>2016-12-24T09:43:18Z</time></trkpt><trkpt lat="51.8875364028" lon="39.5143643115"><ele>129.43</ele><time>2016-12-24T09:43:34Z</time></trkpt><trkpt lat="51.8873390928" lon="39.5154003147"><ele>128.47</ele><time>2016-12-24T09:43:48Z</time></trkpt><trkpt lat="51.8871167209" lon="39.5165749546"><ele>129.92</ele><time>2016-12-24T09:44:04Z</time></trkpt><trkpt lat="51.8869070057" lon="39.5176573936"><ele>130.40</ele><time>2016-12-24T09:44:21Z</time></trkpt><trkpt lat="51.8867297284" lon="39.5185410138"><ele>130.88</ele><time>2016-12-24T09:44:34Z</time></trkpt><trkpt lat="51.8865296524" lon="39.5196990576"><ele>131.84</ele><time>2016-12-24T09:44:51Z</time></trkpt><trkpt lat="51.8863142375" lon="39.5206920616"><ele>134.24</ele><time>2016-12-24T09:45:08Z</time></trkpt><trkpt lat="51.8861144967" lon="39.5217074454"><ele>134.24</ele><time>2016-12-24T09:45:25Z</time></trkpt><trkpt lat="51.8860963918" lon="39.5220585633"><ele>132.80</ele><time>2016-12-24T09:45:30Z</time></trkpt><trkpt lat="51.8860865012" lon="39.5221277140"><ele>132.80</ele><time>2016-12-24T09:45:31Z</time></trkpt><trkpt lat="51.8860737607" lon="39.5221860521"><ele>132.80</ele><time>2016-12-24T09:45:32Z</time></trkpt><trkpt lat="51.8860585894" lon="39.5222401153"><ele>132.80</ele><time>2016-12-24T09:45:33Z</time></trkpt><trkpt lat="51.8860413227" lon="39.5222976990"><ele>132.80</ele><time>2016-12-24T09:45:34Z</time></trkpt><trkpt lat="51.8858667277" lon="39.5230410900"><ele>135.68</ele><time>2016-12-24T09:45:48Z</time></trkpt><trkpt lat="51.8857064657" lon="39.5239797793"><ele>135.68</ele><time>2016-12-24T09:46:03Z</time></trkpt><trkpt lat="51.8856900372" lon="39.5241666958"><ele>135.20</ele><time>2016-12-24T09:46:06Z</time></trkpt><trkpt lat="51.8856862653" lon="39.5248125214"><ele>133.76</ele><time>2016-12-24T09:46:15Z</time></trkpt><trkpt lat="51.8856127560" lon="39.5257378835"><ele>134.72</ele><time>2016-12-24T09:46:28Z</time></trkpt><trkpt lat="51.8855455332" lon="39.5262715593"><ele>134.24</ele><time>2016-12-24T09:46:36Z</time></trkpt><trkpt lat="51.8855437730" lon="39.5263452362"><ele>134.24</ele><time>2016-12-24T09:46:37Z</time></trkpt><trkpt lat="51.8855361454" lon="39.5264236070"><ele>134.24</ele><time>2016-12-24T09:46:38Z</time></trkpt><trkpt lat="51.8855241593" lon="39.5264995471"><ele>134.24</ele><time>2016-12-24T09:46:39Z</time></trkpt><trkpt lat="51.8855067249" lon="39.5265757386"><ele>133.76</ele><time>2016-12-24T09:46:40Z</time></trkpt><trkpt lat="51.8854860216" lon="39.5266500022"><ele>133.76</ele><time>2016-12-24T09:46:41Z</time></trkpt><trkpt lat="51.8853846006" lon="39.5269939117"><ele>135.20</ele><time>2016-12-24T09:46:46Z</time></trkpt><trkpt lat="51.8852918129" lon="39.5274330396"><ele>135.68</ele><time>2016-12-24T09:46:52Z</time></trkpt><trkpt lat="51.8852777313" lon="39.5274988376"><ele>135.68</ele><time>2016-12-24T09:46:53Z</time></trkpt><trkpt lat="51.8852363247" lon="39.5276321098"><ele>135.68</ele><time>2016-12-24T09:46:55Z</time></trkpt><trkpt lat="51.8849685229" lon="39.5282436535"><ele>137.13</ele><time>2016-12-24T09:47:06Z</time></trkpt><trkpt lat="51.8848247733" lon="39.5288621541"><ele>138.09</ele><time>2016-12-24T09:47:17Z</time></trkpt><trkpt lat="51.8845930137" lon="39.5299357083"><ele>139.05</ele><time>2016-12-24T09:47:33Z</time></trkpt><trkpt lat="51.8843709771" lon="39.5309606474"><ele>138.57</ele><time>2016-12-24T09:47:48Z</time></trkpt><trkpt lat="51.8842875771" lon="39.5312702749"><ele>137.61</ele><time>2016-12-24T09:47:59Z</time></trkpt><trkpt lat="51.8842931092" lon="39.5312807523"><ele>135.20</ele><time>2016-12-24T09:48:28Z</time></trkpt><trkpt lat="51.8842971325" lon="39.5312838536"><ele>135.68</ele><time>2016-12-24T09:48:43Z</time></trkpt><trkpt lat="51.8842927739" lon="39.5313088316"><ele>135.68</ele><time>2016-12-24T09:48:44Z</time></trkpt><trkpt lat="51.8841821328" lon="39.5318410825"><ele>135.68</ele><time>2016-12-24T09:48:55Z</time></trkpt><trkpt lat="51.8840113934" lon="39.5328021515"><ele>133.28</ele><time>2016-12-24T09:49:11Z</time></trkpt><trkpt lat="51.8839077931" lon="39.5333532616"><ele>135.20</ele><time>2016-12-24T09:49:23Z</time></trkpt><trkpt lat="51.8837626185" lon="39.5341324434"><ele>132.32</ele><time>2016-12-24T09:49:37Z</time></trkpt><trkpt lat="51.8836824875" lon="39.5346501935"><ele>132.32</ele><time>2016-12-24T09:49:45Z</time></trkpt><trkpt lat="51.8835263327" lon="39.5353641640"><ele>133.28</ele><time>2016-12-24T09:49:56Z</time></trkpt><trkpt lat="51.8834248278" lon="39.5358902123"><ele>133.76</ele><time>2016-12-24T09:50:05Z</time></trkpt><trkpt lat="51.8832969200" lon="39.5365871675"><ele>133.76</ele><time>2016-12-24T09:50:16Z</time></trkpt><trkpt lat="51.8832180463" lon="39.5369951986"><ele>132.80</ele><time>2016-12-24T09:50:26Z</time></trkpt><trkpt lat="51.8831235822" lon="39.5375239290"><ele>132.32</ele><time>2016-12-24T09:50:38Z</time></trkpt><trkpt lat="51.8829855323" lon="39.5383025240"><ele>133.28</ele><time>2016-12-24T09:50:52Z</time></trkpt><trkpt lat="51.8829170521" lon="39.5386875886"><ele>133.76</ele><time>2016-12-24T09:51:02Z</time></trkpt><trkpt lat="51.8827000447" lon="39.5397898927"><ele>135.20</ele><time>2016-12-24T09:51:22Z</time></trkpt><trkpt lat="51.8825562112" lon="39.5405902807"><ele>136.16</ele><time>2016-12-24T09:51:37Z</time></trkpt><trkpt lat="51.8824711349" lon="39.5410558954"><ele>136.64</ele><time>2016-12-24T09:51:46Z</time></trkpt><trkpt lat="51.8823908363" lon="39.5414108690"><ele>138.57</ele><time>2016-12-24T09:51:56Z</time></trkpt><trkpt lat="51.8822568934" lon="39.5420235023"><ele>139.05</ele><time>2016-12-24T09:52:08Z</time></trkpt><trkpt lat="51.8821143173" lon="39.5426333696"><ele>140.01</ele><time>2016-12-24T09:52:19Z</time></trkpt><trkpt lat="51.8820009939" lon="39.5433242898"><ele>140.01</ele><time>2016-12-24T09:52:33Z</time></trkpt><trkpt lat="51.8818543106" lon="39.5441140328"><ele>140.97</ele><time>2016-12-24T09:52:51Z</time></trkpt><trkpt lat="51.8817026820" lon="39.5448530652"><ele>138.57</ele><time>2016-12-24T09:53:06Z</time></trkpt><trkpt lat="51.8815591000" lon="39.5455411356"><ele>140.49</ele><time>2016-12-24T09:53:20Z</time></trkpt><trkpt lat="51.8814187031" lon="39.5462080836"><ele>139.05</ele><time>2016-12-24T09:53:33Z</time></trkpt><trkpt lat="51.8812799826" lon="39.5468769595"><ele>140.01</ele><time>2016-12-24T09:53:46Z</time></trkpt><trkpt lat="51.8811335508" lon="39.5477175806"><ele>140.01</ele><time>2016-12-24T09:54:02Z</time></trkpt><trkpt lat="51.8810077384" lon="39.5484520029"><ele>141.93</ele><time>2016-12-24T09:54:15Z</time></trkpt><trkpt lat="51.8808433693" lon="39.5494016726"><ele>139.05</ele><time>2016-12-24T09:54:30Z</time></trkpt><trkpt lat="51.8806902319" lon="39.5502054133"><ele>139.05</ele><time>2016-12-24T09:54:44Z</time></trkpt><trkpt lat="51.8805561215" lon="39.5509359799"><ele>138.09</ele><time>2016-12-24T09:54:57Z</time></trkpt><trkpt lat="51.8804722186" lon="39.5513771195"><ele>138.09</ele><time>2016-12-24T09:55:08Z</time></trkpt><trkpt lat="51.8804606516" lon="39.5514590107"><ele>138.57</ele><time>2016-12-24T09:55:14Z</time></trkpt><trkpt lat="51.8804521859" lon="39.5514888503"><ele>138.57</ele><time>2016-12-24T09:55:15Z</time></trkpt><trkpt lat="51.8804445583" lon="39.5515216235"><ele>138.57</ele><time>2016-12-24T09:55:16Z</time></trkpt><trkpt lat="51.8804354221" lon="39.5515568275"><ele>138.57</ele><time>2016-12-24T09:55:17Z</time></trkpt><trkpt lat="51.8804277107" lon="39.5515938755"><ele>138.57</ele><time>2016-12-24T09:55:18Z</time></trkpt><trkpt lat="51.8804171495" lon="39.5516311750"><ele>138.57</ele><time>2016-12-24T09:55:19Z</time></trkpt><trkpt lat="51.8804070912" lon="39.5516713243"><ele>138.09</ele><time>2016-12-24T09:55:20Z</time></trkpt><trkpt lat="51.8803987093" lon="39.5517127309"><ele>138.57</ele><time>2016-12-24T09:55:21Z</time></trkpt><trkpt lat="51.8803894054" lon="39.5517542213"><ele>138.57</ele><time>2016-12-24T09:55:22Z</time></trkpt><trkpt lat="51.8803808559" lon="39.5517959632"><ele>138.57</ele><time>2016-12-24T09:55:23Z</time></trkpt><trkpt lat="51.8803701270" lon="39.5518391300"><ele>138.09</ele><time>2016-12-24T09:55:24Z</time></trkpt><trkpt lat="51.8802370224" lon="39.5524762385"><ele>136.16</ele><time>2016-12-24T09:55:38Z</time></trkpt><trkpt lat="51.8801226933" lon="39.5530161168"><ele>135.20</ele><time>2016-12-24T09:55:50Z</time></trkpt><trkpt lat="51.8799993116" lon="39.5536564104"><ele>136.16</ele><time>2016-12-24T09:56:03Z</time></trkpt><trkpt lat="51.8798875809" lon="39.5543224365"><ele>136.64</ele><time>2016-12-24T09:56:16Z</time></trkpt><trkpt lat="51.8797867466" lon="39.5548472274"><ele>136.64</ele><time>2016-12-24T09:56:27Z</time></trkpt><trkpt lat="51.8796810508" lon="39.5553731918"><ele>137.61</ele><time>2016-12-24T09:56:38Z</time></trkpt><trkpt lat="51.8796067871" lon="39.5558480266"><ele>138.09</ele><time>2016-12-24T09:56:49Z</time></trkpt><trkpt lat="51.8794878479" lon="39.5565349236"><ele>138.57</ele><time>2016-12-24T09:57:02Z</time></trkpt><trkpt lat="51.8793605268" lon="39.5571848564"><ele>140.49</ele><time>2016-12-24T09:57:14Z</time></trkpt><trkpt lat="51.8792423420" lon="39.5578047819"><ele>141.45</ele><time>2016-12-24T09:57:26Z</time></trkpt><trkpt lat="51.8790971674" lon="39.5586287230"><ele>141.93</ele><time>2016-12-24T09:57:40Z</time></trkpt><trkpt lat="51.8789540883" lon="39.5593703538"><ele>142.41</ele><time>2016-12-24T09:57:53Z</time></trkpt><trkpt lat="51.8788621388" lon="39.5600510482"><ele>142.41</ele><time>2016-12-24T09:58:05Z</time></trkpt><trkpt lat="51.8789689243" lon="39.5608091075"><ele>140.49</ele><time>2016-12-24T09:58:19Z</time></trkpt><trkpt lat="51.8791347183" lon="39.5614618901"><ele>139.53</ele><time>2016-12-24T09:58:34Z</time></trkpt><trkpt lat="51.8793730158" lon="39.5617486350"><ele>139.53</ele><time>2016-12-24T09:58:44Z</time></trkpt><trkpt lat="51.8798834737" lon="39.5620073844"><ele>138.09</ele><time>2016-12-24T09:58:57Z</time></trkpt><trkpt lat="51.8803118728" lon="39.5622381382"><ele>140.97</ele><time>2016-12-24T09:59:09Z</time></trkpt><trkpt lat="51.8808486499" lon="39.5624838118"><ele>143.37</ele><time>2016-12-24T09:59:23Z</time></trkpt><trkpt lat="51.8811625522" lon="39.5626388770"><ele>145.30</ele><time>2016-12-24T09:59:31Z</time></trkpt><trkpt lat="51.8812061381" lon="39.5626600832"><ele>145.30</ele><time>2016-12-24T09:59:32Z</time></trkpt><trkpt lat="51.8812493887" lon="39.5626777690"><ele>145.78</ele><time>2016-12-24T09:59:33Z</time></trkpt><trkpt lat="51.8817940447" lon="39.5629372727"><ele>147.22</ele><time>2016-12-24T09:59:45Z</time></trkpt><trkpt lat="51.8823713902" lon="39.5632295497"><ele>146.74</ele><time>2016-12-24T09:59:59Z</time></trkpt><trkpt lat="51.8828490749" lon="39.5634395164"><ele>146.74</ele><time>2016-12-24T10:00:12Z</time></trkpt><trkpt lat="51.8830970116" lon="39.5635751355"><ele>147.22</ele><time>2016-12-24T10:00:24Z</time></trkpt><trkpt lat="51.8830884621" lon="39.5635773987"><ele>146.26</ele><time>2016-12-24T10:00:54Z</time></trkpt><trkpt lat="51.8831214029" lon="39.5635893848"><ele>145.78</ele><time>2016-12-24T10:01:26Z</time></trkpt><trkpt lat="51.8831188045" lon="39.5636053104"><ele>145.78</ele><time>2016-12-24T10:01:27Z</time></trkpt><trkpt lat="51.8830059841" lon="39.5641106553"><ele>146.26</ele><time>2016-12-24T10:01:39Z</time></trkpt><trkpt lat="51.8828120269" lon="39.5648683794"><ele>147.22</ele><time>2016-12-24T10:01:53Z</time></trkpt><trkpt lat="51.8827028107" lon="39.5655924082"><ele>148.66</ele><time>2016-12-24T10:02:05Z</time></trkpt><trkpt lat="51.8825563788" lon="39.5662855078"><ele>149.14</ele><time>2016-12-24T10:02:18Z</time></trkpt><trkpt lat="51.8825178221" lon="39.5666471031"><ele>150.10</ele><time>2016-12-24T10:02:27Z</time></trkpt><trkpt lat="51.8824091088" lon="39.5673203375"><ele>151.54</ele><time>2016-12-24T10:02:39Z</time></trkpt><trkpt lat="51.8822587375" lon="39.5680335537"><ele>153.47</ele><time>2016-12-24T10:02:52Z</time></trkpt><trkpt lat="51.8822153192" lon="39.5682944823"><ele>155.39</ele><time>2016-12-24T10:02:57Z</time></trkpt><trkpt lat="51.8822047580" lon="39.5683607832"><ele>155.87</ele><time>2016-12-24T10:02:58Z</time></trkpt><trkpt lat="51.8821955379" lon="39.5684171095"><ele>155.87</ele><time>2016-12-24T10:02:59Z</time></trkpt><trkpt lat="51.8821868207" lon="39.5684707537"><ele>156.35</ele><time>2016-12-24T10:03:00Z</time></trkpt><trkpt lat="51.8821771815" lon="39.5685243979"><ele>156.35</ele><time>2016-12-24T10:03:01Z</time></trkpt><trkpt lat="51.8820584100" lon="39.5691801980"><ele>154.91</ele><time>2016-12-24T10:03:12Z</time></trkpt><trkpt lat="51.8818662968" lon="39.5700591244"><ele>156.35</ele><time>2016-12-24T10:03:28Z</time></trkpt><trkpt lat="51.8817038555" lon="39.5709274895"><ele>155.39</ele><time>2016-12-24T10:03:43Z</time></trkpt><trkpt lat="51.8815910351" lon="39.5717123710"><ele>155.39</ele><time>2016-12-24T10:03:56Z</time></trkpt><trkpt lat="51.8813940603" lon="39.5727435127"><ele>156.83</ele><time>2016-12-24T10:04:13Z</time></trkpt><trkpt lat="51.8812253326" lon="39.5737355109"><ele>156.35</ele><time>2016-12-24T10:04:30Z</time></trkpt><trkpt lat="51.8810012005" lon="39.5746146888"><ele>155.39</ele><time>2016-12-24T10:04:46Z</time></trkpt><trkpt lat="51.8807893060" lon="39.5754942019"><ele>154.43</ele><time>2016-12-24T10:05:02Z</time></trkpt><trkpt lat="51.8806158844" lon="39.5764314663"><ele>154.43</ele><time>2016-12-24T10:05:18Z</time></trkpt><trkpt lat="51.8804434687" lon="39.5772885159"><ele>152.51</ele><time>2016-12-24T10:05:32Z</time></trkpt><trkpt lat="51.8803029880" lon="39.5781407040"><ele>152.99</ele><time>2016-12-24T10:05:45Z</time></trkpt><trkpt lat="51.8800529558" lon="39.5794843230"><ele>153.47</ele><time>2016-12-24T10:06:03Z</time></trkpt><trkpt lat="51.8797880039" lon="39.5809642319"><ele>153.47</ele><time>2016-12-24T10:06:22Z</time></trkpt><trkpt lat="51.8795814738" lon="39.5820976328"><ele>153.95</ele><time>2016-12-24T10:06:38Z</time></trkpt><trkpt lat="51.8793512229" lon="39.5833102427"><ele>155.87</ele><time>2016-12-24T10:06:57Z</time></trkpt><trkpt lat="51.8791349698" lon="39.5844073500"><ele>155.87</ele><time>2016-12-24T10:07:13Z</time></trkpt><trkpt lat="51.8788758852" lon="39.5857967343"><ele>155.87</ele><time>2016-12-24T10:07:33Z</time></trkpt><trkpt lat="51.8786159623" lon="39.5872087497"><ele>156.35</ele><time>2016-12-24T10:07:53Z</time></trkpt><trkpt lat="51.8784379307" lon="39.5881906897"><ele>156.83</ele><time>2016-12-24T10:08:10Z</time></trkpt><trkpt lat="51.8782681134" lon="39.5883416478"><ele>157.31</ele><time>2016-12-24T10:08:18Z</time></trkpt><trkpt lat="51.8782445602" lon="39.5883341879"><ele>157.31</ele><time>2016-12-24T10:08:19Z</time></trkpt><trkpt lat="51.8778151553" lon="39.5880115684"><ele>157.79</ele><time>2016-12-24T10:08:34Z</time></trkpt><trkpt lat="51.8772977404" lon="39.5876165293"><ele>159.72</ele><time>2016-12-24T10:08:50Z</time></trkpt><trkpt lat="51.8771337904" lon="39.5875002723"><ele>159.24</ele><time>2016-12-24T10:08:55Z</time></trkpt><trkpt lat="51.8770984188" lon="39.5874649845"><ele>159.24</ele><time>2016-12-24T10:08:56Z</time></trkpt><trkpt lat="51.8770633824" lon="39.5874251705"><ele>159.24</ele><time>2016-12-24T10:08:57Z</time></trkpt><trkpt lat="51.8764290400" lon="39.5867821109"><ele>158.27</ele><time>2016-12-24T10:09:14Z</time></trkpt><trkpt lat="51.8763121124" lon="39.5867112838"><ele>158.27</ele><time>2016-12-24T10:09:17Z</time></trkpt><trkpt lat="51.8762735557" lon="39.5866910834"><ele>158.27</ele><time>2016-12-24T10:09:18Z</time></trkpt><trkpt lat="51.8757283967" lon="39.5861807093"><ele>156.83</ele><time>2016-12-24T10:09:33Z</time></trkpt><trkpt lat="51.8751085550" lon="39.5855181199"><ele>155.39</ele><time>2016-12-24T10:09:50Z</time></trkpt><trkpt lat="51.8746262603" lon="39.5853250008"><ele>154.43</ele><time>2016-12-24T10:10:04Z</time></trkpt><trkpt lat="51.8742029741" lon="39.5857231412"><ele>153.95</ele><time>2016-12-24T10:10:19Z</time></trkpt><trkpt lat="51.8736297358" lon="39.5853124280"><ele>154.43</ele><time>2016-12-24T10:10:36Z</time></trkpt><trkpt lat="51.8729348760" lon="39.5847867150"><ele>153.47</ele><time>2016-12-24T10:10:55Z</time></trkpt><trkpt lat="51.8724439479" lon="39.5843848865"><ele>155.39</ele><time>2016-12-24T10:11:09Z</time></trkpt><trkpt lat="51.8717077654" lon="39.5840110537"><ele>155.39</ele><time>2016-12-24T10:11:28Z</time></trkpt><trkpt lat="51.8712377921" lon="39.5837457664"><ele>154.91</ele><time>2016-12-24T10:11:43Z</time></trkpt><trkpt lat="51.8709978182" lon="39.5832811575"><ele>153.95</ele><time>2016-12-24T10:11:55Z</time></trkpt><trkpt lat="51.8707883544" lon="39.5830623060"><ele>154.91</ele><time>2016-12-24T10:12:05Z</time></trkpt><trkpt lat="51.8706310261" lon="39.5829748828"><ele>155.39</ele><time>2016-12-24T10:12:17Z</time></trkpt><trkpt lat="51.8705679104" lon="39.5830032974"><ele>154.91</ele><time>2016-12-24T10:12:32Z</time></trkpt><trkpt lat="51.8705598637" lon="39.5830470510"><ele>155.39</ele><time>2016-12-24T10:13:09Z</time></trkpt><trkpt lat="51.8705588579" lon="39.5830253419"><ele>154.91</ele><time>2016-12-24T10:13:42Z</time></trkpt><trkpt lat="51.8705743644" lon="39.5829877071"><ele>155.87</ele><time>2016-12-24T10:14:18Z</time></trkpt><trkpt lat="51.8705674075" lon="39.5829965081"><ele>156.83</ele><time>2016-12-24T10:14:57Z</time></trkpt><trkpt lat="51.8705487158" lon="39.5830281917"><ele>151.06</ele><time>2016-12-24T10:15:38Z</time></trkpt><trkpt lat="51.8705526553" lon="39.5829770621"><ele>154.43</ele><time>2016-12-24T10:16:26Z</time></trkpt><trkpt lat="51.8705511466" lon="39.5830336399"><ele>157.31</ele><time>2016-12-24T10:17:08Z</time></trkpt><trkpt lat="51.8705690000" lon="39.5830090810"><ele>156.35</ele><time>2016-12-24T10:17:41Z</time></trkpt><trkpt lat="51.8705502246" lon="39.5829774812"><ele>154.43</ele><time>2016-12-24T10:18:24Z</time></trkpt><trkpt lat="51.8705540802" lon="39.5830192231"><ele>154.43</ele><time>2016-12-24T10:18:59Z</time></trkpt><trkpt lat="51.8705660664" lon="39.5830253419"><ele>156.35</ele><time>2016-12-24T10:19:28Z</time></trkpt><trkpt lat="51.8705631327" lon="39.5830338914"><ele>155.87</ele><time>2016-12-24T10:20:01Z</time></trkpt><trkpt lat="51.8705386575" lon="39.5829779003"><ele>154.91</ele><time>2016-12-24T10:20:41Z</time></trkpt><trkpt lat="51.8705537450" lon="39.5829969272"><ele>155.87</ele><time>2016-12-24T10:21:15Z</time></trkpt><trkpt lat="51.8705530744" lon="39.5829777326"><ele>156.35</ele><time>2016-12-24T10:21:57Z</time></trkpt><trkpt lat="51.8705222290" lon="39.5829795767"><ele>157.31</ele><time>2016-12-24T10:22:29Z</time></trkpt><trkpt lat="51.8705399148" lon="39.5830000285"><ele>156.83</ele><time>2016-12-24T10:23:00Z</time></trkpt><trkpt lat="51.8705317006" lon="39.5829773974"><ele>157.79</ele><time>2016-12-24T10:23:36Z</time></trkpt><trkpt lat="51.8705574330" lon="39.5829991903"><ele>154.91</ele><time>2016-12-24T10:24:25Z</time></trkpt><trkpt lat="51.8705414236" lon="39.5829326380"><ele>154.43</ele><time>2016-12-24T10:25:01Z</time></trkpt><trkpt lat="51.8705682456" lon="39.5829834323"><ele>155.39</ele><time>2016-12-24T10:25:39Z</time></trkpt><trkpt lat="51.8705663178" lon="39.5829887129"><ele>153.95</ele><time>2016-12-24T10:26:16Z</time></trkpt><trkpt lat="51.8705595285" lon="39.5830022078"><ele>156.35</ele><time>2016-12-24T10:26:54Z</time></trkpt><trkpt lat="51.8705906253" lon="39.5829742122"><ele>155.39</ele><time>2016-12-24T10:27:40Z</time></trkpt><trkpt lat="51.8705616239" lon="39.5829963405"><ele>151.54</ele><time>2016-12-24T10:28:25Z</time></trkpt><trkpt lat="51.8705705926" lon="39.5829777326"><ele>156.83</ele><time>2016-12-24T10:29:05Z</time></trkpt><trkpt lat="51.8705783878" lon="39.5830000285"><ele>157.31</ele><time>2016-12-24T10:29:29Z</time></trkpt><trkpt lat="51.8705434352" lon="39.5831457898"><ele>157.79</ele><time>2016-12-24T10:29:42Z</time></trkpt><trkpt lat="51.8705135118" lon="39.5832338836"><ele>156.35</ele><time>2016-12-24T10:29:49Z</time></trkpt><trkpt lat="51.8704671599" lon="39.5834231470"><ele>156.83</ele><time>2016-12-24T10:30:05Z</time></trkpt><trkpt lat="51.8704052176" lon="39.5835127495"><ele>155.39</ele><time>2016-12-24T10:30:18Z</time></trkpt><trkpt lat="51.8703953270" lon="39.5835159346"><ele>155.39</ele><time>2016-12-24T10:30:19Z</time></trkpt><trkpt lat="51.8703783955" lon="39.5835031103"><ele>154.91</ele><time>2016-12-24T10:30:25Z</time></trkpt><trkpt lat="51.8700862862" lon="39.5833399985"><ele>153.95</ele><time>2016-12-24T10:30:40Z</time></trkpt><trkpt lat="51.8697310612" lon="39.5831478015"><ele>153.47</ele><time>2016-12-24T10:30:51Z</time></trkpt><trkpt lat="51.8692641892" lon="39.5829386730"><ele>152.99</ele><time>2016-12-24T10:31:05Z</time></trkpt><trkpt lat="51.8686207943" lon="39.5826764032"><ele>153.47</ele><time>2016-12-24T10:31:22Z</time></trkpt><trkpt lat="51.8682991806" lon="39.5825604815"><ele>153.47</ele><time>2016-12-24T10:31:30Z</time></trkpt><trkpt lat="51.8682633061" lon="39.5825410355"><ele>153.47</ele><time>2016-12-24T10:31:31Z</time></trkpt><trkpt lat="51.8677887227" lon="39.5823790971"><ele>153.95</ele><time>2016-12-24T10:31:45Z</time></trkpt><trkpt lat="51.8670515344" lon="39.5821698010"><ele>152.99</ele><time>2016-12-24T10:32:04Z</time></trkpt><trkpt lat="51.8662431836" lon="39.5820392109"><ele>152.99</ele><time>2016-12-24T10:32:23Z</time></trkpt><trkpt lat="51.8655105215" lon="39.5819182601"><ele>152.99</ele><time>2016-12-24T10:32:39Z</time></trkpt><trkpt lat="51.8644568324" lon="39.5817087963"><ele>154.43</ele><time>2016-12-24T10:33:00Z</time></trkpt><trkpt lat="51.8634815142" lon="39.5815229695"><ele>153.95</ele><time>2016-12-24T10:33:19Z</time></trkpt><trkpt lat="51.8625906017" lon="39.5813596062"><ele>153.95</ele><time>2016-12-24T10:33:37Z</time></trkpt><trkpt lat="51.8617584463" lon="39.5812493004"><ele>152.99</ele><time>2016-12-24T10:33:52Z</time></trkpt><trkpt lat="51.8608490936" lon="39.5811076462"><ele>152.03</ele><time>2016-12-24T10:34:09Z</time></trkpt><trkpt lat="51.8598768767" lon="39.5809864439"><ele>151.54</ele><time>2016-12-24T10:34:28Z</time></trkpt><trkpt lat="51.8591113575" lon="39.5808099210"><ele>152.03</ele><time>2016-12-24T10:34:43Z</time></trkpt><trkpt lat="51.8580840714" lon="39.5806436241"><ele>151.54</ele><time>2016-12-24T10:35:03Z</time></trkpt><trkpt lat="51.8571231700" lon="39.5804896485"><ele>151.54</ele><time>2016-12-24T10:35:22Z</time></trkpt><trkpt lat="51.8560760189" lon="39.5802816935"><ele>152.03</ele><time>2016-12-24T10:35:43Z</time></trkpt><trkpt lat="51.8550454639" lon="39.5801014826"><ele>152.51</ele><time>2016-12-24T10:36:04Z</time></trkpt><trkpt lat="51.8540109694" lon="39.5799550507"><ele>154.43</ele><time>2016-12-24T10:36:25Z</time></trkpt><trkpt lat="51.8529703561" lon="39.5798095409"><ele>154.91</ele><time>2016-12-24T10:36:46Z</time></trkpt><trkpt lat="51.8521009851" lon="39.5796624385"><ele>155.87</ele><time>2016-12-24T10:37:03Z</time></trkpt><trkpt lat="51.8511559255" lon="39.5795084629"><ele>156.83</ele><time>2016-12-24T10:37:22Z</time></trkpt><trkpt lat="51.8502126262" lon="39.5793145895"><ele>159.24</ele><time>2016-12-24T10:37:41Z</time></trkpt><trkpt lat="51.8498778529" lon="39.5792527311"><ele>159.24</ele><time>2016-12-24T10:37:49Z</time></trkpt><trkpt lat="51.8495748471" lon="39.5791679900"><ele>158.27</ele><time>2016-12-24T10:37:58Z</time></trkpt><trkpt lat="51.8495569099" lon="39.5791707560"><ele>158.27</ele><time>2016-12-24T10:38:09Z</time></trkpt><trkpt lat="51.8495417386" lon="39.5791705884"><ele>158.27</ele><time>2016-12-24T10:38:10Z</time></trkpt><trkpt lat="51.8491614517" lon="39.5790985040"><ele>159.72</ele><time>2016-12-24T10:38:21Z</time></trkpt><trkpt lat="51.8482354190" lon="39.5789428521"><ele>159.72</ele><time>2016-12-24T10:38:41Z</time></trkpt><trkpt lat="51.8475085404" lon="39.5788267627"><ele>160.20</ele><time>2016-12-24T10:38:57Z</time></trkpt><trkpt lat="51.8467006925" lon="39.5786949154"><ele>161.16</ele><time>2016-12-24T10:39:15Z</time></trkpt><trkpt lat="51.8457425572" lon="39.5785497408"><ele>160.68</ele><time>2016-12-24T10:39:33Z</time></trkpt><trkpt lat="51.8451943807" lon="39.5784188155"><ele>161.16</ele><time>2016-12-24T10:39:43Z</time></trkpt><trkpt lat="51.8442482315" lon="39.5782902371"><ele>159.24</ele><time>2016-12-24T10:40:00Z</time></trkpt><trkpt lat="51.8433241267" lon="39.5781637542"><ele>160.68</ele><time>2016-12-24T10:40:16Z</time></trkpt><trkpt lat="51.8422841839" lon="39.5779935177"><ele>159.72</ele><time>2016-12-24T10:40:36Z</time></trkpt><trkpt lat="51.8413112126" lon="39.5778506901"><ele>158.75</ele><time>2016-12-24T10:40:53Z</time></trkpt><trkpt lat="51.8401431944" lon="39.5776355267"><ele>157.79</ele><time>2016-12-24T10:41:11Z</time></trkpt><trkpt lat="51.8389816303" lon="39.5774605963"><ele>157.79</ele><time>2016-12-24T10:41:29Z</time></trkpt><trkpt lat="51.8380975910" lon="39.5773321018"><ele>156.83</ele><time>2016-12-24T10:41:44Z</time></trkpt><trkpt lat="51.8374966923" lon="39.5772441756"><ele>156.35</ele><time>2016-12-24T10:41:54Z</time></trkpt><trkpt lat="51.8365697376" lon="39.5770169422"><ele>156.83</ele><time>2016-12-24T10:42:10Z</time></trkpt><trkpt lat="51.8355200719" lon="39.5768650621"><ele>156.35</ele><time>2016-12-24T10:42:29Z</time></trkpt><trkpt lat="51.8347712327" lon="39.5767546725"><ele>155.87</ele><time>2016-12-24T10:42:44Z</time></trkpt><trkpt lat="51.8340068869" lon="39.5766239148"><ele>156.35</ele><time>2016-12-24T10:43:00Z</time></trkpt><trkpt lat="51.8331769109" lon="39.5764753874"><ele>156.83</ele><time>2016-12-24T10:43:18Z</time></trkpt><trkpt lat="51.8321829848" lon="39.5763241779"><ele>156.83</ele><time>2016-12-24T10:43:39Z</time></trkpt><trkpt lat="51.8314579502" lon="39.5761967730"><ele>156.83</ele><time>2016-12-24T10:43:55Z</time></trkpt><trkpt lat="51.8311126158" lon="39.5761304721"><ele>156.83</ele><time>2016-12-24T10:44:03Z</time></trkpt><trkpt lat="51.8306773435" lon="39.5760615729"><ele>158.75</ele><time>2016-12-24T10:44:16Z</time></trkpt><trkpt lat="51.8301248923" lon="39.5762933325"><ele>158.75</ele><time>2016-12-24T10:44:30Z</time></trkpt><trkpt lat="51.8294920586" lon="39.5764938276"><ele>159.24</ele><time>2016-12-24T10:44:45Z</time></trkpt><trkpt lat="51.8292758055" lon="39.5764846914"><ele>159.24</ele><time>2016-12-24T10:44:50Z</time></trkpt><trkpt lat="51.8292326387" lon="39.5764936600"><ele>159.24</ele><time>2016-12-24T10:44:51Z</time></trkpt><trkpt lat="51.8291921541" lon="39.5764940791"><ele>159.24</ele><time>2016-12-24T10:44:52Z</time></trkpt><trkpt lat="51.8291498255" lon="39.5764757227"><ele>159.24</ele><time>2016-12-24T10:44:53Z</time></trkpt><trkpt lat="51.8291100115" lon="39.5764518343"><ele>159.24</ele><time>2016-12-24T10:44:54Z</time></trkpt><trkpt lat="51.8288888130" lon="39.5763455518"><ele>159.24</ele><time>2016-12-24T10:44:59Z</time></trkpt><trkpt lat="51.8288372643" lon="39.5763405226"><ele>159.24</ele><time>2016-12-24T10:45:00Z</time></trkpt><trkpt lat="51.8287899066" lon="39.5763418637"><ele>159.24</ele><time>2016-12-24T10:45:01Z</time></trkpt><trkpt lat="51.8282315880" lon="39.5762924943"><ele>157.79</ele><time>2016-12-24T10:45:13Z</time></trkpt><trkpt lat="51.8281412311" lon="39.5762730483"><ele>158.27</ele><time>2016-12-24T10:45:15Z</time></trkpt><trkpt lat="51.8280972261" lon="39.5762543567"><ele>158.27</ele><time>2016-12-24T10:45:16Z</time></trkpt><trkpt lat="51.8280550651" lon="39.5762254391"><ele>158.27</ele><time>2016-12-24T10:45:17Z</time></trkpt><trkpt lat="51.8278921209" lon="39.5758781768"><ele>158.27</ele><time>2016-12-24T10:45:24Z</time></trkpt><trkpt lat="51.8278549053" lon="39.5757561363"><ele>158.27</ele><time>2016-12-24T10:45:26Z</time></trkpt><trkpt lat="51.8278257363" lon="39.5756988041"><ele>158.27</ele><time>2016-12-24T10:45:27Z</time></trkpt><trkpt lat="51.8277910352" lon="39.5756556373"><ele>158.27</ele><time>2016-12-24T10:45:28Z</time></trkpt><trkpt lat="51.8277500477" lon="39.5756213553"><ele>158.27</ele><time>2016-12-24T10:45:29Z</time></trkpt><trkpt lat="51.8277041148" lon="39.5755961258"><ele>158.27</ele><time>2016-12-24T10:45:30Z</time></trkpt><trkpt lat="51.8276580144" lon="39.5755791105"><ele>158.27</ele><time>2016-12-24T10:45:31Z</time></trkpt><trkpt lat="51.8276050407" lon="39.5755657833"><ele>158.27</ele><time>2016-12-24T10:45:32Z</time></trkpt><trkpt lat="51.8275520671" lon="39.5755571499"><ele>158.27</ele><time>2016-12-24T10:45:33Z</time></trkpt><trkpt lat="51.8265564647" lon="39.5754142385"><ele>158.75</ele><time>2016-12-24T10:45:51Z</time></trkpt><trkpt lat="51.8256505486" lon="39.5752564073"><ele>158.75</ele><time>2016-12-24T10:46:08Z</time></trkpt><trkpt lat="51.8246586341" lon="39.5751258172"><ele>158.75</ele><time>2016-12-24T10:46:27Z</time></trkpt><trkpt lat="51.8236139975" lon="39.5749356318"><ele>158.27</ele><time>2016-12-24T10:46:47Z</time></trkpt><trkpt lat="51.8225955125" lon="39.5747502241"><ele>159.72</ele><time>2016-12-24T10:47:07Z</time></trkpt><trkpt lat="51.8222572189" lon="39.5746914670"><ele>159.72</ele><time>2016-12-24T10:47:15Z</time></trkpt><trkpt lat="51.8221710529" lon="39.5746929757"><ele>159.72</ele><time>2016-12-24T10:47:17Z</time></trkpt><trkpt lat="51.8214441743" lon="39.5745731145"><ele>160.20</ele><time>2016-12-24T10:47:33Z</time></trkpt><trkpt lat="51.8208208960" lon="39.5744888764"><ele>159.72</ele><time>2016-12-24T10:47:47Z</time></trkpt><trkpt lat="51.8199392874" lon="39.5743566100"><ele>161.16</ele><time>2016-12-24T10:48:06Z</time></trkpt><trkpt lat="51.8191478681" lon="39.5742070768"><ele>159.24</ele><time>2016-12-24T10:48:22Z</time></trkpt><trkpt lat="51.8183169700" lon="39.5741168875"><ele>160.20</ele><time>2016-12-24T10:48:39Z</time></trkpt><trkpt lat="51.8176264688" lon="39.5740020555"><ele>160.20</ele><time>2016-12-24T10:48:55Z</time></trkpt><trkpt lat="51.8169442657" lon="39.5738924202"><ele>160.20</ele><time>2016-12-24T10:49:13Z</time></trkpt><trkpt lat="51.8164893799" lon="39.5738322381"><ele>159.24</ele><time>2016-12-24T10:49:30Z</time></trkpt><trkpt lat="51.8162213266" lon="39.5739495847"><ele>157.79</ele><time>2016-12-24T10:49:41Z</time></trkpt><trkpt lat="51.8161574565" lon="39.5742204040"><ele>157.31</ele><time>2016-12-24T10:49:50Z</time></trkpt><trkpt lat="51.8161678500" lon="39.5744315442"><ele>157.31</ele><time>2016-12-24T10:49:55Z</time></trkpt><trkpt lat="51.8161800876" lon="39.5744677540"><ele>157.31</ele><time>2016-12-24T10:49:56Z</time></trkpt><trkpt lat="51.8161952589" lon="39.5745049696"><ele>157.31</ele><time>2016-12-24T10:49:57Z</time></trkpt><trkpt lat="51.8162151240" lon="39.5745467953"><ele>157.31</ele><time>2016-12-24T10:49:58Z</time></trkpt><trkpt lat="51.8162409402" lon="39.5745963324"><ele>157.31</ele><time>2016-12-24T10:49:59Z</time></trkpt><trkpt lat="51.8163665850" lon="39.5752574131"><ele>156.83</ele><time>2016-12-24T10:50:13Z</time></trkpt><trkpt lat="51.8160537723" lon="39.5754159987"><ele>156.35</ele><time>2016-12-24T10:50:24Z</time></trkpt><trkpt lat="51.8152879179" lon="39.5753293298"><ele>155.87</ele><time>2016-12-24T10:50:41Z</time></trkpt><trkpt lat="51.8142216559" lon="39.5750633720"><ele>155.87</ele><time>2016-12-24T10:51:01Z</time></trkpt><trkpt lat="51.8130403105" lon="39.5746748708"><ele>155.39</ele><time>2016-12-24T10:51:22Z</time></trkpt><trkpt lat="51.8117933348" lon="39.5743367448"><ele>154.91</ele><time>2016-12-24T10:51:44Z</time></trkpt><trkpt lat="51.8105454370" lon="39.5741194021"><ele>155.39</ele><time>2016-12-24T10:52:06Z</time></trkpt><trkpt lat="51.8093052506" lon="39.5738945156"><ele>155.87</ele><time>2016-12-24T10:52:28Z</time></trkpt><trkpt lat="51.8081159424" lon="39.5736869797"><ele>156.83</ele><time>2016-12-24T10:52:49Z</time></trkpt><trkpt lat="51.8069715612" lon="39.5734755881"><ele>157.31</ele><time>2016-12-24T10:53:09Z</time></trkpt><trkpt lat="51.8057628069" lon="39.5732663758"><ele>158.27</ele><time>2016-12-24T10:53:30Z</time></trkpt><trkpt lat="51.8046740815" lon="39.5730372146"><ele>157.79</ele><time>2016-12-24T10:53:49Z</time></trkpt><trkpt lat="51.8034013733" lon="39.5725564286"><ele>156.83</ele><time>2016-12-24T10:54:11Z</time></trkpt><trkpt lat="51.8020877615" lon="39.5719655883"><ele>156.35</ele><time>2016-12-24T10:54:34Z</time></trkpt><trkpt lat="51.8008472398" lon="39.5713206846"><ele>155.87</ele><time>2016-12-24T10:54:56Z</time></trkpt><trkpt lat="51.7997565866" lon="39.5706590172"><ele>156.35</ele><time>2016-12-24T10:55:16Z</time></trkpt><trkpt lat="51.7986425478" lon="39.5697312243"><ele>156.35</ele><time>2016-12-24T10:55:38Z</time></trkpt><trkpt lat="51.7975631263" lon="39.5686757751"><ele>155.39</ele><time>2016-12-24T10:56:00Z</time></trkpt><trkpt lat="51.7967771553" lon="39.5679111779"><ele>155.39</ele><time>2016-12-24T10:56:17Z</time></trkpt><trkpt lat="51.7956227995" lon="39.5667708199"><ele>156.35</ele><time>2016-12-24T10:56:41Z</time></trkpt><trkpt lat="51.7945747264" lon="39.5657417737"><ele>155.39</ele><time>2016-12-24T10:57:03Z</time></trkpt><trkpt lat="51.7935647909" lon="39.5647465065"><ele>156.35</ele><time>2016-12-24T10:57:24Z</time></trkpt><trkpt lat="51.7925578728" lon="39.5637712721"><ele>156.35</ele><time>2016-12-24T10:57:45Z</time></trkpt><trkpt lat="51.7916457541" lon="39.5628790185"><ele>157.31</ele><time>2016-12-24T10:58:04Z</time></trkpt><trkpt lat="51.7906971741" lon="39.5619511418"><ele>158.27</ele><time>2016-12-24T10:58:24Z</time></trkpt><trkpt lat="51.7896746658" lon="39.5609291364"><ele>156.83</ele><time>2016-12-24T10:58:49Z</time></trkpt><trkpt lat="51.7896283139" lon="39.5605053473"><ele>155.87</ele><time>2016-12-24T10:58:58Z</time></trkpt><trkpt lat="51.7898711376" lon="39.5598717593"><ele>156.35</ele><time>2016-12-24T10:59:14Z</time></trkpt><trkpt lat="51.7896913458" lon="39.5594368223"><ele>155.87</ele><time>2016-12-24T10:59:26Z</time></trkpt><trkpt lat="51.7892517988" lon="39.5590150449"><ele>155.39</ele><time>2016-12-24T10:59:40Z</time></trkpt><trkpt lat="51.7887618765" lon="39.5585030783"><ele>154.43</ele><time>2016-12-24T10:59:54Z</time></trkpt><trkpt lat="51.7880887259" lon="39.5578425005"><ele>153.47</ele><time>2016-12-24T11:00:13Z</time></trkpt><trkpt lat="51.7876698822" lon="39.5574415941"><ele>154.43</ele><time>2016-12-24T11:00:28Z</time></trkpt><trkpt lat="51.7873649485" lon="39.5571452100"><ele>154.43</ele><time>2016-12-24T11:00:42Z</time></trkpt><trkpt lat="51.7872746754" lon="39.5570538472"><ele>155.39</ele><time>2016-12-24T11:00:49Z</time></trkpt><trkpt lat="51.7872678861" lon="39.5570183918"><ele>156.35</ele><time>2016-12-24T11:00:52Z</time></trkpt><trkpt lat="51.7870255653" lon="39.5567751490"><ele>155.87</ele><time>2016-12-24T11:01:04Z</time></trkpt><trkpt lat="51.7865682486" lon="39.5563201793"><ele>155.39</ele><time>2016-12-24T11:01:20Z</time></trkpt><trkpt lat="51.7860380933" lon="39.5557974000"><ele>155.39</ele><time>2016-12-24T11:01:38Z</time></trkpt><trkpt lat="51.7858339101" lon="39.5556041133"><ele>155.39</ele><time>2016-12-24T11:01:49Z</time></trkpt><trkpt lat="51.7855019029" lon="39.5552832540"><ele>155.87</ele><time>2016-12-24T11:02:03Z</time></trkpt><trkpt lat="51.7849856615" lon="39.5547826868"><ele>155.39</ele><time>2016-12-24T11:02:18Z</time></trkpt><trkpt lat="51.7844649777" lon="39.5542616677"><ele>154.91</ele><time>2016-12-24T11:02:34Z</time></trkpt><trkpt lat="51.7838135362" lon="39.5536052808"><ele>154.43</ele><time>2016-12-24T11:02:53Z</time></trkpt><trkpt lat="51.7832073569" lon="39.5530200563"><ele>153.95</ele><time>2016-12-24T11:03:09Z</time></trkpt><trkpt lat="51.7825591844" lon="39.5523777511"><ele>153.95</ele><time>2016-12-24T11:03:26Z</time></trkpt><trkpt lat="51.7819995247" lon="39.5518321730"><ele>153.95</ele><time>2016-12-24T11:03:41Z</time></trkpt><trkpt lat="51.7813075986" lon="39.5511585195"><ele>154.43</ele><time>2016-12-24T11:03:59Z</time></trkpt><trkpt lat="51.7805892695" lon="39.5504253544"><ele>155.39</ele><time>2016-12-24T11:04:18Z</time></trkpt><trkpt lat="51.7800112534" lon="39.5498567261"><ele>154.91</ele><time>2016-12-24T11:04:34Z</time></trkpt><trkpt lat="51.7797219101" lon="39.5495518763"><ele>154.43</ele><time>2016-12-24T11:04:42Z</time></trkpt><trkpt lat="51.7794504203" lon="39.5492790453"><ele>154.43</ele><time>2016-12-24T11:04:53Z</time></trkpt><trkpt lat="51.7788407207" lon="39.5486623887"><ele>154.91</ele><time>2016-12-24T11:05:10Z</time></trkpt><trkpt lat="51.7780310288" lon="39.5478921756"><ele>152.99</ele><time>2016-12-24T11:05:30Z</time></trkpt><trkpt lat="51.7773652542" lon="39.5472241379"><ele>152.03</ele><time>2016-12-24T11:05:47Z</time></trkpt><trkpt lat="51.7766790278" lon="39.5465077367"><ele>153.95</ele><time>2016-12-24T11:06:05Z</time></trkpt><trkpt lat="51.7759871855" lon="39.5458414592"><ele>153.95</ele><time>2016-12-24T11:06:24Z</time></trkpt><trkpt lat="51.7758069746" lon="39.5456489269"><ele>153.95</ele><time>2016-12-24T11:06:29Z</time></trkpt><trkpt lat="51.7755817529" lon="39.5454190951"><ele>153.47</ele><time>2016-12-24T11:06:38Z</time></trkpt><trkpt lat="51.7755790707" lon="39.5454162452"><ele>153.95</ele><time>2016-12-24T11:06:43Z</time></trkpt><trkpt lat="51.7754395120" lon="39.5452956297"><ele>153.95</ele><time>2016-12-24T11:06:53Z</time></trkpt><trkpt lat="51.7748076003" lon="39.5446757879"><ele>153.95</ele><time>2016-12-24T11:07:10Z</time></trkpt><trkpt lat="51.7740901094" lon="39.5438567083"><ele>153.47</ele><time>2016-12-24T11:07:29Z</time></trkpt><trkpt lat="51.7733711936" lon="39.5429849066"><ele>152.99</ele><time>2016-12-24T11:07:49Z</time></trkpt><trkpt lat="51.7726412974" lon="39.5420027990"><ele>152.03</ele><time>2016-12-24T11:08:10Z</time></trkpt><trkpt lat="51.7719941307" lon="39.5410448313"><ele>152.03</ele><time>2016-12-24T11:08:29Z</time></trkpt><trkpt lat="51.7715242412" lon="39.5402389113"><ele>151.54</ele><time>2016-12-24T11:08:45Z</time></trkpt><trkpt lat="51.7711801641" lon="39.5396941714"><ele>152.03</ele><time>2016-12-24T11:09:00Z</time></trkpt><trkpt lat="51.7707631644" lon="39.5389434043"><ele>152.03</ele><time>2016-12-24T11:09:15Z</time></trkpt><trkpt lat="51.7702953704" lon="39.5380635560"><ele>150.58</ele><time>2016-12-24T11:09:32Z</time></trkpt><trkpt lat="51.7699793726" lon="39.5376363304"><ele>149.14</ele><time>2016-12-24T11:09:43Z</time></trkpt><trkpt lat="51.7698071245" lon="39.5372412074"><ele>149.14</ele><time>2016-12-24T11:09:50Z</time></trkpt><trkpt lat="51.7697479483" lon="39.5370622538"><ele>149.14</ele><time>2016-12-24T11:09:53Z</time></trkpt><trkpt lat="51.7695289291" lon="39.5366021711"><ele>148.66</ele><time>2016-12-24T11:10:01Z</time></trkpt><trkpt lat="51.7692080699" lon="39.5361745264"><ele>147.70</ele><time>2016-12-24T11:10:10Z</time></trkpt><trkpt lat="51.7687188182" lon="39.5350977033"><ele>147.70</ele><time>2016-12-24T11:10:27Z</time></trkpt><trkpt lat="51.7682514433" lon="39.5340223052"><ele>147.22</ele><time>2016-12-24T11:10:44Z</time></trkpt><trkpt lat="51.7680308316" lon="39.5335207321"><ele>146.74</ele><time>2016-12-24T11:10:52Z</time></trkpt><trkpt lat="51.7676797975" lon="39.5327402093"><ele>146.26</ele><time>2016-12-24T11:11:05Z</time></trkpt><trkpt lat="51.7675047833" lon="39.5321758557"><ele>146.74</ele><time>2016-12-24T11:11:18Z</time></trkpt><trkpt lat="51.7675332818" lon="39.5320286695"><ele>148.66</ele><time>2016-12-24T11:11:24Z</time></trkpt><trkpt lat="51.7675378919" lon="39.5320139173"><ele>148.66</ele><time>2016-12-24T11:11:25Z</time></trkpt><trkpt lat="51.7675424181" lon="39.5320047811"><ele>149.62</ele><time>2016-12-24T11:11:40Z</time></trkpt><trkpt lat="51.7675463576" lon="39.5320066251"><ele>148.66</ele><time>2016-12-24T11:12:19Z</time></trkpt><trkpt lat="51.7675498780" lon="39.5320161805"><ele>147.70</ele><time>2016-12-24T11:12:59Z</time></trkpt><trkpt lat="51.7675502971" lon="39.5320160128"><ele>148.66</ele><time>2016-12-24T11:13:42Z</time></trkpt><trkpt lat="51.7675488722" lon="39.5320208743"><ele>149.14</ele><time>2016-12-24T11:14:22Z</time></trkpt><trkpt lat="51.7675409093" lon="39.5319997519"><ele>148.18</ele><time>2016-12-24T11:15:06Z</time></trkpt><trkpt lat="51.7676537298" lon="39.5318914577"><ele>147.70</ele><time>2016-12-24T11:15:22Z</time></trkpt><trkpt lat="51.7677830625" lon="39.5317882765"><ele>146.74</ele><time>2016-12-24T11:15:29Z</time></trkpt><trkpt lat="51.7678320128" lon="39.5317860972"><ele>146.26</ele><time>2016-12-24T11:15:31Z</time></trkpt><trkpt lat="51.7678496148" lon="39.5317724347"><ele>146.26</ele><time>2016-12-24T11:15:32Z</time></trkpt><trkpt lat="51.7678611819" lon="39.5317570120"><ele>146.74</ele><time>2016-12-24T11:15:33Z</time></trkpt><trkpt lat="51.7678658757" lon="39.5317363925"><ele>146.74</ele><time>2016-12-24T11:15:34Z</time></trkpt><trkpt lat="51.7678657919" lon="39.5317113306"><ele>146.74</ele><time>2016-12-24T11:15:35Z</time></trkpt><trkpt lat="51.7678623553" lon="39.5316757914"><ele>146.74</ele><time>2016-12-24T11:15:36Z</time></trkpt><trkpt lat="51.7676354572" lon="39.5310764015"><ele>145.78</ele><time>2016-12-24T11:15:49Z</time></trkpt><trkpt lat="51.7672267556" lon="39.5302380435"><ele>145.30</ele><time>2016-12-24T11:16:00Z</time></trkpt><trkpt lat="51.7671183776" lon="39.5299968962"><ele>145.30</ele><time>2016-12-24T11:16:03Z</time></trkpt><trkpt lat="51.7670566030" lon="39.5298439264"><ele>144.82</ele><time>2016-12-24T11:16:05Z</time></trkpt><trkpt lat="51.7670193873" lon="39.5297746081"><ele>144.82</ele><time>2016-12-24T11:16:06Z</time></trkpt><trkpt lat="51.7665520124" lon="39.5287888125"><ele>144.34</ele><time>2016-12-24T11:16:18Z</time></trkpt><trkpt lat="51.7660176661" lon="39.5275511406"><ele>144.82</ele><time>2016-12-24T11:16:35Z</time></trkpt><trkpt lat="51.7655545659" lon="39.5265025645"><ele>145.30</ele><time>2016-12-24T11:16:50Z</time></trkpt><trkpt lat="51.7651925515" lon="39.5256536454"><ele>146.26</ele><time>2016-12-24T11:17:03Z</time></trkpt><trkpt lat="51.7651430145" lon="39.5255244803"><ele>146.74</ele><time>2016-12-24T11:17:05Z</time></trkpt><trkpt lat="51.7651135102" lon="39.5254652202"><ele>146.74</ele><time>2016-12-24T11:17:06Z</time></trkpt><trkpt lat="51.7647261824" lon="39.5246631559"><ele>146.74</ele><time>2016-12-24T11:17:19Z</time></trkpt><trkpt lat="51.7643318139" lon="39.5237530489"><ele>146.74</ele><time>2016-12-24T11:17:33Z</time></trkpt><trkpt lat="51.7640490923" lon="39.5230943151"><ele>146.74</ele><time>2016-12-24T11:17:43Z</time></trkpt><trkpt lat="51.7639568914" lon="39.5227921475"><ele>146.74</ele><time>2016-12-24T11:17:47Z</time></trkpt><trkpt lat="51.7639282253" lon="39.5227264334"><ele>146.74</ele><time>2016-12-24T11:17:48Z</time></trkpt><trkpt lat="51.7636988126" lon="39.5222123712"><ele>147.22</ele><time>2016-12-24T11:17:56Z</time></trkpt><trkpt lat="51.7634507921" lon="39.5216349419"><ele>147.22</ele><time>2016-12-24T11:18:05Z</time></trkpt><trkpt lat="51.7634196114" lon="39.5215729158"><ele>147.22</ele><time>2016-12-24T11:18:06Z</time></trkpt><trkpt lat="51.7629354727" lon="39.5204639900"><ele>147.22</ele><time>2016-12-24T11:18:23Z</time></trkpt><trkpt lat="51.7628805712" lon="39.5203299634"><ele>147.22</ele><time>2016-12-24T11:18:25Z</time></trkpt><trkpt lat="51.7626983486" lon="39.5199455693"><ele>146.74</ele><time>2016-12-24T11:18:31Z</time></trkpt><trkpt lat="51.7625736259" lon="39.5196034200"><ele>147.22</ele><time>2016-12-24T11:18:36Z</time></trkpt><trkpt lat="51.7625453789" lon="39.5195444115"><ele>147.22</ele><time>2016-12-24T11:18:37Z</time></trkpt><trkpt lat="51.7620702926" lon="39.5185584482"><ele>147.70</ele><time>2016-12-24T11:18:53Z</time></trkpt><trkpt lat="51.7616658658" lon="39.5176620036"><ele>147.70</ele><time>2016-12-24T11:19:07Z</time></trkpt><trkpt lat="51.7616371997" lon="39.5176006481"><ele>147.70</ele><time>2016-12-24T11:19:08Z</time></trkpt><trkpt lat="51.7616060190" lon="39.5175440703"><ele>147.70</ele><time>2016-12-24T11:19:09Z</time></trkpt><trkpt lat="51.7613155860" lon="39.5170341991"><ele>148.18</ele><time>2016-12-24T11:19:18Z</time></trkpt><trkpt lat="51.7609298509" lon="39.5161201525"><ele>147.22</ele><time>2016-12-24T11:19:32Z</time></trkpt><trkpt lat="51.7603320535" lon="39.5148994122"><ele>146.26</ele><time>2016-12-24T11:19:52Z</time></trkpt><trkpt lat="51.7600304727" lon="39.5143503137"><ele>145.78</ele><time>2016-12-24T11:20:02Z</time></trkpt><trkpt lat="51.7600098532" lon="39.5142812468"><ele>145.78</ele><time>2016-12-24T11:20:03Z</time></trkpt><trkpt lat="51.7597522773" lon="39.5136950165"><ele>145.78</ele><time>2016-12-24T11:20:15Z</time></trkpt><trkpt lat="51.7594500259" lon="39.5131170843"><ele>145.78</ele><time>2016-12-24T11:20:28Z</time></trkpt><trkpt lat="51.7590755224" lon="39.5122865215"><ele>145.30</ele><time>2016-12-24T11:20:45Z</time></trkpt><trkpt lat="51.7587368935" lon="39.5114766620"><ele>144.82</ele><time>2016-12-24T11:21:02Z</time></trkpt><trkpt lat="51.7583407648" lon="39.5103959832"><ele>142.41</ele><time>2016-12-24T11:21:22Z</time></trkpt><trkpt lat="51.7582428642" lon="39.5101010241"><ele>141.93</ele><time>2016-12-24T11:21:27Z</time></trkpt><trkpt lat="51.7582261842" lon="39.5100436080"><ele>141.93</ele><time>2016-12-24T11:21:28Z</time></trkpt><trkpt lat="51.7578079272" lon="39.5088240411"><ele>141.45</ele><time>2016-12-24T11:21:48Z</time></trkpt><trkpt lat="51.7576635908" lon="39.5083374716"><ele>141.45</ele><time>2016-12-24T11:21:56Z</time></trkpt><trkpt lat="51.7574509420" lon="39.5074746385"><ele>141.93</ele><time>2016-12-24T11:22:12Z</time></trkpt><trkpt lat="51.7573294044" lon="39.5069363527"><ele>141.45</ele><time>2016-12-24T11:22:23Z</time></trkpt><trkpt lat="51.7573215254" lon="39.5069103688"><ele>140.97</ele><time>2016-12-24T11:22:24Z</time></trkpt><trkpt lat="51.7573159933" lon="39.5068820380"><ele>140.97</ele><time>2016-12-24T11:22:25Z</time></trkpt><trkpt lat="51.7573100422" lon="39.5068511926"><ele>140.97</ele><time>2016-12-24T11:22:26Z</time></trkpt><trkpt lat="51.7573024984" lon="39.5068141446"><ele>140.97</ele><time>2016-12-24T11:22:27Z</time></trkpt><trkpt lat="51.7572157457" lon="39.5063641202"><ele>141.45</ele><time>2016-12-24T11:22:38Z</time></trkpt><trkpt lat="51.7570813000" lon="39.5053719543"><ele>140.01</ele><time>2016-12-24T11:22:55Z</time></trkpt><trkpt lat="51.7569560744" lon="39.5044216141"><ele>139.53</ele><time>2016-12-24T11:23:11Z</time></trkpt><trkpt lat="51.7568389792" lon="39.5029855426"><ele>138.57</ele><time>2016-12-24T11:23:33Z</time></trkpt><trkpt lat="51.7567742709" lon="39.5018450171"><ele>138.57</ele><time>2016-12-24T11:23:52Z</time></trkpt><trkpt lat="51.7567203753" lon="39.5007201657"><ele>138.57</ele><time>2016-12-24T11:24:10Z</time></trkpt><trkpt lat="51.7566703353" lon="39.4993761275"><ele>139.05</ele><time>2016-12-24T11:24:32Z</time></trkpt><trkpt lat="51.7566425912" lon="39.4986829441"><ele>138.09</ele><time>2016-12-24T11:24:45Z</time></trkpt><trkpt lat="51.7566154338" lon="39.4979668781"><ele>139.05</ele><time>2016-12-24T11:24:59Z</time></trkpt><trkpt lat="51.7565914616" lon="39.4972530752"><ele>139.05</ele><time>2016-12-24T11:25:14Z</time></trkpt><trkpt lat="51.7565550003" lon="39.4961306546"><ele>139.53</ele><time>2016-12-24T11:25:35Z</time></trkpt><trkpt lat="51.7565302737" lon="39.4954905286"><ele>139.53</ele><time>2016-12-24T11:25:48Z</time></trkpt><trkpt lat="51.7564971652" lon="39.4947597943"><ele>139.05</ele><time>2016-12-24T11:26:03Z</time></trkpt><trkpt lat="51.7564689182" lon="39.4938598294"><ele>138.09</ele><time>2016-12-24T11:26:19Z</time></trkpt><trkpt lat="51.7564159445" lon="39.4927874487"><ele>139.05</ele><time>2016-12-24T11:26:37Z</time></trkpt><trkpt lat="51.7563785613" lon="39.4917997252"><ele>139.05</ele><time>2016-12-24T11:26:54Z</time></trkpt><trkpt lat="51.7563327122" lon="39.4906620495"><ele>140.01</ele><time>2016-12-24T11:27:12Z</time></trkpt><trkpt lat="51.7562825046" lon="39.4895323366"><ele>141.45</ele><time>2016-12-24T11:27:31Z</time></trkpt><trkpt lat="51.7562431935" lon="39.4887192920"><ele>140.97</ele><time>2016-12-24T11:27:46Z</time></trkpt><trkpt lat="51.7562541738" lon="39.4878427126"><ele>140.97</ele><time>2016-12-24T11:28:02Z</time></trkpt><trkpt lat="51.7562426068" lon="39.4870055281"><ele>141.93</ele><time>2016-12-24T11:28:17Z</time></trkpt><trkpt lat="51.7562112585" lon="39.4860711135"><ele>139.05</ele><time>2016-12-24T11:28:33Z</time></trkpt><trkpt lat="51.7561454605" lon="39.4852206856"><ele>139.05</ele><time>2016-12-24T11:28:47Z</time></trkpt><trkpt lat="51.7561608832" lon="39.4843255822"><ele>139.53</ele><time>2016-12-24T11:29:03Z</time></trkpt><trkpt lat="51.7561332230" lon="39.4842804037"><ele>140.01</ele><time>2016-12-24T11:29:11Z</time></trkpt><trkpt lat="51.7560742144" lon="39.4843049627"><ele>139.53</ele><time>2016-12-24T11:29:18Z</time></trkpt><trkpt lat="51.7560558580" lon="39.4843906257"><ele>139.05</ele><time>2016-12-24T11:29:29Z</time></trkpt><trkpt lat="51.7560756393" lon="39.4843743648"><ele>136.16</ele><time>2016-12-24T11:29:41Z</time></trkpt><trkpt lat="51.7558015510" lon="39.4844599441"><ele>141.45</ele><time>2016-12-24T11:30:12Z</time></trkpt><trkpt lat="51.7556917481" lon="39.4845342077"><ele>145.78</ele><time>2016-12-24T11:30:40Z</time></trkpt><trkpt lat="51.7558142915" lon="39.4844913762"><ele>150.58</ele><time>2016-12-24T11:31:01Z</time></trkpt><trkpt lat="51.7559437919" lon="39.4844694994"><ele>152.51</ele><time>2016-12-24T11:31:22Z</time></trkpt><trkpt lat="51.7559811752" lon="39.4845167734"><ele>158.27</ele><time>2016-12-24T11:31:43Z</time></trkpt><trkpt lat="51.7558541056" lon="39.4845661428"><ele>153.47</ele><time>2016-12-24T11:32:16Z</time></trkpt><trkpt lat="51.7558049876" lon="39.4846057054"><ele>148.66</ele><time>2016-12-24T11:32:43Z</time></trkpt><trkpt lat="51.7557361722" lon="39.4847011752"><ele>144.82</ele><time>2016-12-24T11:33:19Z</time></trkpt><trkpt lat="51.7558766529" lon="39.4846842438"><ele>145.78</ele><time>2016-12-24T11:33:56Z</time></trkpt><trkpt lat="51.7559374217" lon="39.4846431725"><ele>150.10</ele><time>2016-12-24T11:34:36Z</time></trkpt><trkpt lat="51.7558621522" lon="39.4847030193"><ele>153.47</ele><time>2016-12-24T11:35:07Z</time></trkpt><trkpt lat="51.7556884792" lon="39.4848002493"><ele>148.18</ele><time>2016-12-24T11:35:36Z</time></trkpt><trkpt lat="51.7557384353" lon="39.4847643748"><ele>150.58</ele><time>2016-12-24T11:36:08Z</time></trkpt><trkpt lat="51.7557429615" lon="39.4847302604"><ele>157.79</ele><time>2016-12-24T11:36:44Z</time></trkpt><trkpt lat="51.7556573823" lon="39.4847650453"><ele>162.12</ele><time>2016-12-24T11:37:18Z</time></trkpt><trkpt lat="51.7557489127" lon="39.4846161827"><ele>164.52</ele><time>2016-12-24T11:37:33Z</time></trkpt><trkpt lat="51.7559908982" lon="39.4843081478"><ele>161.16</ele><time>2016-12-24T11:37:40Z</time></trkpt><trkpt lat="51.7560085841" lon="39.4842860196"><ele>159.72</ele><time>2016-12-24T11:37:41Z</time></trkpt><trkpt lat="51.7560276948" lon="39.4842669088"><ele>158.75</ele><time>2016-12-24T11:37:42Z</time></trkpt><trkpt lat="51.7560384236" lon="39.4842479657"><ele>158.27</ele><time>2016-12-24T11:37:43Z</time></trkpt><trkpt lat="51.7560714483" lon="39.4842444453"><ele>156.35</ele><time>2016-12-24T11:37:44Z</time></trkpt><trkpt lat="51.7560968455" lon="39.4842429366"><ele>154.43</ele><time>2016-12-24T11:37:45Z</time></trkpt><trkpt lat="51.7561066523" lon="39.4842291903"><ele>153.47</ele><time>2016-12-24T11:37:46Z</time></trkpt><trkpt lat="51.7561149504" lon="39.4842093252"><ele>152.51</ele><time>2016-12-24T11:37:47Z</time></trkpt><trkpt lat="51.7561939918" lon="39.4838034734"><ele>145.78</ele><time>2016-12-24T11:37:58Z</time></trkpt><trkpt lat="51.7563935649" lon="39.4833002239"><ele>141.93</ele><time>2016-12-24T11:38:11Z</time></trkpt><trkpt lat="51.7564343847" lon="39.4826516323"><ele>140.97</ele><time>2016-12-24T11:38:24Z</time></trkpt><trkpt lat="51.7564840056" lon="39.4819079060"><ele>141.45</ele><time>2016-12-24T11:38:38Z</time></trkpt><trkpt lat="51.7564849276" lon="39.4811677001"><ele>141.93</ele><time>2016-12-24T11:38:51Z</time></trkpt><trkpt lat="51.7564650625" lon="39.4806287438"><ele>140.97</ele><time>2016-12-24T11:39:01Z</time></trkpt><trkpt lat="51.7563718557" lon="39.4799922220"><ele>140.97</ele><time>2016-12-24T11:39:12Z</time></trkpt><trkpt lat="51.7562012002" lon="39.4792826939"><ele>139.53</ele><time>2016-12-24T11:39:25Z</time></trkpt><trkpt lat="51.7561564408" lon="39.4791946840"><ele>139.53</ele><time>2016-12-24T11:39:27Z</time></trkpt><trkpt lat="51.7561944947" lon="39.4787822105"><ele>139.53</ele><time>2016-12-24T11:39:35Z</time></trkpt><trkpt lat="51.7562095821" lon="39.4779363927"><ele>138.09</ele><time>2016-12-24T11:39:49Z</time></trkpt><trkpt lat="51.7561971769" lon="39.4778042939"><ele>138.09</ele><time>2016-12-24T11:39:51Z</time></trkpt><trkpt lat="51.7562723625" lon="39.4774977677"><ele>138.09</ele><time>2016-12-24T11:39:58Z</time></trkpt><trkpt lat="51.7562753800" lon="39.4769189972"><ele>139.05</ele><time>2016-12-24T11:40:10Z</time></trkpt><trkpt lat="51.7560907267" lon="39.4761523884"><ele>138.09</ele><time>2016-12-24T11:40:24Z</time></trkpt><trkpt lat="51.7560185585" lon="39.4754132722"><ele>137.13</ele><time>2016-12-24T11:40:37Z</time></trkpt><trkpt lat="51.7561364919" lon="39.4746044185"><ele>137.61</ele><time>2016-12-24T11:40:52Z</time></trkpt><trkpt lat="51.7561795749" lon="39.4737879373"><ele>141.93</ele><time>2016-12-24T11:41:07Z</time></trkpt><trkpt lat="51.7562591191" lon="39.4729417842"><ele>145.30</ele><time>2016-12-24T11:41:22Z</time></trkpt><trkpt lat="51.7561788205" lon="39.4724992197"><ele>144.82</ele><time>2016-12-24T11:41:31Z</time></trkpt><trkpt lat="51.7560681794" lon="39.4718720857"><ele>143.85</ele><time>2016-12-24T11:41:43Z</time></trkpt><trkpt lat="51.7560401000" lon="39.4711745437"><ele>142.41</ele><time>2016-12-24T11:41:56Z</time></trkpt><trkpt lat="51.7561451253" lon="39.4705867209"><ele>140.49</ele><time>2016-12-24T11:42:07Z</time></trkpt><trkpt lat="51.7562095821" lon="39.4698492810"><ele>141.93</ele><time>2016-12-24T11:42:21Z</time></trkpt><trkpt lat="51.7562212329" lon="39.4693104085"><ele>140.97</ele><time>2016-12-24T11:42:32Z</time></trkpt><trkpt lat="51.7561282776" lon="39.4687697757"><ele>143.37</ele><time>2016-12-24T11:42:43Z</time></trkpt><trkpt lat="51.7561031319" lon="39.4681583159"><ele>145.30</ele><time>2016-12-24T11:42:54Z</time></trkpt><trkpt lat="51.7560882121" lon="39.4673534017"><ele>141.93</ele><time>2016-12-24T11:43:08Z</time></trkpt><trkpt lat="51.7560895532" lon="39.4673244003"><ele>141.45</ele><time>2016-12-24T11:43:09Z</time></trkpt><trkpt lat="51.7560883798" lon="39.4667267706"><ele>140.49</ele><time>2016-12-24T11:43:23Z</time></trkpt><trkpt lat="51.7559799179" lon="39.4660119619"><ele>141.45</ele><time>2016-12-24T11:43:39Z</time></trkpt><trkpt lat="51.7558134533" lon="39.4656529650"><ele>140.97</ele><time>2016-12-24T11:43:51Z</time></trkpt><trkpt lat="51.7554983776" lon="39.4654279947"><ele>140.01</ele><time>2016-12-24T11:44:03Z</time></trkpt><trkpt lat="51.7553360201" lon="39.4649021979"><ele>138.09</ele><time>2016-12-24T11:44:14Z</time></trkpt><trkpt lat="51.7552740779" lon="39.4640837051"><ele>138.09</ele><time>2016-12-24T11:44:29Z</time></trkpt><trkpt lat="51.7552538775" lon="39.4631030224"><ele>139.05</ele><time>2016-12-24T11:44:48Z</time></trkpt><trkpt lat="51.7552086990" lon="39.4620588887"><ele>139.53</ele><time>2016-12-24T11:45:06Z</time></trkpt><trkpt lat="51.7551905941" lon="39.4611058664"><ele>140.01</ele><time>2016-12-24T11:45:22Z</time></trkpt><trkpt lat="51.7551335134" lon="39.4600261096"><ele>140.01</ele><time>2016-12-24T11:45:40Z</time></trkpt><trkpt lat="51.7551045958" lon="39.4591714907"><ele>140.97</ele><time>2016-12-24T11:45:55Z</time></trkpt><trkpt lat="51.7550585791" lon="39.4582490623"><ele>140.97</ele><time>2016-12-24T11:46:10Z</time></trkpt><trkpt lat="51.7550746724" lon="39.4572751690"><ele>140.49</ele><time>2016-12-24T11:46:26Z</time></trkpt><trkpt lat="51.7550532147" lon="39.4564309437"><ele>141.45</ele><time>2016-12-24T11:46:40Z</time></trkpt><trkpt lat="51.7550141551" lon="39.4556334894"><ele>141.45</ele><time>2016-12-24T11:46:53Z</time></trkpt><trkpt lat="51.7549978942" lon="39.4552103709"><ele>141.45</ele><time>2016-12-24T11:46:59Z</time></trkpt><trkpt lat="51.7549648695" lon="39.4541375712"><ele>141.45</ele><time>2016-12-24T11:47:15Z</time></trkpt><trkpt lat="51.7549407296" lon="39.4530248735"><ele>140.97</ele><time>2016-12-24T11:47:32Z</time></trkpt><trkpt lat="51.7548735905" lon="39.4518524129"><ele>141.45</ele><time>2016-12-24T11:47:49Z</time></trkpt><trkpt lat="51.7548324354" lon="39.4507423975"><ele>140.01</ele><time>2016-12-24T11:48:05Z</time></trkpt><trkpt lat="51.7547725048" lon="39.4497361500"><ele>138.09</ele><time>2016-12-24T11:48:20Z</time></trkpt><trkpt lat="51.7547264043" lon="39.4487013202"><ele>136.64</ele><time>2016-12-24T11:48:35Z</time></trkpt><trkpt lat="51.7547059525" lon="39.4474657439"><ele>134.24</ele><time>2016-12-24T11:48:52Z</time></trkpt><trkpt lat="51.7546746880" lon="39.4465160742"><ele>132.32</ele><time>2016-12-24T11:49:04Z</time></trkpt><trkpt lat="51.7546748556" lon="39.4464400504"><ele>132.32</ele><time>2016-12-24T11:49:05Z</time></trkpt><trkpt lat="51.7546823993" lon="39.4453746267"><ele>131.84</ele><time>2016-12-24T11:49:19Z</time></trkpt><trkpt lat="51.7546835728" lon="39.4451422803"><ele>131.84</ele><time>2016-12-24T11:49:22Z</time></trkpt><trkpt lat="51.7547617760" lon="39.4438994117"><ele>129.92</ele><time>2016-12-24T11:49:38Z</time></trkpt><trkpt lat="51.7547753546" lon="39.4434115011"><ele>129.43</ele><time>2016-12-24T11:49:44Z</time></trkpt><trkpt lat="51.7549201939" lon="39.4418955501"><ele>127.51</ele><time>2016-12-24T11:50:02Z</time></trkpt><trkpt lat="51.7550009117" lon="39.4407363329"><ele>126.07</ele><time>2016-12-24T11:50:17Z</time></trkpt><trkpt lat="51.7551784404" lon="39.4394593500"><ele>125.11</ele><time>2016-12-24T11:50:34Z</time></trkpt><trkpt lat="51.7553344276" lon="39.4382864702"><ele>124.15</ele><time>2016-12-24T11:50:49Z</time></trkpt><trkpt lat="51.7554402072" lon="39.4375478569"><ele>124.15</ele><time>2016-12-24T11:50:59Z</time></trkpt><trkpt lat="51.7556888983" lon="39.4363509212"><ele>125.11</ele><time>2016-12-24T11:51:16Z</time></trkpt><trkpt lat="51.7558543570" lon="39.4352342840"><ele>125.11</ele><time>2016-12-24T11:51:31Z</time></trkpt><trkpt lat="51.7559354100" lon="39.4343740493"><ele>123.19</ele><time>2016-12-24T11:51:42Z</time></trkpt><trkpt lat="51.7559486534" lon="39.4342995342"><ele>123.19</ele><time>2016-12-24T11:51:43Z</time></trkpt><trkpt lat="51.7561577819" lon="39.4331604335"><ele>123.67</ele><time>2016-12-24T11:51:59Z</time></trkpt><trkpt lat="51.7564460356" lon="39.4323226623"><ele>121.26</ele><time>2016-12-24T11:52:14Z</time></trkpt><trkpt lat="51.7565045413" lon="39.4319287967"><ele>120.30</ele><time>2016-12-24T11:52:21Z</time></trkpt><trkpt lat="51.7566210497" lon="39.4314334262"><ele>119.82</ele><time>2016-12-24T11:52:31Z</time></trkpt><trkpt lat="51.7567050364" lon="39.4308074657"><ele>118.38</ele><time>2016-12-24T11:52:41Z</time></trkpt><trkpt lat="51.7567803897" lon="39.4303589500"><ele>117.42</ele><time>2016-12-24T11:52:47Z</time></trkpt><trkpt lat="51.7568298429" lon="39.4300448801"><ele>116.94</ele><time>2016-12-24T11:52:52Z</time></trkpt><trkpt lat="51.7568247300" lon="39.4299795851"><ele>116.46</ele><time>2016-12-24T11:52:53Z</time></trkpt><trkpt lat="51.7568126600" lon="39.4299099315"><ele>116.46</ele><time>2016-12-24T11:52:54Z</time></trkpt><trkpt lat="51.7567680683" lon="39.4297042396"><ele>115.98</ele><time>2016-12-24T11:52:57Z</time></trkpt><trkpt lat="51.7567378934" lon="39.4295623340"><ele>115.50</ele><time>2016-12-24T11:52:59Z</time></trkpt><trkpt lat="51.7567368876" lon="39.4294843823"><ele>115.50</ele><time>2016-12-24T11:53:00Z</time></trkpt><trkpt lat="51.7569016758" lon="39.4281883724"><ele>115.01</ele><time>2016-12-24T11:53:15Z</time></trkpt><trkpt lat="51.7570188548" lon="39.4270401355"><ele>115.98</ele><time>2016-12-24T11:53:29Z</time></trkpt><trkpt lat="51.7570678052" lon="39.4265290909"><ele>115.50</ele><time>2016-12-24T11:53:36Z</time></trkpt><trkpt lat="51.7570832279" lon="39.4263907894"><ele>115.50</ele><time>2016-12-24T11:53:38Z</time></trkpt><trkpt lat="51.7571035959" lon="39.4261135161"><ele>115.01</ele><time>2016-12-24T11:53:42Z</time></trkpt><trkpt lat="51.7571119778" lon="39.4260416832"><ele>115.01</ele><time>2016-12-24T11:53:43Z</time></trkpt><trkpt lat="51.7571642809" lon="39.4250501040"><ele>115.98</ele><time>2016-12-24T11:53:58Z</time></trkpt><trkpt lat="51.7571689747" lon="39.4238561019"><ele>118.38</ele><time>2016-12-24T11:54:15Z</time></trkpt><trkpt lat="51.7571889237" lon="39.4233039021"><ele>118.38</ele><time>2016-12-24T11:54:23Z</time></trkpt><trkpt lat="51.7571501154" lon="39.4220647216"><ele>119.34</ele><time>2016-12-24T11:54:41Z</time></trkpt><trkpt lat="51.7571793683" lon="39.4214188959"><ele>117.90</ele><time>2016-12-24T11:54:50Z</time></trkpt><trkpt lat="51.7571895942" lon="39.4213412795"><ele>117.90</ele><time>2016-12-24T11:54:51Z</time></trkpt><trkpt lat="51.7572024185" lon="39.4212684408"><ele>117.90</ele><time>2016-12-24T11:54:52Z</time></trkpt><trkpt lat="51.7572322581" lon="39.4211229309"><ele>117.42</ele><time>2016-12-24T11:54:54Z</time></trkpt><trkpt lat="51.7572408076" lon="39.4210504275"><ele>117.90</ele><time>2016-12-24T11:54:55Z</time></trkpt><trkpt lat="51.7572419811" lon="39.4209760800"><ele>117.90</ele><time>2016-12-24T11:54:56Z</time></trkpt><trkpt lat="51.7572356109" lon="39.4208985474"><ele>117.90</ele><time>2016-12-24T11:54:57Z</time></trkpt><trkpt lat="51.7572275642" lon="39.4208212662"><ele>117.90</ele><time>2016-12-24T11:54:58Z</time></trkpt><trkpt lat="51.7571095470" lon="39.4194300380"><ele>119.82</ele><time>2016-12-24T11:55:16Z</time></trkpt><trkpt lat="51.7570911907" lon="39.4192717038"><ele>119.82</ele><time>2016-12-24T11:55:18Z</time></trkpt><trkpt lat="51.7569405679" lon="39.4184353575"><ele>121.74</ele><time>2016-12-24T11:55:29Z</time></trkpt><trkpt lat="51.7568082176" lon="39.4172472227"><ele>120.78</ele><time>2016-12-24T11:55:45Z</time></trkpt><trkpt lat="51.7567684036" lon="39.4164302386"><ele>120.30</ele><time>2016-12-24T11:55:58Z</time></trkpt><trkpt lat="51.7567772884" lon="39.4163651951"><ele>120.30</ele><time>2016-12-24T11:55:59Z</time></trkpt><trkpt lat="51.7567905318" lon="39.4163009897"><ele>120.30</ele><time>2016-12-24T11:56:00Z</time></trkpt><trkpt lat="51.7568285018" lon="39.4161636103"><ele>120.30</ele><time>2016-12-24T11:56:02Z</time></trkpt><trkpt lat="51.7568565812" lon="39.4160932861"><ele>120.30</ele><time>2016-12-24T11:56:03Z</time></trkpt><trkpt lat="51.7569292523" lon="39.4159240555"><ele>120.78</ele><time>2016-12-24T11:56:06Z</time></trkpt><trkpt lat="51.7569464352" lon="39.4158606883"><ele>120.78</ele><time>2016-12-24T11:56:07Z</time></trkpt><trkpt lat="51.7569578346" lon="39.4157932978"><ele>120.78</ele><time>2016-12-24T11:56:08Z</time></trkpt><trkpt lat="51.7569662165" lon="39.4157241471"><ele>120.78</ele><time>2016-12-24T11:56:09Z</time></trkpt><trkpt lat="51.7569697369" lon="39.4156538229"><ele>120.78</ele><time>2016-12-24T11:56:10Z</time></trkpt><trkpt lat="51.7569699883" lon="39.4155857619"><ele>120.78</ele><time>2016-12-24T11:56:11Z</time></trkpt><trkpt lat="51.7569652945" lon="39.4155171141"><ele>120.30</ele><time>2016-12-24T11:56:12Z</time></trkpt><trkpt lat="51.7569580860" lon="39.4154479634"><ele>120.30</ele><time>2016-12-24T11:56:13Z</time></trkpt><trkpt lat="51.7569410708" lon="39.4150026329"><ele>120.30</ele><time>2016-12-24T11:56:19Z</time></trkpt><trkpt lat="51.7569056153" lon="39.4144592341"><ele>120.78</ele><time>2016-12-24T11:56:26Z</time></trkpt><trkpt lat="51.7568986584" lon="39.4143847190"><ele>120.78</ele><time>2016-12-24T11:56:27Z</time></trkpt><trkpt lat="51.7568865884" lon="39.4143128023"><ele>120.78</ele><time>2016-12-24T11:56:28Z</time></trkpt><trkpt lat="51.7568522226" lon="39.4141713995"><ele>120.30</ele><time>2016-12-24T11:56:30Z</time></trkpt><trkpt lat="51.7568258196" lon="39.4141058531"><ele>120.30</ele><time>2016-12-24T11:56:31Z</time></trkpt><trkpt lat="51.7567475326" lon="39.4138988201"><ele>119.82</ele><time>2016-12-24T11:56:34Z</time></trkpt><trkpt lat="51.7567340378" lon="39.4138222933"><ele>119.34</ele><time>2016-12-24T11:56:35Z</time></trkpt><trkpt lat="51.7567155976" lon="39.4136590138"><ele>119.34</ele><time>2016-12-24T11:56:37Z</time></trkpt><trkpt lat="51.7566959001" lon="39.4135751110"><ele>119.34</ele><time>2016-12-24T11:56:38Z</time></trkpt><trkpt lat="51.7566472851" lon="39.4134125859"><ele>119.34</ele><time>2016-12-24T11:56:40Z</time></trkpt><trkpt lat="51.7566298507" lon="39.4133248273"><ele>119.34</ele><time>2016-12-24T11:56:41Z</time></trkpt><trkpt lat="51.7566202953" lon="39.4132306986"><ele>119.34</ele><time>2016-12-24T11:56:42Z</time></trkpt><trkpt lat="51.7566187028" lon="39.4131352287"><ele>118.86</ele><time>2016-12-24T11:56:43Z</time></trkpt><trkpt lat="51.7566204630" lon="39.4130369090"><ele>118.86</ele><time>2016-12-24T11:56:44Z</time></trkpt><trkpt lat="51.7566327844" lon="39.4124065060"><ele>118.38</ele><time>2016-12-24T11:56:51Z</time></trkpt><trkpt lat="51.7566247378" lon="39.4123236928"><ele>118.38</ele><time>2016-12-24T11:56:52Z</time></trkpt><trkpt lat="51.7565854266" lon="39.4120796118"><ele>118.38</ele><time>2016-12-24T11:56:55Z</time></trkpt><trkpt lat="51.7565612867" lon="39.4120010734"><ele>118.38</ele><time>2016-12-24T11:56:56Z</time></trkpt><trkpt lat="51.7565328721" lon="39.4119286537"><ele>118.38</ele><time>2016-12-24T11:56:57Z</time></trkpt><trkpt lat="51.7564773001" lon="39.4117817190"><ele>118.38</ele><time>2016-12-24T11:56:59Z</time></trkpt><trkpt lat="51.7564580217" lon="39.4117077906"><ele>118.86</ele><time>2016-12-24T11:57:00Z</time></trkpt><trkpt lat="51.7564415094" lon="39.4116266537"><ele>119.34</ele><time>2016-12-24T11:57:01Z</time></trkpt><trkpt lat="51.7564273439" lon="39.4115419127"><ele>119.34</ele><time>2016-12-24T11:57:02Z</time></trkpt><trkpt lat="51.7564157769" lon="39.4114534836"><ele>119.34</ele><time>2016-12-24T11:57:03Z</time></trkpt><trkpt lat="51.7563609593" lon="39.4111260865"><ele>119.82</ele><time>2016-12-24T11:57:07Z</time></trkpt><trkpt lat="51.7560006212" lon="39.4101003930"><ele>118.86</ele><time>2016-12-24T11:57:21Z</time></trkpt><trkpt lat="51.7559869587" lon="39.4100241177"><ele>118.86</ele><time>2016-12-24T11:57:22Z</time></trkpt><trkpt lat="51.7559416126" lon="39.4097048510"><ele>119.34</ele><time>2016-12-24T11:57:26Z</time></trkpt><trkpt lat="51.7558157165" lon="39.4091571774"><ele>119.34</ele><time>2016-12-24T11:57:33Z</time></trkpt><trkpt lat="51.7557229288" lon="39.4088546745"><ele>119.34</ele><time>2016-12-24T11:57:37Z</time></trkpt><trkpt lat="51.7556684464" lon="39.4086094201"><ele>118.86</ele><time>2016-12-24T11:57:40Z</time></trkpt><trkpt lat="51.7554226890" lon="39.4079050887"><ele>117.42</ele><time>2016-12-24T11:57:49Z</time></trkpt><trkpt lat="51.7554048356" lon="39.4078236166"><ele>117.42</ele><time>2016-12-24T11:57:50Z</time></trkpt><trkpt lat="51.7552794423" lon="39.4071470294"><ele>117.90</ele><time>2016-12-24T11:57:58Z</time></trkpt><trkpt lat="51.7552426457" lon="39.4067907147"><ele>117.42</ele><time>2016-12-24T11:58:02Z</time></trkpt><trkpt lat="51.7552227806" lon="39.4067053869"><ele>117.42</ele><time>2016-12-24T11:58:03Z</time></trkpt><trkpt lat="51.7551964615" lon="39.4066182151"><ele>117.42</ele><time>2016-12-24T11:58:04Z</time></trkpt><trkpt lat="51.7551689688" lon="39.4065437838"><ele>117.42</ele><time>2016-12-24T11:58:05Z</time></trkpt><trkpt lat="51.7551351059" lon="39.4064619765"><ele>117.42</ele><time>2016-12-24T11:58:06Z</time></trkpt><trkpt lat="51.7548548151" lon="39.4057739899"><ele>116.94</ele><time>2016-12-24T11:58:15Z</time></trkpt><trkpt lat="51.7548100557" lon="39.4056079444"><ele>116.46</ele><time>2016-12-24T11:58:17Z</time></trkpt><trkpt lat="51.7547727562" lon="39.4054447487"><ele>116.46</ele><time>2016-12-24T11:58:19Z</time></trkpt><trkpt lat="51.7546198703" lon="39.4048445206"><ele>117.90</ele><time>2016-12-24T11:58:27Z</time></trkpt><trkpt lat="51.7545950599" lon="39.4047730230"><ele>117.90</ele><time>2016-12-24T11:58:28Z</time></trkpt><trkpt lat="51.7544363067" lon="39.4042647444"><ele>118.86</ele><time>2016-12-24T11:58:35Z</time></trkpt><trkpt lat="51.7543259170" lon="39.4037896581"><ele>119.82</ele><time>2016-12-24T11:58:42Z</time></trkpt><trkpt lat="51.7543113325" lon="39.4037136342"><ele>119.82</ele><time>2016-12-24T11:58:43Z</time></trkpt><trkpt lat="51.7542933952" lon="39.4036380295"><ele>119.82</ele><time>2016-12-24T11:58:44Z</time></trkpt><trkpt lat="51.7542031221" lon="39.4033431541"><ele>119.82</ele><time>2016-12-24T11:58:48Z</time></trkpt><trkpt lat="51.7541597039" lon="39.4032022543"><ele>119.82</ele><time>2016-12-24T11:58:50Z</time></trkpt><trkpt lat="51.7541300319" lon="39.4031400606"><ele>120.30</ele><time>2016-12-24T11:58:51Z</time></trkpt><trkpt lat="51.7539683450" lon="39.4028158486"><ele>120.30</ele><time>2016-12-24T11:58:56Z</time></trkpt><trkpt lat="51.7539576162" lon="39.4027347118"><ele>120.30</ele><time>2016-12-24T11:58:57Z</time></trkpt><trkpt lat="51.7539533414" lon="39.4026493002"><ele>119.82</ele><time>2016-12-24T11:58:58Z</time></trkpt><trkpt lat="51.7539489828" lon="39.4025727734"><ele>119.82</ele><time>2016-12-24T11:58:59Z</time></trkpt><trkpt lat="51.7539415229" lon="39.4024962466"><ele>119.82</ele><time>2016-12-24T11:59:00Z</time></trkpt><trkpt lat="51.7539276928" lon="39.4024201389"><ele>119.82</ele><time>2016-12-24T11:59:01Z</time></trkpt><trkpt lat="51.7539084982" lon="39.4023528323"><ele>119.82</ele><time>2016-12-24T11:59:02Z</time></trkpt><trkpt lat="51.7538853642" lon="39.4022870343"><ele>119.82</ele><time>2016-12-24T11:59:03Z</time></trkpt><trkpt lat="51.7536007147" lon="39.4013219420"><ele>120.30</ele><time>2016-12-24T11:59:16Z</time></trkpt><trkpt lat="51.7535570450" lon="39.4010878354"><ele>120.78</ele><time>2016-12-24T11:59:19Z</time></trkpt><trkpt lat="51.7535349168" lon="39.4010105543"><ele>120.30</ele><time>2016-12-24T11:59:20Z</time></trkpt><trkpt lat="51.7535127047" lon="39.4009317644"><ele>120.30</ele><time>2016-12-24T11:59:21Z</time></trkpt><trkpt lat="51.7532569729" lon="39.4001104217"><ele>120.30</ele><time>2016-12-24T11:59:33Z</time></trkpt><trkpt lat="51.7532364372" lon="39.4000426121"><ele>120.30</ele><time>2016-12-24T11:59:34Z</time></trkpt><trkpt lat="51.7532184161" lon="39.3999692705"><ele>120.30</ele><time>2016-12-24T11:59:35Z</time></trkpt><trkpt lat="51.7531947792" lon="39.3998237606"><ele>120.30</ele><time>2016-12-24T11:59:37Z</time></trkpt><trkpt lat="51.7530536279" lon="39.3987919483"><ele>121.26</ele><time>2016-12-24T11:59:51Z</time></trkpt><trkpt lat="51.7529273126" lon="39.3983000144"><ele>120.30</ele><time>2016-12-24T11:59:58Z</time></trkpt><trkpt lat="51.7529102135" lon="39.3982297741"><ele>119.82</ele><time>2016-12-24T11:59:59Z</time></trkpt><trkpt lat="51.7528598383" lon="39.3979471363"><ele>119.34</ele><time>2016-12-24T12:00:03Z</time></trkpt><trkpt lat="51.7528600898" lon="39.3978722021"><ele>119.82</ele><time>2016-12-24T12:00:04Z</time></trkpt><trkpt lat="51.7528523784" lon="39.3976405263"><ele>119.82</ele><time>2016-12-24T12:00:07Z</time></trkpt><trkpt lat="51.7528408114" lon="39.3975609820"><ele>119.34</ele><time>2016-12-24T12:00:08Z</time></trkpt><trkpt lat="51.7528326809" lon="39.3974872213"><ele>119.34</ele><time>2016-12-24T12:00:09Z</time></trkpt><trkpt lat="51.7528257240" lon="39.3974117003"><ele>119.34</ele><time>2016-12-24T12:00:10Z</time></trkpt><trkpt lat="51.7528182641" lon="39.3973340001"><ele>118.86</ele><time>2016-12-24T12:00:11Z</time></trkpt><trkpt lat="51.7528099660" lon="39.3972594850"><ele>118.86</ele><time>2016-12-24T12:00:12Z</time></trkpt><trkpt lat="51.7527768575" lon="39.3971117120"><ele>118.86</ele><time>2016-12-24T12:00:14Z</time></trkpt><trkpt lat="51.7527565733" lon="39.3970459979"><ele>118.86</ele><time>2016-12-24T12:00:15Z</time></trkpt><trkpt lat="51.7524499632" lon="39.3962482922"><ele>120.30</ele><time>2016-12-24T12:00:27Z</time></trkpt><trkpt lat="51.7524357978" lon="39.3961762078"><ele>120.30</ele><time>2016-12-24T12:00:28Z</time></trkpt><trkpt lat="51.7524252366" lon="39.3961049616"><ele>120.78</ele><time>2016-12-24T12:00:29Z</time></trkpt><trkpt lat="51.7524081375" lon="39.3959630560"><ele>121.26</ele><time>2016-12-24T12:00:31Z</time></trkpt><trkpt lat="51.7524051201" lon="39.3958913907"><ele>121.26</ele><time>2016-12-24T12:00:32Z</time></trkpt><trkpt lat="51.7524057068" lon="39.3956749700"><ele>121.26</ele><time>2016-12-24T12:00:35Z</time></trkpt><trkpt lat="51.7524076346" lon="39.3956034724"><ele>121.26</ele><time>2016-12-24T12:00:36Z</time></trkpt><trkpt lat="51.7524042819" lon="39.3955291249"><ele>121.26</ele><time>2016-12-24T12:00:37Z</time></trkpt><trkpt lat="51.7523839138" lon="39.3953914940"><ele>121.26</ele><time>2016-12-24T12:00:39Z</time></trkpt><trkpt lat="51.7520280182" lon="39.3944512121"><ele>122.71</ele><time>2016-12-24T12:00:53Z</time></trkpt><trkpt lat="51.7516780738" lon="39.3933557812"><ele>122.71</ele><time>2016-12-24T12:01:07Z</time></trkpt><trkpt lat="51.7515494954" lon="39.3926601671"><ele>123.19</ele><time>2016-12-24T12:01:15Z</time></trkpt><trkpt lat="51.7515228409" lon="39.3925779406"><ele>123.19</ele><time>2016-12-24T12:01:16Z</time></trkpt><trkpt lat="51.7513143830" lon="39.3920484558"><ele>121.74</ele><time>2016-12-24T12:01:23Z</time></trkpt><trkpt lat="51.7512950208" lon="39.3919677380"><ele>121.74</ele><time>2016-12-24T12:01:24Z</time></trkpt><trkpt lat="51.7512854654" lon="39.3918803148"><ele>121.74</ele><time>2016-12-24T12:01:25Z</time></trkpt><trkpt lat="51.7512835376" lon="39.3917900417"><ele>121.26</ele><time>2016-12-24T12:01:26Z</time></trkpt><trkpt lat="51.7512833700" lon="39.3917032052"><ele>121.74</ele><time>2016-12-24T12:01:27Z</time></trkpt><trkpt lat="51.7512768321" lon="39.3916241638"><ele>121.74</ele><time>2016-12-24T12:01:28Z</time></trkpt><trkpt lat="51.7512577213" lon="39.3915505707"><ele>121.74</ele><time>2016-12-24T12:01:29Z</time></trkpt><trkpt lat="51.7512319889" lon="39.3914821744"><ele>121.74</ele><time>2016-12-24T12:01:30Z</time></trkpt><trkpt lat="51.7512026522" lon="39.3914166279"><ele>121.74</ele><time>2016-12-24T12:01:31Z</time></trkpt><trkpt lat="51.7510530353" lon="39.3910039868"><ele>121.74</ele><time>2016-12-24T12:01:37Z</time></trkpt><trkpt lat="51.7505842354" lon="39.3900822289"><ele>123.67</ele><time>2016-12-24T12:01:52Z</time></trkpt><trkpt lat="51.7501127534" lon="39.3893928174"><ele>122.22</ele><time>2016-12-24T12:02:04Z</time></trkpt><trkpt lat="51.7500772141" lon="39.3893312942"><ele>121.74</ele><time>2016-12-24T12:02:05Z</time></trkpt><trkpt lat="51.7500438541" lon="39.3892629817"><ele>121.74</ele><time>2016-12-24T12:02:06Z</time></trkpt><trkpt lat="51.7496406846" lon="39.3883372843"><ele>119.82</ele><time>2016-12-24T12:02:18Z</time></trkpt><trkpt lat="51.7495571170" lon="39.3881897628"><ele>119.82</ele><time>2016-12-24T12:02:20Z</time></trkpt><trkpt lat="51.7495274451" lon="39.3880984001"><ele>119.34</ele><time>2016-12-24T12:02:21Z</time></trkpt><trkpt lat="51.7495057359" lon="39.3880042713"><ele>119.34</ele><time>2016-12-24T12:02:22Z</time></trkpt><trkpt lat="51.7494551092" lon="39.3878110684"><ele>119.34</ele><time>2016-12-24T12:02:24Z</time></trkpt><trkpt lat="51.7493277043" lon="39.3874431867"><ele>118.86</ele><time>2016-12-24T12:02:28Z</time></trkpt><trkpt lat="51.7493056599" lon="39.3873497285"><ele>118.86</ele><time>2016-12-24T12:02:29Z</time></trkpt><trkpt lat="51.7492817715" lon="39.3872524146"><ele>118.38</ele><time>2016-12-24T12:02:30Z</time></trkpt><trkpt lat="51.7492513452" lon="39.3871541787"><ele>118.38</ele><time>2016-12-24T12:02:31Z</time></trkpt><trkpt lat="51.7492199130" lon="39.3870628159"><ele>118.38</ele><time>2016-12-24T12:02:32Z</time></trkpt><trkpt lat="51.7491045780" lon="39.3867061660"><ele>117.90</ele><time>2016-12-24T12:02:36Z</time></trkpt><trkpt lat="51.7490907479" lon="39.3866132945"><ele>117.90</ele><time>2016-12-24T12:02:37Z</time></trkpt><trkpt lat="51.7490907479" lon="39.3865258712"><ele>117.90</ele><time>2016-12-24T12:02:38Z</time></trkpt><trkpt lat="51.7491027340" lon="39.3862843886"><ele>118.38</ele><time>2016-12-24T12:02:41Z</time></trkpt><trkpt lat="51.7490986269" lon="39.3862022460"><ele>118.38</ele><time>2016-12-24T12:02:42Z</time></trkpt><trkpt lat="51.7490888201" lon="39.3861267250"><ele>118.38</ele><time>2016-12-24T12:02:43Z</time></trkpt><trkpt lat="51.7489744909" lon="39.3856116571"><ele>118.38</ele><time>2016-12-24T12:02:51Z</time></trkpt><trkpt lat="51.7486959603" lon="39.3848635722"><ele>118.86</ele><time>2016-12-24T12:03:04Z</time></trkpt><trkpt lat="51.7484640330" lon="39.3841941096"><ele>120.30</ele><time>2016-12-24T12:03:16Z</time></trkpt><trkpt lat="51.7481699958" lon="39.3834628724"><ele>119.82</ele><time>2016-12-24T12:03:30Z</time></trkpt><trkpt lat="51.7479553353" lon="39.3829126004"><ele>119.82</ele><time>2016-12-24T12:03:41Z</time></trkpt><trkpt lat="51.7477279343" lon="39.3821494281"><ele>120.30</ele><time>2016-12-24T12:03:57Z</time></trkpt><trkpt lat="51.7475102562" lon="39.3814172689"><ele>119.82</ele><time>2016-12-24T12:04:12Z</time></trkpt><trkpt lat="51.7471774109" lon="39.3808807433"><ele>119.82</ele><time>2016-12-24T12:04:27Z</time></trkpt><trkpt lat="51.7467727326" lon="39.3811403308"><ele>119.34</ele><time>2016-12-24T12:04:41Z</time></trkpt><trkpt lat="51.7463985644" lon="39.3812403269"><ele>118.38</ele><time>2016-12-24T12:04:54Z</time></trkpt><trkpt lat="51.7462181021" lon="39.3810478784"><ele>119.34</ele><time>2016-12-24T12:05:05Z</time></trkpt><trkpt lat="51.7459798045" lon="39.3803578801"><ele>120.78</ele><time>2016-12-24T12:05:20Z</time></trkpt><trkpt lat="51.7456767149" lon="39.3794660456"><ele>120.30</ele><time>2016-12-24T12:05:35Z</time></trkpt><trkpt lat="51.7456148565" lon="39.3792698253"><ele>119.82</ele><time>2016-12-24T12:05:38Z</time></trkpt><trkpt lat="51.7452281993" lon="39.3781324010"><ele>118.86</ele><time>2016-12-24T12:05:55Z</time></trkpt><trkpt lat="51.7447972856" lon="39.3768337928"><ele>116.94</ele><time>2016-12-24T12:06:12Z</time></trkpt><trkpt lat="51.7443251330" lon="39.3754304945"><ele>115.50</ele><time>2016-12-24T12:06:32Z</time></trkpt><trkpt lat="51.7439450976" lon="39.3742957525"><ele>114.53</ele><time>2016-12-24T12:06:48Z</time></trkpt><trkpt lat="51.7435326241" lon="39.3730629422"><ele>112.61</ele><time>2016-12-24T12:07:05Z</time></trkpt><trkpt lat="51.7430691049" lon="39.3716536090"><ele>112.61</ele><time>2016-12-24T12:07:25Z</time></trkpt><trkpt lat="51.7426646780" lon="39.3704351317"><ele>112.13</ele><time>2016-12-24T12:07:42Z</time></trkpt><trkpt lat="51.7421710677" lon="39.3689071108"><ele>113.57</ele><time>2016-12-24T12:08:04Z</time></trkpt><trkpt lat="51.7420444172" lon="39.3685171008"><ele>113.09</ele><time>2016-12-24T12:08:10Z</time></trkpt><trkpt lat="51.7420209479" lon="39.3684564997"><ele>113.57</ele><time>2016-12-24T12:08:11Z</time></trkpt><trkpt lat="51.7419967242" lon="39.3683973234"><ele>113.57</ele><time>2016-12-24T12:08:12Z</time></trkpt><trkpt lat="51.7417265754" lon="39.3672527745"><ele>113.57</ele><time>2016-12-24T12:08:28Z</time></trkpt><trkpt lat="51.7414971627" lon="39.3658944871"><ele>113.57</ele><time>2016-12-24T12:08:47Z</time></trkpt><trkpt lat="51.7412175424" lon="39.3646227848"><ele>111.17</ele><time>2016-12-24T12:09:04Z</time></trkpt><trkpt lat="51.7407675181" lon="39.3630552851"><ele>110.69</ele><time>2016-12-24T12:09:25Z</time></trkpt><trkpt lat="51.7404501792" lon="39.3619013485"><ele>108.77</ele><time>2016-12-24T12:09:40Z</time></trkpt><trkpt lat="51.7401313316" lon="39.3607540336"><ele>108.77</ele><time>2016-12-24T12:09:56Z</time></trkpt><trkpt lat="51.7397934571" lon="39.3596206326"><ele>107.32</ele><time>2016-12-24T12:10:12Z</time></trkpt><trkpt lat="51.7394665629" lon="39.3584625889"><ele>106.84</ele><time>2016-12-24T12:10:28Z</time></trkpt><trkpt lat="51.7391332146" lon="39.3572022021"><ele>106.36</ele><time>2016-12-24T12:10:45Z</time></trkpt><trkpt lat="51.7386786640" lon="39.3555586785"><ele>103.96</ele><time>2016-12-24T12:11:07Z</time></trkpt><trkpt lat="51.7384757381" lon="39.3549970910"><ele>103.96</ele><time>2016-12-24T12:11:19Z</time></trkpt><trkpt lat="51.7384368461" lon="39.3549695984"><ele>103.96</ele><time>2016-12-24T12:11:20Z</time></trkpt><trkpt lat="51.7383860517" lon="39.3549685087"><ele>104.44</ele><time>2016-12-24T12:11:21Z</time></trkpt><trkpt lat="51.7383470759" lon="39.3549845181"><ele>104.44</ele><time>2016-12-24T12:11:22Z</time></trkpt><trkpt lat="51.7383043282" lon="39.3550120108"><ele>104.44</ele><time>2016-12-24T12:11:23Z</time></trkpt><trkpt lat="51.7376848217" lon="39.3555038609"><ele>106.36</ele><time>2016-12-24T12:11:39Z</time></trkpt><trkpt lat="51.7368920613" lon="39.3561628461"><ele>106.36</ele><time>2016-12-24T12:11:57Z</time></trkpt><trkpt lat="51.7359340936" lon="39.3569599651"><ele>105.88</ele><time>2016-12-24T12:12:18Z</time></trkpt><trkpt lat="51.7349607032" lon="39.3577457685"><ele>105.40</ele><time>2016-12-24T12:12:38Z</time></trkpt><trkpt lat="51.7341716308" lon="39.3584977090"><ele>105.40</ele><time>2016-12-24T12:12:55Z</time></trkpt><trkpt lat="51.7337389570" lon="39.3589435425"><ele>105.88</ele><time>2016-12-24T12:13:05Z</time></trkpt><trkpt lat="51.7336957064" lon="39.3589586299"><ele>105.88</ele><time>2016-12-24T12:13:06Z</time></trkpt><trkpt lat="51.7336517852" lon="39.3589597195"><ele>105.88</ele><time>2016-12-24T12:13:07Z</time></trkpt><trkpt lat="51.7336035892" lon="39.3589417823"><ele>106.36</ele><time>2016-12-24T12:13:08Z</time></trkpt><trkpt lat="51.7335703131" lon="39.3589112721"><ele>106.36</ele><time>2016-12-24T12:13:09Z</time></trkpt><trkpt lat="51.7335408088" lon="39.3588655908"><ele>106.84</ele><time>2016-12-24T12:13:10Z</time></trkpt><trkpt lat="51.7335148249" lon="39.3588107731"><ele>106.84</ele><time>2016-12-24T12:13:11Z</time></trkpt><trkpt lat="51.7334895954" lon="39.3587494176"><ele>107.32</ele><time>2016-12-24T12:13:12Z</time></trkpt><trkpt lat="51.7334673833" lon="39.3586902414"><ele>107.32</ele><time>2016-12-24T12:13:13Z</time></trkpt><trkpt lat="51.7334469315" lon="39.3586255331"><ele>107.32</ele><time>2016-12-24T12:13:14Z</time></trkpt><trkpt lat="51.7333771102" lon="39.3583424762"><ele>107.81</ele><time>2016-12-24T12:13:18Z</time></trkpt><trkpt lat="51.7333354522" lon="39.3581080344"><ele>107.32</ele><time>2016-12-24T12:13:21Z</time></trkpt><trkpt lat="51.7333267350" lon="39.3580301665"><ele>106.84</ele><time>2016-12-24T12:13:22Z</time></trkpt><trkpt lat="51.7332176864" lon="39.3572354782"><ele>106.36</ele><time>2016-12-24T12:13:32Z</time></trkpt><trkpt lat="51.7332065385" lon="39.3571528327"><ele>105.88</ele><time>2016-12-24T12:13:33Z</time></trkpt><trkpt lat="51.7330295965" lon="39.3558279891"><ele>107.81</ele><time>2016-12-24T12:13:50Z</time></trkpt><trkpt lat="51.7328798119" lon="39.3547800835"><ele>106.84</ele><time>2016-12-24T12:14:03Z</time></trkpt><trkpt lat="51.7326537520" lon="39.3532644678"><ele>106.84</ele><time>2016-12-24T12:14:21Z</time></trkpt><trkpt lat="51.7325488105" lon="39.3526063208"><ele>106.84</ele><time>2016-12-24T12:14:29Z</time></trkpt><trkpt lat="51.7325386684" lon="39.3525256868"><ele>106.36</ele><time>2016-12-24T12:14:30Z</time></trkpt><trkpt lat="51.7323196493" lon="39.3512025196"><ele>106.36</ele><time>2016-12-24T12:14:46Z</time></trkpt><trkpt lat="51.7321998719" lon="39.3505714461"><ele>106.84</ele><time>2016-12-24T12:14:54Z</time></trkpt><trkpt lat="51.7321166396" lon="39.3502111081"><ele>106.36</ele><time>2016-12-24T12:15:04Z</time></trkpt><trkpt lat="51.7321060784" lon="39.3501600623"><ele>106.36</ele><time>2016-12-24T12:15:08Z</time></trkpt><trkpt lat="51.7320864648" lon="39.3501324020"><ele>106.36</ele><time>2016-12-24T12:15:09Z</time></trkpt><trkpt lat="51.7320558708" lon="39.3501108605"><ele>106.36</ele><time>2016-12-24T12:15:10Z</time></trkpt><trkpt lat="51.7320287134" lon="39.3501080107"><ele>106.36</ele><time>2016-12-24T12:15:11Z</time></trkpt><trkpt lat="51.7319951858" lon="39.3501039036"><ele>106.36</ele><time>2016-12-24T12:15:12Z</time></trkpt><trkpt lat="51.7314285692" lon="39.3500311486"><ele>105.40</ele><time>2016-12-24T12:15:22Z</time></trkpt><trkpt lat="51.7306169495" lon="39.3495339341"><ele>106.84</ele><time>2016-12-24T12:15:38Z</time></trkpt><trkpt lat="51.7300732993" lon="39.3487050477"><ele>105.40</ele><time>2016-12-24T12:15:52Z</time></trkpt><trkpt lat="51.7298185732" lon="39.3480152171"><ele>105.40</ele><time>2016-12-24T12:16:01Z</time></trkpt><trkpt lat="51.7297847942" lon="39.3477479182"><ele>105.88</ele><time>2016-12-24T12:16:04Z</time></trkpt><trkpt lat="51.7297643423" lon="39.3474797811"><ele>105.88</ele><time>2016-12-24T12:16:07Z</time></trkpt><trkpt lat="51.7297577206" lon="39.3473910168"><ele>105.88</ele><time>2016-12-24T12:16:08Z</time></trkpt><trkpt lat="51.7296530306" lon="39.3460928276"><ele>107.32</ele><time>2016-12-24T12:16:23Z</time></trkpt><trkpt lat="51.7295102868" lon="39.3445751164"><ele>107.32</ele><time>2016-12-24T12:16:40Z</time></trkpt><trkpt lat="51.7294949479" lon="39.3443947379"><ele>106.84</ele><time>2016-12-24T12:16:42Z</time></trkpt><trkpt lat="51.7294852249" lon="39.3443012796"><ele>106.84</ele><time>2016-12-24T12:16:43Z</time></trkpt><trkpt lat="51.7293642741" lon="39.3428698182"><ele>107.81</ele><time>2016-12-24T12:16:59Z</time></trkpt><trkpt lat="51.7292781919" lon="39.3414897379"><ele>105.40</ele><time>2016-12-24T12:17:14Z</time></trkpt><trkpt lat="51.7291767709" lon="39.3395696115"><ele>103.96</ele><time>2016-12-24T12:17:35Z</time></trkpt><trkpt lat="51.7290801276" lon="39.3378363177"><ele>105.88</ele><time>2016-12-24T12:17:55Z</time></trkpt><trkpt lat="51.7290923651" lon="39.3375787418"><ele>105.88</ele><time>2016-12-24T12:17:58Z</time></trkpt><trkpt lat="51.7291065305" lon="39.3374966830"><ele>105.88</ele><time>2016-12-24T12:17:59Z</time></trkpt><trkpt lat="51.7291428242" lon="39.3373422883"><ele>105.88</ele><time>2016-12-24T12:18:01Z</time></trkpt><trkpt lat="51.7296640947" lon="39.3359332904"><ele>105.88</ele><time>2016-12-24T12:18:20Z</time></trkpt><trkpt lat="51.7298538610" lon="39.3347210158"><ele>106.36</ele><time>2016-12-24T12:18:35Z</time></trkpt><trkpt lat="51.7298190761" lon="39.3339179456"><ele>106.36</ele><time>2016-12-24T12:18:45Z</time></trkpt><trkpt lat="51.7297481652" lon="39.3325551320"><ele>105.88</ele><time>2016-12-24T12:19:01Z</time></trkpt><trkpt lat="51.7297783401" lon="39.3321269844"><ele>105.88</ele><time>2016-12-24T12:19:06Z</time></trkpt><trkpt lat="51.7300778255" lon="39.3307862151"><ele>104.44</ele><time>2016-12-24T12:19:23Z</time></trkpt><trkpt lat="51.7305670772" lon="39.3296500482"><ele>104.92</ele><time>2016-12-24T12:19:40Z</time></trkpt><trkpt lat="51.7311984859" lon="39.3286259472"><ele>105.40</ele><time>2016-12-24T12:19:58Z</time></trkpt><trkpt lat="51.7314508650" lon="39.3274913728"><ele>105.88</ele><time>2016-12-24T12:20:14Z</time></trkpt><trkpt lat="51.7315792758" lon="39.3259584904"><ele>105.40</ele><time>2016-12-24T12:20:34Z</time></trkpt><trkpt lat="51.7316890787" lon="39.3245633226"><ele>104.92</ele><time>2016-12-24T12:20:52Z</time></trkpt><trkpt lat="51.7317996360" lon="39.3231449369"><ele>104.92</ele><time>2016-12-24T12:21:10Z</time></trkpt><trkpt lat="51.7319193296" lon="39.3216238730"><ele>105.88</ele><time>2016-12-24T12:21:29Z</time></trkpt><trkpt lat="51.7319270410" lon="39.3209953140"><ele>105.88</ele><time>2016-12-24T12:21:37Z</time></trkpt><trkpt lat="51.7319179885" lon="39.3209176138"><ele>106.36</ele><time>2016-12-24T12:21:38Z</time></trkpt><trkpt lat="51.7315368634" lon="39.3199027330"><ele>106.36</ele><time>2016-12-24T12:21:53Z</time></trkpt><trkpt lat="51.7309342045" lon="39.3193466775"><ele>106.36</ele><time>2016-12-24T12:22:07Z</time></trkpt><trkpt lat="51.7299321480" lon="39.3191046081"><ele>107.32</ele><time>2016-12-24T12:22:27Z</time></trkpt><trkpt lat="51.7289462686" lon="39.3188908696"><ele>108.29</ele><time>2016-12-24T12:22:47Z</time></trkpt><trkpt lat="51.7279185634" lon="39.3186721019"><ele>109.73</ele><time>2016-12-24T12:23:08Z</time></trkpt><trkpt lat="51.7269088794" lon="39.3184731156"><ele>110.69</ele><time>2016-12-24T12:23:29Z</time></trkpt><trkpt lat="51.7263459507" lon="39.3183368258"><ele>111.65</ele><time>2016-12-24T12:23:41Z</time></trkpt><trkpt lat="51.7263020296" lon="39.3183063995"><ele>112.13</ele><time>2016-12-24T12:23:42Z</time></trkpt><trkpt lat="51.7262591980" lon="39.3182616401"><ele>112.13</ele><time>2016-12-24T12:23:43Z</time></trkpt><trkpt lat="51.7262280174" lon="39.3182090018"><ele>111.65</ele><time>2016-12-24T12:23:44Z</time></trkpt><trkpt lat="51.7261999380" lon="39.3181373365"><ele>111.17</ele><time>2016-12-24T12:23:45Z</time></trkpt><trkpt lat="51.7261816654" lon="39.3180545233"><ele>111.17</ele><time>2016-12-24T12:23:46Z</time></trkpt><trkpt lat="51.7261792347" lon="39.3180005439"><ele>111.17</ele><time>2016-12-24T12:23:47Z</time></trkpt><trkpt lat="51.7261822522" lon="39.3179300521"><ele>111.17</ele><time>2016-12-24T12:23:48Z</time></trkpt><trkpt lat="51.7261861917" lon="39.3178627454"><ele>111.17</ele><time>2016-12-24T12:23:49Z</time></trkpt><trkpt lat="51.7263150215" lon="39.3164976686"><ele>110.69</ele><time>2016-12-24T12:24:09Z</time></trkpt><trkpt lat="51.7264450248" lon="39.3151566479"><ele>114.05</ele><time>2016-12-24T12:24:29Z</time></trkpt><trkpt lat="51.7265462782" lon="39.3140531704"><ele>116.94</ele><time>2016-12-24T12:24:47Z</time></trkpt><trkpt lat="51.7266555782" lon="39.3129059393"><ele>118.38</ele><time>2016-12-24T12:25:05Z</time></trkpt><trkpt lat="51.7268043570" lon="39.3114291318"><ele>120.30</ele><time>2016-12-24T12:25:27Z</time></trkpt><trkpt lat="51.7268523853" lon="39.3109558895"><ele>120.78</ele><time>2016-12-24T12:25:34Z</time></trkpt><trkpt lat="51.7270146590" lon="39.3092427962"><ele>120.78</ele><time>2016-12-24T12:25:59Z</time></trkpt><trkpt lat="51.7271544691" lon="39.3078360613"><ele>120.30</ele><time>2016-12-24T12:26:18Z</time></trkpt><trkpt lat="51.7272759229" lon="39.3065245450"><ele>119.82</ele><time>2016-12-24T12:26:35Z</time></trkpt><trkpt lat="51.7274291441" lon="39.3049567100"><ele>117.42</ele><time>2016-12-24T12:26:55Z</time></trkpt><trkpt lat="51.7275570519" lon="39.3036239874"><ele>116.46</ele><time>2016-12-24T12:27:12Z</time></trkpt><trkpt lat="51.7277196608" lon="39.3018813897"><ele>115.50</ele><time>2016-12-24T12:27:34Z</time></trkpt><trkpt lat="51.7278755642" lon="39.3001262192"><ele>115.01</ele><time>2016-12-24T12:27:56Z</time></trkpt><trkpt lat="51.7279005423" lon="39.2982748244"><ele>114.05</ele><time>2016-12-24T12:28:19Z</time></trkpt><trkpt lat="51.7278351635" lon="39.2971174512"><ele>114.53</ele><time>2016-12-24T12:28:34Z</time></trkpt><trkpt lat="51.7278002948" lon="39.2969700135"><ele>114.53</ele><time>2016-12-24T12:28:36Z</time></trkpt><trkpt lat="51.7277726345" lon="39.2969145253"><ele>114.53</ele><time>2016-12-24T12:28:37Z</time></trkpt><trkpt lat="51.7277468182" lon="39.2968777288"><ele>115.01</ele><time>2016-12-24T12:28:38Z</time></trkpt><trkpt lat="51.7277104408" lon="39.2968413513"><ele>114.53</ele><time>2016-12-24T12:28:39Z</time></trkpt><trkpt lat="51.7276651785" lon="39.2968092486"><ele>114.53</ele><time>2016-12-24T12:28:40Z</time></trkpt><trkpt lat="51.7276241910" lon="39.2967851926"><ele>114.53</ele><time>2016-12-24T12:28:41Z</time></trkpt><trkpt lat="51.7275786772" lon="39.2967648245"><ele>114.53</ele><time>2016-12-24T12:28:42Z</time></trkpt><trkpt lat="51.7267046124" lon="39.2965265270"><ele>113.57</ele><time>2016-12-24T12:28:59Z</time></trkpt><trkpt lat="51.7256405298" lon="39.2962487508"><ele>112.61</ele><time>2016-12-24T12:29:20Z</time></trkpt><trkpt lat="51.7255912442" lon="39.2962370999"><ele>112.61</ele><time>2016-12-24T12:29:21Z</time></trkpt><trkpt lat="51.7247445043" lon="39.2960059270"><ele>111.65</ele><time>2016-12-24T12:29:38Z</time></trkpt><trkpt lat="51.7236177251" lon="39.2957126442"><ele>111.65</ele><time>2016-12-24T12:30:00Z</time></trkpt><trkpt lat="51.7225609347" lon="39.2954443395"><ele>110.21</ele><time>2016-12-24T12:30:20Z</time></trkpt><trkpt lat="51.7213985324" lon="39.2951466143"><ele>109.25</ele><time>2016-12-24T12:30:42Z</time></trkpt><trkpt lat="51.7202949710" lon="39.2948674131"><ele>109.73</ele><time>2016-12-24T12:31:03Z</time></trkpt><trkpt lat="51.7192817666" lon="39.2945535947"><ele>110.21</ele><time>2016-12-24T12:31:23Z</time></trkpt><trkpt lat="51.7184332665" lon="39.2943428736"><ele>110.21</ele><time>2016-12-24T12:31:39Z</time></trkpt><trkpt lat="51.7174815014" lon="39.2940909136"><ele>111.65</ele><time>2016-12-24T12:31:58Z</time></trkpt><trkpt lat="51.7165735736" lon="39.2938646022"><ele>111.65</ele><time>2016-12-24T12:32:16Z</time></trkpt><trkpt lat="51.7154963315" lon="39.2935813777"><ele>111.65</ele><time>2016-12-24T12:32:37Z</time></trkpt><trkpt lat="51.7144174129" lon="39.2933095526"><ele>112.13</ele><time>2016-12-24T12:32:58Z</time></trkpt><trkpt lat="51.7133239936" lon="39.2930271663"><ele>112.61</ele><time>2016-12-24T12:33:19Z</time></trkpt><trkpt lat="51.7125133798" lon="39.2928260844"><ele>112.61</ele><time>2016-12-24T12:33:35Z</time></trkpt><trkpt lat="51.7118169274" lon="39.2926476337"><ele>113.09</ele><time>2016-12-24T12:33:49Z</time></trkpt><trkpt lat="51.7117673904" lon="39.2926357314"><ele>113.09</ele><time>2016-12-24T12:33:50Z</time></trkpt><trkpt lat="51.7110729497" lon="39.2924582027"><ele>114.53</ele><time>2016-12-24T12:34:04Z</time></trkpt><trkpt lat="51.7101020738" lon="39.2922094278"><ele>115.98</ele><time>2016-12-24T12:34:24Z</time></trkpt><trkpt lat="51.7092188727" lon="39.2919893190"><ele>116.46</ele><time>2016-12-24T12:34:42Z</time></trkpt><trkpt lat="51.7082761601" lon="39.2917606607"><ele>116.46</ele><time>2016-12-24T12:35:01Z</time></trkpt><trkpt lat="51.7072047014" lon="39.2914879136"><ele>116.46</ele><time>2016-12-24T12:35:22Z</time></trkpt><trkpt lat="51.7062013876" lon="39.2912272364"><ele>117.42</ele><time>2016-12-24T12:35:42Z</time></trkpt><trkpt lat="51.7052005883" lon="39.2909762822"><ele>118.38</ele><time>2016-12-24T12:36:02Z</time></trkpt><trkpt lat="51.7042503320" lon="39.2907425109"><ele>118.86</ele><time>2016-12-24T12:36:21Z</time></trkpt><trkpt lat="51.7033323459" lon="39.2904918920"><ele>118.86</ele><time>2016-12-24T12:36:40Z</time></trkpt><trkpt lat="51.7025463749" lon="39.2898638360"><ele>118.86</ele><time>2016-12-24T12:36:58Z</time></trkpt><trkpt lat="51.7022784892" lon="39.2892921064"><ele>118.86</ele><time>2016-12-24T12:37:07Z</time></trkpt><trkpt lat="51.7021225858" lon="39.2880925722"><ele>116.46</ele><time>2016-12-24T12:37:22Z</time></trkpt><trkpt lat="51.7022175528" lon="39.2866387311"><ele>115.98</ele><time>2016-12-24T12:37:39Z</time></trkpt><trkpt lat="51.7023530882" lon="39.2850034218"><ele>115.01</ele><time>2016-12-24T12:37:58Z</time></trkpt><trkpt lat="51.7024268489" lon="39.2840548418"><ele>114.05</ele><time>2016-12-24T12:38:09Z</time></trkpt><trkpt lat="51.7024364881" lon="39.2838817555"><ele>114.05</ele><time>2016-12-24T12:38:11Z</time></trkpt><trkpt lat="51.7025637254" lon="39.2824267410"><ele>114.05</ele><time>2016-12-24T12:38:29Z</time></trkpt><trkpt lat="51.7027005181" lon="39.2807615083"><ele>113.09</ele><time>2016-12-24T12:38:49Z</time></trkpt><trkpt lat="51.7028283421" lon="39.2791771609"><ele>108.77</ele><time>2016-12-24T12:39:07Z</time></trkpt><trkpt lat="51.7029917892" lon="39.2774127703"><ele>104.92</ele><time>2016-12-24T12:39:26Z</time></trkpt><trkpt lat="51.7030319385" lon="39.2769433837"><ele>104.92</ele><time>2016-12-24T12:39:32Z</time></trkpt><trkpt lat="51.7030991614" lon="39.2759383935"><ele>107.81</ele><time>2016-12-24T12:39:47Z</time></trkpt><trkpt lat="51.7031186074" lon="39.2754413467"><ele>109.73</ele><time>2016-12-24T12:40:01Z</time></trkpt><trkpt lat="51.7031061184" lon="39.2754255049"><ele>114.05</ele><time>2016-12-24T12:40:38Z</time></trkpt><trkpt lat="51.7031155899" lon="39.2752449587"><ele>113.09</ele><time>2016-12-24T12:41:04Z</time></trkpt><trkpt lat="51.7029995844" lon="39.2750235926"><ele>112.61</ele><time>2016-12-24T12:41:09Z</time></trkpt><trkpt lat="51.7029657215" lon="39.2750025541"><ele>112.61</ele><time>2016-12-24T12:41:10Z</time></trkpt><trkpt lat="51.7029263265" lon="39.2749843653"><ele>112.61</ele><time>2016-12-24T12:41:11Z</time></trkpt><trkpt lat="51.7021238431" lon="39.2747219279"><ele>111.65</ele><time>2016-12-24T12:41:31Z</time></trkpt><trkpt lat="51.7012860719" lon="39.2742266413"><ele>111.65</ele><time>2016-12-24T12:41:52Z</time></trkpt><trkpt lat="51.7008873448" lon="39.2739907745"><ele>112.13</ele><time>2016-12-24T12:42:06Z</time></trkpt><trkpt lat="51.7005752027" lon="39.2737557460"><ele>112.61</ele><time>2016-12-24T12:42:16Z</time></trkpt><trkpt lat="51.7002304550" lon="39.2733753752"><ele>112.13</ele><time>2016-12-24T12:42:28Z</time></trkpt><trkpt lat="51.6996228509" lon="39.2729229201"><ele>113.09</ele><time>2016-12-24T12:42:46Z</time></trkpt><trkpt lat="51.6992411390" lon="39.2726923339"><ele>114.05</ele><time>2016-12-24T12:42:58Z</time></trkpt><trkpt lat="51.6986561660" lon="39.2723357677"><ele>113.57</ele><time>2016-12-24T12:43:15Z</time></trkpt><trkpt lat="51.6981823370" lon="39.2720284034"><ele>113.09</ele><time>2016-12-24T12:43:28Z</time></trkpt><trkpt lat="51.6978504136" lon="39.2718238849"><ele>112.61</ele><time>2016-12-24T12:43:42Z</time></trkpt><trkpt lat="51.6976904031" lon="39.2717093043"><ele>113.57</ele><time>2016-12-24T12:43:53Z</time></trkpt><trkpt lat="51.6976795904" lon="39.2716808897"><ele>113.57</ele><time>2016-12-24T12:43:54Z</time></trkpt><trkpt lat="51.6976842843" lon="39.2712981720"><ele>113.57</ele><time>2016-12-24T12:44:06Z</time></trkpt><trkpt lat="51.6976754833" lon="39.2712792289"><ele>113.09</ele><time>2016-12-24T12:44:07Z</time></trkpt><trkpt lat="51.6976628266" lon="39.2712462880"><ele>113.09</ele><time>2016-12-24T12:44:08Z</time></trkpt><trkpt lat="51.6976536065" lon="39.2712104134"><ele>112.61</ele><time>2016-12-24T12:44:09Z</time></trkpt><trkpt lat="51.6976432968" lon="39.2711737007"><ele>113.09</ele><time>2016-12-24T12:44:10Z</time></trkpt><trkpt lat="51.6976294667" lon="39.2711319588"><ele>113.09</ele><time>2016-12-24T12:44:11Z</time></trkpt><trkpt lat="51.6976089310" lon="39.2710866127"><ele>113.09</ele><time>2016-12-24T12:44:12Z</time></trkpt><trkpt lat="51.6975828633" lon="39.2710479721"><ele>113.09</ele><time>2016-12-24T12:44:13Z</time></trkpt><trkpt lat="51.6975512635" lon="39.2710171267"><ele>113.09</ele><time>2016-12-24T12:44:14Z</time></trkpt><trkpt lat="51.6975242738" lon="39.2709935736"><ele>113.09</ele><time>2016-12-24T12:44:15Z</time></trkpt><trkpt lat="51.6968713235" lon="39.2705703713"><ele>111.17</ele><time>2016-12-24T12:44:33Z</time></trkpt><trkpt lat="51.6964351293" lon="39.2702363525"><ele>109.73</ele><time>2016-12-24T12:44:46Z</time></trkpt><trkpt lat="51.6964341234" lon="39.2701855581"><ele>109.73</ele><time>2016-12-24T12:44:47Z</time></trkpt><trkpt lat="51.6964412481" lon="39.2701366916"><ele>109.73</ele><time>2016-12-24T12:44:48Z</time></trkpt><trkpt lat="51.6966065392" lon="39.2693931330"><ele>111.17</ele><time>2016-12-24T12:45:01Z</time></trkpt><trkpt lat="51.6966935433" lon="39.2686532624"><ele>114.05</ele><time>2016-12-24T12:45:14Z</time></trkpt><trkpt lat="51.6968547273" lon="39.2678668723"><ele>114.53</ele><time>2016-12-24T12:45:29Z</time></trkpt><trkpt lat="51.6968841478" lon="39.2677315045"><ele>115.50</ele><time>2016-12-24T12:45:33Z</time></trkpt><trkpt lat="51.6968759336" lon="39.2677053530"><ele>115.50</ele><time>2016-12-24T12:45:34Z</time></trkpt><trkpt lat="51.6965849977" lon="39.2674338631"><ele>115.98</ele><time>2016-12-24T12:45:46Z</time></trkpt><trkpt lat="51.6961564310" lon="39.2670609523"><ele>115.50</ele><time>2016-12-24T12:46:01Z</time></trkpt><trkpt lat="51.6958227474" lon="39.2668740358"><ele>114.05</ele><time>2016-12-24T12:46:13Z</time></trkpt><trkpt lat="51.6958049778" lon="39.2668498121"><ele>114.05</ele><time>2016-12-24T12:46:14Z</time></trkpt><trkpt lat="51.6957843583" lon="39.2668286897"><ele>114.53</ele><time>2016-12-24T12:46:15Z</time></trkpt><trkpt lat="51.6957607213" lon="39.2668119259"><ele>114.53</ele><time>2016-12-24T12:46:16Z</time></trkpt><trkpt lat="51.6957296245" lon="39.2667968385"><ele>114.53</ele><time>2016-12-24T12:46:17Z</time></trkpt><trkpt lat="51.6952593159" lon="39.2664951738"><ele>113.09</ele><time>2016-12-24T12:46:33Z</time></trkpt><trkpt lat="51.6950723995" lon="39.2663309723"><ele>112.61</ele><time>2016-12-24T12:46:42Z</time></trkpt><trkpt lat="51.6950734891" lon="39.2663137894"><ele>112.61</ele><time>2016-12-24T12:46:43Z</time></trkpt><trkpt lat="51.6950777639" lon="39.2662994564"><ele>112.13</ele><time>2016-12-24T12:46:44Z</time></trkpt><trkpt lat="51.6950854752" lon="39.2662808485"><ele>112.13</ele><time>2016-12-24T12:46:45Z</time></trkpt><trkpt lat="51.6950910073" lon="39.2662638333"><ele>112.13</ele><time>2016-12-24T12:46:46Z</time></trkpt><trkpt lat="51.6950961202" lon="39.2662421241"><ele>112.13</ele><time>2016-12-24T12:46:47Z</time></trkpt><trkpt lat="51.6950902529" lon="39.2661260348"><ele>111.17</ele><time>2016-12-24T12:46:53Z</time></trkpt><trkpt lat="51.6950778477" lon="39.2661487497"><ele>112.13</ele><time>2016-12-24T12:47:04Z</time></trkpt><trkpt lat="51.6950936895" lon="39.2661659326"><ele>115.50</ele><time>2016-12-24T12:47:29Z</time></trkpt><trkpt lat="51.6950754169" lon="39.2661521025"><ele>115.98</ele><time>2016-12-24T12:47:44Z</time></trkpt><trkpt lat="51.6951321624" lon="39.2661572155"><ele>117.90</ele><time>2016-12-24T12:48:00Z</time></trkpt><trkpt lat="51.6951374430" lon="39.2661702074"><ele>119.34</ele><time>2016-12-24T12:48:18Z</time></trkpt><trkpt lat="51.6951673664" lon="39.2660779227"><ele>119.34</ele><time>2016-12-24T12:48:37Z</time></trkpt><trkpt lat="51.6951952782" lon="39.2660281342"><ele>119.34</ele><time>2016-12-24T12:48:56Z</time></trkpt><trkpt lat="51.6952941846" lon="39.2660474963"><ele>119.82</ele><time>2016-12-24T12:49:15Z</time></trkpt><trkpt lat="51.6953495890" lon="39.2661213409"><ele>122.22</ele><time>2016-12-24T12:49:33Z</time></trkpt><trkpt lat="51.6952124611" lon="39.2661479115"><ele>126.07</ele><time>2016-12-24T12:49:51Z</time></trkpt><trkpt lat="51.6950761713" lon="39.2660997994"><ele>128.47</ele><time>2016-12-24T12:50:12Z</time></trkpt><trkpt lat="51.6949458327" lon="39.2661000509"><ele>123.67</ele><time>2016-12-24T12:50:32Z</time></trkpt><trkpt lat="51.6949066892" lon="39.2661039066"><ele>115.50</ele><time>2016-12-24T12:51:08Z</time></trkpt><trkpt lat="51.6949337628" lon="39.2660915013"><ele>116.46</ele><time>2016-12-24T12:51:50Z</time></trkpt><trkpt lat="51.6949149873" lon="39.2661150545"><ele>121.74</ele><time>2016-12-24T12:52:33Z</time></trkpt><trkpt lat="51.6949235369" lon="39.2661114503"><ele>120.30</ele><time>2016-12-24T12:53:17Z</time></trkpt><trkpt lat="51.6949257161" lon="39.2661266215"><ele>119.82</ele><time>2016-12-24T12:53:39Z</time></trkpt><trkpt lat="51.6949006543" lon="39.2661358416"><ele>120.78</ele><time>2016-12-24T12:54:18Z</time></trkpt><trkpt lat="51.6949041747" lon="39.2661616579"><ele>122.71</ele><time>2016-12-24T12:54:45Z</time></trkpt></trkseg></trk></gpx>